GFSCGP_prec_radar_000.txt.gz
Reflectivity
-20 -20 -20 -20 -20 -20 -17 -20 -20 -20 -20 -20 -20 -20 -20 -20 -20 -20 -20 -20 -20 -20 -20 -20 -20 -20 -20 -20 -20 -20 30 20 -1 -20 -20 15 -14 -20 -20 -20 -20 -20 -20 -20
-20 -20 -20 -20 -20 -20 -14 -20 -20 -20 -20 -20 -20 -20 -20 -20 -20 -20 -20 -20 -20 -20 -20 -20 -20 -20 -13 -20 2 -11 16 -20 -20 -11 -8 -10 -20 -20 -20 -20 -17 -18 -20 -20
-20 -20 -20 -20 -20 -20 -20 -20 -20 -20 -20 -20 -20 -20 -20 -20 -20 -20 -20 -20 -20 -17 -20 -20 -11 -20 -16 -20 -16 -20 -20 -20 -9 -18 -9 -20 -20 -20 -20 -20 -20 -20 -20 -20
-20 -20 -20 -20 -20 -20 -20 -20 -20 -20 -20 -20 -20 -20 -20 -20 -20 -20 -20 -20 -3 13 0 -20 -20 -20 -20 -20 -20 -20 -20 -20 -20 -20 -20 -20 -20 -20 -20 -20 -20 -20 -20 -20
-20 -20 -20 -20 -20 -20 -20 -20 -20 -20 -20 -20 -20 -20 -20 -20 -20 -20 -20 -20 -20 -20 -20 -20 -20 -20 -20 -20 -20 -20 -20 -20 -20 -20 -20 -20 -20 -20 -20 -20 -20 -20 -20 -20
-20 -20 -20 -20 -20 -20 -20 -20 -20 -20 -20 -20 -20 -20 -20 -20 -20 -20 -20 -20 -20 -20 -20 -20 -20 -20 -20 -20 -20 -20 -20 -20 -20 -20 -20 -20 -20 -20 -20 -20 -20 -20 -20 -20
-20 -20 -20 -20 -20 -20 -20 -20 -20 -20 -20 -20 -20 -20 -20 -20 -20 -20 -20 -20 -20 -20 -20 -20 -20 -20 -20 -20 -20 -20 -20 -20 -20 -20 -20 -20 -20 -20 -20 -20 -20 -1 17 6
-20 -20 -20 -20 -20 -20 -20 -20 -20 -20 -20 -20 -20 -20 -20 -20 -20 -20 -20 -20 -20 -4 -20 -20 -20 -20 -20 -20 -20 -20 -20 -20 -20 -20 -20 -20 -20 -20 -20 -7 -19 25 -14 3
-20 -20 -20 -20 -20 -20 -20 -20 -20 -20 -20 -20 -20 -20 -20 -20 -20 -20 9 9 -20 -20 -20 -20 -20 -20 -20 -20 -20 -20 -20 -20 -20 -20 -20 -20 -19 -10 3 -3 -20 -20 -20 -20
-20 -20 -20 -20 -20 -20 -20 -20 -20 -20 -20 -20 -20 -20 -20 -20 -20 -20 -20 -20 -20 -20 -20 -20 -20 -20 -20 -20 -20 -20 -20 -20 -20 -20 -20 -20 -20 -20 -20 -20 -20 -20 -20 -20
-20 -20 -20 -20 -20 -20 -20 -20 -20 -20 -20 -20 -20 -20 -20 -20 -20 -20 -20 -20 -20 -20 -20 -20 -20 -20 -20 -20 -20 -20 -20 -20 -20 -20 -20 -20 -20 -20 -20 -20 -20 -20 -20 26
-20 -20 -20 -20 -20 -20 -20 -20 -20 -20 -20 -20 -20 -20 -20 -20 -20 -20 -20 -20 -20 0 -20 -20 -20 -20 -20 -20 -20 -20 -20 -20 -20 -20 -20 -20 -20 -20 -20 -20 -20 -20 -9 -20
-20 -20 -20 -20 -20 -20 -20 -20 -20 -20 -20 -20 -20 -20 -20 -20 -20 -20 -20 -20 -20 -20 -20 -20 -20 -20 -20 -20 -20 -20 -20 -20 -20 -20 -20 -20 -20 -20 -20 -20 -20 -20 -9 -16
-20 -20 -20 -20 -20 -20 -20 -20 -20 -20 -20 -20 -20 -20 -20 -20 -20 -20 -20 -20 -20 -20 -20 -20 -20 -20 -20 -20 -20 -20 -20 -20 -20 -20 -20 -20 -20 -20 -20 -20 2 11 29 -13
-20 -20 -20 -20 -20 -20 -20 -20 -20 -20 -20 -20 -20 -20 -20 -20 -20 -20 -20 -20 -20 -20 -20 -20 -20 -20 -20 -20 -20 -20 -20 -20 -20 -20 -20 -20 -20 -20 -20 -20 -20 -20 -20 -5
-20 -20 -20 -20 -20 -20 -20 -20 -20 -20 -20 -20 -20 -20 -20 -20 -20 -20 -20 -20 -20 -20 -20 -20 -20 -20 -20 -20 -20 -20 -20 -20 -20 -20 -20 -20 -20 -20 -20 -20 -20 -20 -20 -20
-20 -20 -20 -20 -20 -20 -20 -20 -20 -20 -20 -20 -20 -20 -20 -20 -20 -20 -20 -20 -20 -20 -20 -20 -20 -20 -20 -20 -20 -20 -20 -20 -20 -20 -20 -20 -20 -20 -20 -20 -20 -20 -20 -20
-20 -20 -20 -20 -20 -20 -20 -20 -20 -20 -20 -20 -20 -20 -20 -20 -20 -20 -20 -20 -20 -20 -20 -20 -20 -20 -20 -20 -20 -20 -20 -20 -20 -20 -20 -20 -20 -20 -20 -20 -20 10 -11 -9
-20 -20 -20 -20 -20 -20 -20 -20 -20 -20 -20 -20 -20 -20 -20 -20 -20 -20 -20 -20 -20 -20 -20 -20 -20 -20 -20 -20 -20 -20 -20 -20 -20 -20 -20 -20 -20 -20 -20 -20 -20 -17 -20 -20
-20 -20 -20 -20 -20 -20 -20 -20 -20 -20 -20 -20 -20 -20 -20 -20 -20 -20 -20 -20 -20 -20 -20 -20 -20 -20 -20 -20 -20 -20 -20 -20 -20 -20 -20 -20 -20 -20 -20 -20 -20 -20 -20 -20
-20 -20 -20 -20 -20 -20 -20 -20 -20 -20 -20 -20 -20 -20 -20 -20 -20 -20 -20 -20 -20 -20 -20 -20 -20 -20 -20 -20 -20 -20 -20 -20 -20 -20 -20 -20 -20 -20 -20 -20 -20 -20 -20 -20
-20 -20 -20 -20 -20 -20 -20 -20 -20 -20 -20 -20 -20 -20 -20 -20 -20 -20 -20 -20 -20 -20 -20 -20 -20 -20 -20 -20 -20 -20 -20 -20 -20 -20 -20 -20 -20 -20 -20 -20 -20 -20 -20 -20
-20 -20 -20 -20 -20 -20 -20 -20 -20 -20 -20 -20 -20 -20 -20 -20 -20 -20 -20 -20 -20 -20 -20 -20 -20 -20 -20 -20 -20 -20 -20 -20 -20 -20 -20 -20 -20 -20 -20 -20 -20 -20 -20 -20
-20 -20 -20 -20 -20 -20 -20 -20 -20 -20 -20 -20 -20 -20 -20 -20 -20 -20 -20 -20 -20 -20 -20 -20 -20 -20 -20 -20 -20 -20 -20 -20 -20 -20 -20 -20 -20 -20 -20 -20 -20 -20 -20 -20
-20 -20 -20 -20 -20 -20 -20 -20 -20 -20 -20 -20 -20 -20 -20 -20 -20 -20 -20 -20 -20 -20 -20 -20 -20 -20 -20 -20 -20 -20 -20 -20 -20 -20 -20 -20 -20 -20 -20 -20 -20 -20 -20 -20
-18 -20 -20 -20 -20 -20 -20 -20 -20 -20 -20 -20 -20 -20 -20 -20 -20 -20 -20 -20 -20 -20 -20 -20 -20 -20 -20 -20 -20 -20 -20 -20 -20 -20 -17 -6 -20 -20 -20 -20 -20 -20 -20 -20

GFSCGP_prec_radar_003.txt.gz
Reflectivity
-20 -20 -20 -20 -20 -20 -20 -20 -20 -20 -20 -20 -20 -20 -20 -20 -20 -20 -20 -20 -20 -20 -20 4 -20 -13 -20 -20 -20 30 32 4 28 19 22 -1 16 18 -20 -20 -20 -20 -15 -10
-20 -20 -20 -20 -20 -20 -20 -20 -20 -20 -20 -20 -20 -20 -20 -20 -20 -20 -20 -20 -20 -20 -20 -15 -20 -15 -20 22 -16 -7 -10 8 -20 -20 -13 9 19 -20 -20 -20 -20 -20 -20 -20
-20 -20 -20 -20 -20 -20 -20 -20 -20 -20 -20 -20 -20 -20 -20 -20 -20 -20 -20 -20 -20 -20 -17 11 -7 -20 -20 -20 -14 -20 -20 -20 -20 8 -3 -14 -20 -20 -20 -20 -20 -20 -20 -20
-20 -20 -20 -20 -20 -20 -20 -20 -20 -20 -20 -20 -20 -20 -20 -20 -20 -20 -20 -20 -20 -10 -18 -20 -20 -20 -20 -20 -20 -20 -20 -20 -20 -20 -20 -20 -20 -20 -20 -20 -20 -20 -20 -20
-20 -20 -20 -20 -20 -20 -20 -20 -20 -20 -20 -20 -20 -20 -20 -20 -20 -20 -20 -20 -14 1 -20 -20 -20 -20 -20 -20 -20 -20 -20 -20 -20 -20 -20 -20 -20 -20 -20 -20 -20 -20 -20 -20
-20 -20 -20 -20 -20 -20 -20 -20 -20 -20 -20 -20 -20 -20 -20 -20 -20 -20 -20 -20 -20 -4 -20 -20 -16 0 -20 -20 -20 -20 -20 -20 -20 -20 -20 -20 -20 -20 -20 -20 -20 -20 -20 -20
-20 -20 -20 -20 -20 -20 -20 -20 -20 -20 -20 -20 -20 -20 -20 -20 -20 -20 -20 -20 -20 -20 -19 8 -1 -20 -20 -20 -20 -20 -20 -20 -20 -20 -20 -20 -20 -20 -20 -20 -20 -20 -20 -20
-20 -20 -20 -20 -20 -20 -20 -20 -20 -20 -20 -20 -20 -20 -20 -20 -20 -20 -20 -20 -20 -17 11 -14 -20 -20 -20 -20 -20 -20 -20 -20 -20 -20 -20 -20 -20 -20 -20 -20 -20 -20 -20 -20
-20 -20 -20 -20 -20 -20 -20 -20 -20 -20 -20 -20 -20 -20 -20 -20 -20 -20 -20 -20 -20 -20 -20 -20 -20 -20 -20 -20 -20 -20 -20 -20 -20 -20 -20 -20 -20 -20 -20 -20 -20 -20 -20 -20
-20 -20 -20 -20 -20 -20 -20 -20 -20 -20 -20 -20 -20 -20 -20 -20 -20 -20 -20 -20 -20 -20 -20 -20 -20 -20 -20 -20 -20 -20 -20 -20 -20 -20 -20 -20 -20 -20 -20 -20 -20 -20 -20 -20
-20 -20 -20 -20 -20 -20 -20 -20 -20 -20 -20 -20 -20 -20 -20 -20 -20 -20 -20 -20 -20 -20 -20 -20 -20 -20 -20 1 -13 -20 -20 -20 -20 -20 -20 -20 -20 -20 -20 -20 -20 -20 -20 -20
-20 -20 -20 -20 -20 -20 -20 -20 -20 -20 -20 -20 -20 -20 -20 -20 -20 -20 -20 -20 -20 -20 -20 -20 -20 -18 20 -4 -20 -20 -20 -20 -20 -20 -20 -20 -20 -20 -20 -20 -20 -20 -20 -19
-20 -20 -20 -20 -20 -20 -20 -20 -20 -20 -20 -20 -20 -20 -20 -20 -20 -20 -20 -20 -20 -20 -20 -20 -20 -20 -19 -20 -12 -20 -20 -20 -20 -20 -20 -20 -20 -20 -20 -20 -20 -20 -20 -20
-20 -20 -20 -20 -20 -20 -20 -20 -20 -20 -20 -20 -20 -20 -20 -20 -20 -20 -20 -20 -20 -20 -20 -20 -20 -20 -20 -1 -1 -20 -20 -20 -20 -20 -20 -20 -20 -20 -20 -20 -20 -20 -20 -20
-20 -20 -20 -20 -20 -20 -20 -20 -20 -20 -20 -20 -20 -20 -20 -20 -20 -20 -20 -20 -20 -20 -20 -20 -20 -11 14 -2 -20 -20 -20 -20 -20 -20 -20 -20 -20 -20 -20 -20 -20 -20 -20 -20
-20 -20 -20 -20 -20 -20 -20 -20 -20 -20 -20 -20 -20 -20 -20 -20 -20 -20 -20 -20 -20 -20 -20 -20 11 3 -20 -20 -20 -20 -20 -20 -20 -20 -20 -20 -20 -20 -20 -20 -20 -20 -14 -20
-20 -20 -20 -20 -20 -20 -20 -20 -20 -20 -20 -20 -20 -20 -20 -20 -20 -20 -20 -20 -20 -20 -20 -20 -20 -20 -20 -20 -20 -20 -20 -20 -20 -20 -20 -20 -20 -20 -20 -20 -20 -20 -20 -20
-20 -20 -20 -20 -20 -20 -20 -20 -20 -20 -20 -20 -20 -20 -20 -20 -20 -20 -20 -20 -20 -20 -20 -20 -20 -20 -20 -20 -20 -20 -20 -20 -20 -20 -20 -20 -20 -20 -20 -20 -20 -20 -20 14
-20 -20 -20 -20 -20 -20 -20 -20 -20 -20 -20 -20 -20 -20 -20 -20 -20 -20 -20 -20 -20 -20 -20 -20 -20 -20 -20 -20 -20 -20 -20 -20 -20 -20 -20 -20 -20 -20 -20 -20 -20 -20 -20 -20
-20 -20 -20 -20 -20 -20 -20 -20 -20 -20 -20 -20 -20 -20 -20 -20 -20 -20 -20 -20 -20 -20 -20 -20 -20 -20 -20 -20 -20 -20 -20 -20 -20 -20 -20 -20 -20 -20 -20 -20 -20 -20 -20 -20
-20 -20 -20 -20 -20 -20 -20 -20 -20 -20 -20 -20 -20 -20 -20 -20 -20 -20 -20 -20 -20 -20 -20 -20 -20 -20 -20 -20 -20 -20 -20 -20 -20 -20 -20 -20 -20 -20 -20 -20 -20 -20 -20 -20
-20 -20 -20 -20 -20 -20 -20 -20 -20 -20 -20 -20 -20 -20 -20 -20 -20 -20 -20 -20 -20 -20 -20 -20 -20 -20 -20 -20 -20 -20 -20 -20 -20 -20 -20 -20 -20 -20 -20 -20 -20 -20 -20 -20
-20 -20 -20 -20 -20 -20 -20 -20 -20 -20 -20 -20 -20 -20 -20 -20 -20 -20 -20 -20 -20 -20 -20 -20 -20 -20 -20 -20 -20 -20 -20 -20 -20 -20 -20 -20 -20 -20 -20 -20 -20 -20 -20 -20
-20 -20 -20 -20 -20 -20 -20 -20 -20 -20 -20 -20 -20 -20 -20 -20 -20 -20 -20 -20 -18 -20 -20 -20 -20 -20 -20 -20 -20 -20 -20 -20 -20 -20 -20 -20 -20 -20 -20 -20 -20 -20 -20 -20
-20 -20 -20 -20 -20 -20 -20 -20 -20 -20 -20 -20 -20 -20 -20 -20 -20 -20 -20 -18 -20 -20 -20 -20 -20 -20 -20 -20 -20 -20 -20 -20 -20 -20 -20 -20 -20 -20 -20 -20 -20 -20 -20 -20
-20 -20 -20 -20 -20 -20 -20 -20 -20 -20 -20 -20 -20 -20 -20 -20 10 -14 -13 -19 -20 -20 -20 -20 -20 -20 -20 -20 -20 -20 -20 -20 -20 -20 -20 -20 1 -20 -20 -20 -20 -20 -20 -20

GFSCGP_prec_radar_006.txt.gz
Reflectivity
-20 -20 -20 -20 -20 -20 -20 -20 -20 -20 -20 -20 -20 -20 -20 -20 -20 -20 -20 -20 -20 -20 21 -20 -20 20 23 -20 -20 24 27 30 -11 -20 -20 -20 -20 2 3 -5 -20 -20 -20 -20
-20 -20 -20 -20 -20 -20 -20 -20 -20 -20 -20 -20 -20 -20 -20 -20 -20 -20 -20 -20 -20 -20 -20 -20 -20 -20 -20 -14 1 17 -11 -20 -20 -20 -20 -20 -20 -20 -20 -20 -20 -20 -20 -20
-20 -20 -20 -20 -20 -20 -20 -20 -20 -20 -20 -20 -20 -20 -20 -20 -20 -20 -20 -20 -20 -20 -20 -20 -20 -20 -20 -20 -20 -20 -20 -20 -20 -20 -20 -20 -20 -20 -20 -20 -20 -20 -20 -20
-20 -20 -20 -20 -20 -20 -20 -20 -20 -20 -20 -20 -20 -20 -20 -20 -20 -20 -20 -20 -20 -20 -20 -20 -20 -20 -20 -20 -20 -20 -20 -20 -20 -20 -20 -20 -20 -20 -20 -20 -20 -20 -20 -20
-20 -20 -20 -20 -20 -20 -20 -20 -20 -20 -20 -20 -20 -20 -20 -20 -20 -20 -20 -20 -20 -20 -20 -20 -20 -20 -20 -20 -20 -20 -20 -20 -20 -20 -20 -20 -20 -20 -20 -20 -20 -20 -20 -20
-20 -20 -20 -20 -20 -20 -20 -20 -20 -20 -20 -20 -20 -20 -20 -20 -20 -20 -20 -20 -20 -20 -20 -20 -20 -13 12 -20 -20 -20 -20 -20 -20 -20 -20 -20 -20 -20 -20 -20 -20 -20 -20 -20
-20 -20 -20 -20 -20 -20 -20 -20 -20 -20 -20 -20 -20 -20 -20 -20 -20 -20 -20 -20 -20 -20 -20 -20 -7 -20 -20 -20 -20 -20 -20 -20 -20 -20 -20 -20 -20 -20 -20 -20 -20 -20 -20 -20
-20 -20 -20 -20 -20 -20 -20 -20 -20 -20 -20 -20 -20 -20 -20 -20 -20 -20 -20 -20 -20 -20 -20 -20 -20 -20 -20 -20 -20 -20 -20 -20 -20 -20 -20 -20 -20 -20 -20 -20 -20 -20 -20 -20
-20 -20 -20 -20 -20 -20 -20 -20 -20 -20 -20 -20 -20 -20 -20 -20 -20 -20 -20 -20 -20 -20 -20 -20 -20 -20 -20 -20 -20 -20 -20 -20 -20 -20 -20 -20 -20 -20 -20 -20 -20 -20 -20 -20
-20 -20 -20 -20 -20 -20 -20 -20 -20 -20 -20 -20 -20 -20 -20 -20 -20 -20 -20 -20 -20 -20 -20 -20 -20 -20 -20 -20 -20 -20 -20 -20 -20 -20 -20 -20 -20 -20 -20 -20 -20 -20 -20 -20
-20 -20 -20 -20 -20 -20 -20 -20 -20 -20 -20 -20 -20 -20 -20 -20 -20 -20 -20 -20 -20 -20 -20 -20 -20 -20 -20 -20 -20 2 7 -20 -20 -20 -20 -20 -20 -20 -20 -20 -20 -20 -20 -20
-20 -20 -20 -20 -20 -20 -20 -20 -20 -20 -20 -20 -20 -20 -20 -20 -20 -20 -20 -20 -20 -20 -20 -20 -20 -20 -14 18 -5 -19 -20 8 -2 -20 -20 -20 -20 -20 -20 -20 -20 -20 -20 -20
-20 -20 -20 -20 -20 -20 -20 -20 -20 -20 -20 -20 -20 -20 -20 -20 -20 -20 -20 -20 -20 -20 -20 -20 -20 -17 -13 -19 -20 -4 12 -18 -20 -20 -20 -20 -20 -20 -20 -20 -20 -20 -20 -20
-20 -20 -20 -20 -20 -20 -20 -20 -20 -20 -20 -20 -20 -20 -20 -20 -20 -20 -20 -20 -20 -20 -20 -20 -20 -20 -20 -20 0 9 -20 -20 -20 -20 -20 -20 -20 -20 -20 -20 -20 -20 -20 -20
-20 -20 -20 -20 -20 -20 -20 -20 -20 -20 -20 -20 -20 -20 -20 -20 -20 -20 -20 -20 -20 -20 -20 -20 -20 -20 -19 18 4 -20 -20 -20 -20 -20 -20 -20 -20 -20 -20 -20 -20 -20 -20 -20
-20 -20 -20 -20 -20 -20 -20 -20 -20 -20 -20 -20 -20 -20 -20 -20 -20 -20 -20 -20 -20 -20 -20 -20 -20 -16 12 -20 -20 -20 -20 -20 -20 -20 -20 -20 -20 -20 -20 -20 -20 -20 -20 -20
-20 -20 -20 -20 -20 -20 -20 -20 -20 -20 -20 -20 -20 -20 -20 -20 -20 -20 -20 -20 -20 -20 -20 -20 -20 -20 -20 -20 -20 -20 -20 -20 -20 -20 -20 -20 -20 -20 -20 -20 -20 -20 -20 -20
-20 -20 -20 -20 -20 -20 -20 -20 -20 -20 -20 -20 -20 -20 -20 -20 -20 -20 -20 -20 -20 -20 -20 -20 -20 -20 -20 -20 -20 -20 -20 -20 -20 -20 -20 -20 -20 -20 -20 -20 -20 -20 -20 -20
-20 -20 -20 -20 -20 -20 -20 -20 -20 -20 -20 -20 -20 -20 -20 -20 -20 -20 -20 -20 -20 -20 -20 -20 -20 -20 -20 -20 -20 -20 -20 -20 -20 -20 -20 -20 -20 -20 -20 -20 -20 -20 -20 -20
-20 -20 -20 -20 -20 -20 -20 -20 -20 -20 -20 -20 -20 -20 -20 -20 -20 -20 -20 -20 -20 -20 -20 -20 -20 -20 -20 -20 -20 -20 -20 -20 -20 -20 -20 -20 -20 -20 -20 -20 -20 -20 -20 -20
-20 -20 -20 -20 -20 -20 -20 -20 -20 -20 -20 -20 -20 -20 -20 -20 -20 -20 -20 -20 -20 -20 -20 -20 -20 -20 -20 -20 -20 -20 -20 -20 -20 -20 -20 -20 -20 -20 -20 -20 -20 -20 -20 -20
-20 -20 -20 -20 -20 -20 -20 -20 -20 -20 -20 -20 -20 -20 -20 -20 -20 -20 -20 -20 -20 -20 -20 -20 -20 -20 -20 -20 -20 -20 -20 -20 -20 -20 -20 -20 -20 -20 -20 -20 -20 -20 -20 -20
-20 -20 -20 -20 -20 -20 -20 -20 -20 -20 -20 -20 -20 -20 -20 -20 -20 -20 -20 -20 -18 -20 -20 1 -20 -20 -20 -20 -20 -20 -20 -20 -20 -20 -20 -20 -20 -20 -20 -20 -20 -20 -20 -20
-20 -20 -20 -20 -20 -20 -20 -20 -20 -20 -20 -20 -20 -20 -20 -20 -20 -15 -16 -19 -8 8 12 -13 -20 -20 -20 -20 -20 -20 -20 -20 -20 -20 -20 -20 -20 -20 -20 -20 -20 -20 -20 -20
-20 -20 -20 -20 -20 -20 -20 -20 -20 -20 -20 -20 -20 -20 -20 -20 -6 1 -1 -19 -8 19 -10 -20 -20 -20 -20 -20 -20 -20 -20 -20 -20 -20 -20 -20 -20 -20 -20 -20 -20 -20 -20 -20
-20 -20 -20 -20 -20 -20 -20 -20 -20 -20 -20 -20 -20 -20 -20 -11 -20 19 16 -1 23 -18 -20 -20 -20 -20 -20 -20 -20 -20 -20 -20 -20 -20 -20 -13 -19 -20 -15 -20 -20 -20 -20 -20

GFSCGP_prec_radar_009.txt.gz
Reflectivity
1 -20 -20 -20 -20 -20 -20 -20 -20 -20 -20 -20 -20 -20 -20 -20 -20 -20 -20 -20 -20 -20 -20 -20 -20 -20 -20 -20 -20 -20 -20 -20 -20 -20 -20 -20 -20 -20 -20 -20 -20 -20 -20 -20
-20 -20 -20 -20 -20 -20 -20 -20 -20 -20 -20 -20 -20 -20 -20 -20 -20 -20 -20 -20 -20 -20 -20 -20 -20 -20 -20 -20 -20 -20 -20 -20 -20 -20 -20 -20 -20 -20 -20 -20 -20 -20 -20 -20
-20 -20 -20 -20 -20 -20 -20 -20 -20 -20 -20 -20 -20 -20 -20 -20 -20 -20 -20 -20 -20 -20 -20 -20 -20 -20 -20 -20 -20 -20 -20 -20 -20 -20 -20 -20 -20 -20 -20 -20 -20 -20 -20 -20
-20 -20 -20 -20 -20 -20 -20 -20 -20 -20 -20 -20 -20 -20 -20 -20 -20 -20 -20 -20 -20 -20 -20 -20 -20 -20 -20 -20 -20 -20 -20 -20 -20 -20 -20 -20 -20 -20 -20 -20 -20 -20 -20 -20
-20 -20 -20 -20 -20 -20 -20 -20 -20 -20 -20 -20 -20 -20 -20 -20 -20 -20 -20 -20 -20 -20 -20 -20 -20 -20 -20 -20 -20 -20 -20 -20 -20 -20 -20 -20 -20 -20 -20 -20 -20 -20 -20 -20
-20 -20 -20 -20 -20 -20 -20 -20 -20 -20 -20 -20 -20 -20 -20 -20 -20 -20 -20 -20 -20 -20 -20 -20 -20 -20 -20 -20 -20 -20 -20 -20 -20 -20 -20 -20 -20 -20 -20 -20 -20 -20 -20 -20
-20 -20 -20 -20 -20 -20 -20 -20 -20 -20 -20 -20 -20 -20 -20 -20 -20 -20 -20 -20 -20 -20 -20 -20 -20 -20 -20 -20 -20 -20 -20 -20 -20 -20 -20 -20 -20 -20 -20 -20 -20 -20 -20 -20
-20 -20 -20 -20 -20 -20 -20 -20 -20 -20 -20 -20 -20 -20 -20 -20 -20 -20 -20 -20 -20 -20 -20 -20 -20 -20 -20 -20 -20 -20 -20 -20 -20 -20 -20 -20 -20 -20 -20 -20 -20 -20 -20 -20
-20 -20 -20 -20 -20 -20 -20 -20 -20 -20 -20 -20 -20 -20 -20 -20 -20 -20 -20 -20 -20 -20 -20 -20 -20 -20 -20 -20 -20 -20 -20 -20 -20 -20 -20 -20 -20 -20 -20 -20 -20 -20 -20 -20
-20 -20 -20 -20 -20 -20 -20 -20 -20 -20 -20 -20 -20 -20 -20 -20 -20 -20 -20 -20 -20 -20 -20 -20 -20 -20 -20 -20 -20 -20 -20 -20 -20 -20 -20 -20 -20 -20 -20 -20 -20 -20 -20 -20
-20 -20 -20 -20 -20 -20 -20 -20 -20 -20 -20 -20 -20 -20 -20 -20 -20 -20 -20 -20 -20 -20 -20 -20 -20 -20 -20 -20 -20 -20 -13 21 -20 -20 -7 -20 -20 -20 -20 -20 -20 -20 -20 -20
-20 -20 -20 -20 -20 -20 -20 -20 -20 -20 -20 -20 -20 -20 -20 -20 -20 -20 -20 -20 -20 -20 -20 -20 -20 -20 -20 -20 -20 -11 10 -20 2 -2 -20 -20 -20 -20 -20 -20 -20 -20 -20 -20
-20 -20 -20 -20 -20 -20 -20 -20 -20 -20 -20 -20 -20 -20 -20 -20 -20 -20 -20 -20 -20 -20 -20 -20 -20 -20 -20 -20 -17 -15 -19 12 -8 -20 -20 -20 -20 -20 -20 -20 -20 -20 -20 -20
-20 -20 -20 -20 -20 -20 -20 -20 -20 -20 -20 -20 -20 -20 -20 -20 -20 -20 -20 -20 -20 -20 -20 -20 -20 -20 -18 -20 -17 17 4 -14 -20 -20 -20 -20 -20 -20 -20 -20 -20 -20 -20 -20
-20 -20 -20 -20 -20 -20 -20 -20 -20 -20 -20 -20 -20 -20 -20 -20 -20 -20 -20 -20 -20 -20 -20 -20 -20 -20 -20 6 13 -20 -20 -20 -20 -20 -20 -20 -20 -20 -20 -20 -20 -20 -20 -20
-20 -20 -20 -20 -20 -20 -20 -20 -20 -20 -20 -20 -20 -20 -20 -20 -20 -20 -20 -20 -20 -20 -20 -20 -20 -20 11 -20 -20 -20 -20 -20 -20 -20 -20 -20 -20 -20 -20 -20 -20 -20 -20 -20
-20 -20 -20 -20 -20 -20 -20 -20 -20 -20 -20 -20 -20 -20 -20 -20 -20 -20 -20 -20 -20 -20 -20 -20 -20 -20 -20 -20 -20 -20 -20 -20 -20 -20 -20 -20 -20 -20 -20 -20 -20 -20 -20 -20
-20 -20 -20 -20 -20 -20 -20 -20 -20 -20 -20 -20 -20 -20 -20 -20 -20 -20 -20 -20 -20 -20 -20 -20 -20 -20 -20 -20 -20 -20 -20 -20 -20 -20 -20 -20 -20 -20 -20 -20 -20 -20 -20 -20
-20 -20 -20 -20 -20 -20 -20 -20 -20 -20 -20 -20 -20 -20 -20 -20 -20 -20 -20 -20 -20 -20 -20 -20 -20 -20 -20 -20 -20 -20 -20 -20 -20 -20 -20 -20 -20 -20 -20 -20 -20 -20 -20 -20
-20 -20 -20 -20 -20 -20 -20 -20 -20 -20 -20 -20 -20 -20 -20 -20 -20 -20 -20 -20 -20 -20 -20 -20 -19 -20 -19 -20 -20 -20 -20 -20 -20 -20 -20 -20 -20 -20 -20 -20 -20 -20 -20 -20
-20 -20 -20 -20 -20 -20 -20 -20 -20 -20 -20 -20 -20 -20 -20 -20 -20 -20 -20 -20 -20 -20 -20 -20 1 11 -7 -20 -20 -20 -20 -20 -20 -20 -20 -20 -20 -20 -20 -20 -20 -20 -20 -20
-20 -20 -20 -20 -20 -20 -20 -20 -20 -20 -20 -20 -20 -20 -20 -20 -20 -20 -20 -20 -20 -20 -20 -20 -20 -20 -20 -20 -20 -20 -20 -20 -20 -20 -20 -20 -20 -20 -20 -20 -20 -20 -20 -20
-20 -20 -20 -20 -20 -20 -20 -20 -20 -20 -20 -20 -20 -20 -20 -20 -20 -20 -20 -20 -20 -20 -17 10 -20 -20 -20 -20 -20 -20 -20 -20 -20 -20 -20 -20 -20 -20 -20 -20 -20 -20 -20 -20
-20 -20 -20 -20 -20 -20 -20 -20 -20 -20 -20 -20 -20 -20 -20 -20 -20 -20 -20 -20 -20 -20 -11 4 -6 -18 -2 -20 -20 -20 -20 -20 -20 -20 -20 -20 -20 -20 -20 -20 -20 -20 -20 -20
-20 -20 -20 -20 -20 -20 -20 -20 -20 -20 -20 -20 -20 -20 -20 -20 -20 -20 -20 -20 -18 -20 34 18 -8 -1 -13 -20 -20 -20 -20 -20 -20 -20 -20 -20 -20 -20 -20 -20 -20 -20 -20 -20
-20 -20 -20 -20 -20 -20 -20 -20 -20 -20 -20 -20 -20 -20 -20 -20 -20 -20 -20 -18 -9 25 10 9 9 -2 -17 -10 -20 -20 -20 -20 -20 -20 -20 -20 -20 -20 -20 -16 -20 -20 -20 -20

GFSCGP_prec_radar_012.txt.gz
Reflectivity
-20 -20 -17 -20 -20 -20 -20 -20 -20 -20 -20 -20 -20 -20 -20 -20 -20 -20 -20 -20 -20 -20 -20 -20 -20 -20 -20 -20 -20 1 2 -20 -20 -20 -20 -20 -20 -20 -20 -20 -20 -20 -20 -20
-3 1 -20 -20 -20 -20 -20 -20 -20 -20 -20 -20 -20 -20 -20 -20 -20 -20 -20 -20 -20 -20 -20 -20 -20 -20 -20 -18 -12 -14 -20 -20 -20 -20 -20 -20 -20 -20 -20 -20 -20 -20 -20 -20
15 -19 -8 -17 -20 -20 -20 -20 -20 -20 -20 -20 -20 -20 -20 -20 -20 -20 -20 -20 -20 -20 -20 -20 -20 -20 -20 -20 -20 -20 -20 -20 -20 -20 -20 -20 -20 -20 -20 -20 -20 -20 -20 -20
-20 -20 -20 -20 -20 -20 -20 -20 -20 -20 -20 -20 -20 -20 -20 -20 -20 -20 -20 -20 -20 -20 -20 -20 -20 -20 -20 -20 -20 -20 -20 -20 -20 -20 -20 -20 -20 -20 -20 -20 -20 -20 -20 -20
-20 -20 -20 -20 -20 -20 -20 -20 -20 -20 -20 -20 -20 -20 -20 -20 -20 -20 -20 -20 -20 -20 -20 -20 -20 -20 -20 -20 -20 -20 -20 -20 -20 -20 -20 -20 -20 -20 -20 -20 -20 -20 -20 -20
-20 -20 -20 -20 -20 -20 -20 -20 -20 -20 -20 -20 -20 -20 -20 -20 -20 -20 -20 -20 -20 -20 -20 -20 -20 -20 -20 -20 -20 -20 -20 -20 -20 -20 -20 -20 -20 -20 -20 -20 -20 -20 -20 -20
-20 -20 -20 -20 -20 -20 -20 -20 -20 -20 -20 -20 -20 -20 -20 -20 -20 -20 -20 -20 -20 -20 -20 -20 -20 -20 -20 -20 -20 -20 -20 -20 -20 -20 -20 -20 -20 -20 -20 -20 -20 -20 -20 -20
-20 -20 -20 -20 -20 -20 -20 -20 -20 -20 -20 -20 -20 -20 -20 -20 -20 -20 -20 -20 -20 -20 -20 -20 -20 -20 -20 -20 -20 -20 -20 -20 -20 -20 -20 -20 -20 -20 -20 -20 -20 -20 -20 -20
-20 -20 -20 -20 -20 -20 -20 -20 -20 -20 -20 -20 -20 -20 -20 -20 -20 -20 -20 -20 -20 -20 -20 -20 -20 -20 -20 -20 -20 -20 -20 -20 -20 -20 -19 26 -19 -20 -20 -20 -20 -20 -20 -20
-20 -20 -20 -20 -20 -20 -20 -20 -20 -20 -20 -20 -20 -20 -20 -20 -20 -20 -20 -20 -20 -20 -20 -20 -20 -20 -20 -20 -20 -20 -20 -20 -20 -20 23 -19 -20 -20 -20 -20 -20 -20 -20 -20
-20 -20 -20 -20 -20 -20 -20 -20 -20 -20 -20 -20 -20 -20 -20 -20 -20 -20 -20 -20 -20 -20 -20 -20 -20 -20 -20 -20 -20 -20 -20 -20 -20 16 -7 -20 -20 -20 -20 -20 -20 -20 -20 -20
-20 -20 -20 -20 -20 -20 -20 -20 -20 -20 -20 -20 -20 -20 -20 -20 -20 -20 -20 -20 -20 -20 -20 -20 -20 -20 -20 -20 -20 -20 -20 -20 -2 9 -2 -20 -20 -20 -20 -20 -20 -20 -20 -20
-20 -20 -20 -20 -20 -20 -20 -20 -20 -20 -20 -20 -9 -20 -20 -20 -20 -20 -20 -20 -20 -20 -20 -20 -20 -20 -20 -20 -20 -20 -20 -3 20 -20 -20 -20 -20 -20 -20 -20 -20 -20 -20 -20
-20 -20 -20 -20 -20 -20 -20 -20 -20 -20 -20 -20 -20 -20 -20 -20 -20 -20 -20 -20 -20 -20 -20 -20 -20 -20 -20 -20 -20 -20 -2 4 -20 -20 -20 -20 -20 -20 -20 -20 -20 -20 -20 -20
-20 -20 -20 -20 -20 -20 -20 -20 -20 -20 -20 -20 -20 -20 -20 -20 -20 -20 -20 -20 -20 -20 -20 -20 -20 -20 -20 -20 -20 -7 -3 -20 -20 -20 -20 -20 -20 -20 -20 -20 -20 -20 -20 -20
-20 -20 -20 -20 -20 -20 -20 -20 -20 -20 -20 -20 -20 -20 -20 -20 -20 -20 -20 -20 -20 -20 -20 -20 -20 -20 -20 -20 -20 -5 -20 -20 -20 -20 -20 -20 -20 -20 -20 -20 -20 -20 -20 -20
-20 -20 -20 -20 -20 -20 -20 -20 -20 -20 -20 -20 -20 -20 -20 -20 -20 -20 -20 -20 -20 -20 -20 -20 -20 -20 -20 -20 -20 -20 -20 -20 -20 -20 -20 -20 -20 -20 -20 -20 -20 -20 -20 -20
-20 -20 -20 -20 -20 -12 -20 -20 -20 -20 -20 -20 -20 -20 -20 -20 -20 -20 -20 -20 -20 -20 -20 -20 -20 -20 -20 -20 -19 -20 -20 -20 -20 -20 -20 -20 -20 -20 -20 -20 -20 -20 -20 -13
-20 -20 -20 -13 -20 -20 -20 -20 -20 -20 -20 -20 -20 -20 -20 -20 -20 -20 -20 -20 -20 -20 -20 -20 -20 -20 -20 -20 -20 -20 -7 -20 -20 -20 -20 -20 -20 -20 -20 -20 -20 -20 -18 -20
-20 -20 -20 -20 -17 -20 -20 -20 -20 -20 -20 -20 -20 -20 -20 -20 -20 -20 -20 -20 -20 -20 -20 -20 -20 -20 -20 -20 -19 10 -20 -20 -18 -20 -20 -20 -20 -20 -20 -20 -20 -20 -20 -20
-20 -20 13 -20 2 -20 -20 -20 -20 -20 -20 -20 -20 -20 -20 -20 -20 -20 -20 -20 -20 -20 -20 -20 -20 -20 -20 -9 13 -18 -20 -20 -20 -20 -20 -20 -20 -20 -20 -20 -20 -20 -20 -20
-20 -20 -20 -20 12 -20 -20 -20 -5 -20 -20 -20 -20 -20 -20 -20 -20 -20 -20 -20 -20 -20 -20 -20 -20 -19 -11 0 18 3 -10 -20 -20 -20 -20 -20 -20 -20 -20 -20 -20 -20 -20 -20
-20 -20 -20 -20 -20 -20 -20 -20 -20 -20 -20 -20 -20 -20 -20 -20 -20 -20 -20 -20 -20 -20 -20 -20 -20 4 -4 17 12 7 5 -20 -20 -20 -20 -20 -20 -20 -20 -20 -20 -20 -20 -20
-20 -20 -20 -20 -20 -20 -20 -20 -20 -20 -20 -20 -20 -20 -20 -20 -20 -20 -20 -20 -20 -20 -20 -5 -17 33 21 6 3 8 7 4 -1 -6 -20 -20 -20 -20 -20 -20 -20 -20 -20 -20
-20 -20 -20 -20 -20 -20 -20 -20 -20 -20 -20 -20 -20 -20 -20 -20 -20 -20 -20 -20 -20 -20 -20 9 31 19 12 9 13 9 5 5 -9 -20 -20 -20 -20 -20 -20 -20 -10 -20 -20 -20
-20 -20 -20 -20 -20 -20 -20 -20 -20 -20 -20 -20 -20 -20 -20 -20 -20 -20 -20 -20 -20 -20 11 31 18 15 17 14 6 8 6 7 -15 -20 -9 -5 -20 -20 -20 -20 -11 -20 -20 -20

GFSCGP_prec_radar_015.txt.gz
Reflectivity
-9 -20 -19 6 10 10 5 -12 -18 -20 -20 -20 -20 -20 -20 -20 -20 -20 -20 -20 -20 -20 -20 -20 -20 -20 -20 -20 -20 36 -20 -15 -4 -4 -20 -20 -20 -20 -20 -20 -20 -20 -20 -20
-13 15 -6 7 -12 -20 -20 -9 -13 -20 -20 -20 -20 -20 -20 -20 -20 -20 -20 -20 -20 -20 -20 -20 -20 -20 -20 -20 -20 -15 4 -4 -20 -20 -20 -20 -20 -20 -20 -20 -20 -20 -20 -20
22 4 -17 -20 -20 -20 -20 -19 6 -7 -20 -19 -4 -10 -20 -20 -20 -20 -20 -20 -20 -20 -20 -20 -20 -20 -20 -16 -9 -8 -20 -20 -20 -20 -20 -20 -20 -20 -20 -20 -20 -20 -20 -20
6 2 -9 -20 -10 -9 -5 -18 9 -20 -20 -20 -20 -20 3 -20 -20 -20 -20 -20 -20 -20 -20 -20 -20 -20 -20 -20 -20 -20 -20 -20 -20 -20 -20 -20 -20 -20 -20 -20 -20 -20 -20 -20
19 -20 -20 0 24 -20 6 6 -20 -20 -20 28 -5 -20 16 21 -20 -20 -20 -20 -20 -20 -20 -20 -20 -20 -20 -20 -20 -20 -20 -20 -20 -20 -20 -20 -20 -20 -20 -20 -20 -20 -20 -20
22 -20 -20 6 -20 -20 -20 -20 -20 -20 -16 -20 -11 16 5 8 -20 -20 -20 -20 -20 -20 -20 -20 -20 -20 -20 -20 -20 -20 -20 -20 -20 -20 -20 -20 -20 -20 -20 -18 -20 -20 -20 -20
-16 -20 -20 -20 -20 -20 -20 -20 -6 -8 -10 -20 4 -20 -20 18 8 -20 -20 -20 -20 -20 -20 -20 -20 -20 -20 -20 -20 -20 -20 -20 -20 -20 -20 -20 -20 -20 -19 25 -20 -20 -20 -20
-20 -20 -20 -20 -20 -20 -20 -20 -18 9 -19 -15 -4 -20 -20 -20 -20 -20 -20 -20 -20 -20 -20 -20 -20 -20 -20 -20 -20 -20 -20 -20 -20 -20 -20 -20 -20 -20 14 -3 -20 -20 -20 -20
-3 24 -14 -20 -20 -20 -20 -20 -20 -20 -20 -20 -20 -20 -20 -20 -20 -20 -20 -20 -20 -20 -20 -20 -20 -20 -20 -20 -20 -20 -20 -20 -20 -20 -20 -20 -20 -6 -4 -20 -20 -20 -20 -20
-20 -20 -20 -20 -20 -20 -20 -20 -20 -20 -20 -20 -20 -20 -20 -20 -20 -20 -20 -20 -20 -20 -20 -20 -20 -20 -20 -20 -20 -20 -20 -20 -20 -20 -20 -20 -20 -18 0 -20 -20 -20 -20 -20
-20 -20 -20 -20 -20 -20 -20 -20 -20 -20 -20 -20 -20 -20 -20 -20 -20 -20 -20 -20 -20 -20 -20 -20 -20 -20 -20 -20 -20 -20 -20 -20 -20 -20 -20 -20 -20 -20 -20 -20 -20 -20 -20 -20
-20 -20 -20 -20 -20 -20 -20 -20 -20 -20 -20 -20 -20 -20 -20 -20 -20 -20 -20 -20 -20 -20 -20 -20 -20 -20 -20 -20 -20 -20 -20 -20 -20 -20 -20 -20 -20 -20 -20 -20 -20 -20 -20 -20
-20 -20 -20 -20 -20 -20 -20 -20 -20 -20 -20 -20 -20 -20 -20 -20 -20 -20 -20 -20 -20 -20 -20 -20 -20 -20 -20 -20 -20 -20 -20 -20 -20 -20 -20 -20 -20 -20 -20 -20 -20 -20 -20 -20
-20 -20 -20 -20 -20 -20 -20 -20 -20 -20 -20 -20 -20 -20 -20 -20 -20 -20 -20 -20 -20 -20 -20 -20 -20 -20 -20 -20 -20 -20 -20 -20 -20 -20 -20 -20 -20 -20 -20 -20 -20 -20 -20 -20
-20 -20 -20 -20 -20 -20 -20 -20 -20 -20 -20 -20 -20 -20 -20 -20 -20 -20 -20 -20 -20 -20 -20 -20 -20 -20 -20 -20 -20 -20 -20 -20 -20 -19 -20 -20 -20 -20 -20 -20 -20 -20 -20 -20
-20 -20 -20 -20 -20 -20 -20 -20 -20 -20 -20 -20 -20 -20 -20 -20 -20 -20 -20 -20 -20 -20 -20 -20 -20 -20 -20 -20 -20 -20 -20 -20 -20 -20 -20 -20 -20 -20 -20 -20 -20 -20 -20 -20
-20 -20 -20 -20 -20 -20 -20 -20 -20 -20 -20 -20 -20 -20 -20 -20 -20 -20 -20 -20 -20 -20 -20 -20 -20 -20 -20 -20 -20 -20 -20 -20 -20 -20 -18 -20 -9 4 -20 -20 -20 -20 -20 -20
-20 -20 -20 -20 -20 -12 -20 -20 -20 -20 -20 -20 -20 -20 -20 -20 -20 -20 -20 -20 -20 -20 -20 -20 -20 -20 -20 -20 -20 -20 -20 -20 -1 -15 6 14 -9 -20 -20 -20 -20 -20 -20 -20
-20 -20 -20 -16 -20 -20 -20 -20 -20 -20 -20 -20 -20 -20 -20 -20 -20 -20 -20 -20 -20 -20 -20 -20 -20 -20 -20 -20 -20 -20 -20 -19 -20 7 -3 -20 -18 -20 -20 -20 -20 -20 -20 -20
-20 -20 -20 -20 -20 -20 -20 -20 -20 -20 -20 -20 -20 -20 -20 -20 -20 -20 -20 -20 -20 -20 -20 -20 -20 -20 -20 -20 -20 -20 -20 -11 2 -7 10 9 -1 -4 -20 -18 -20 -20 -20 -20
-20 -20 -7 -20 -9 -20 -20 -20 -20 -20 -20 -20 -20 -20 -20 -20 -20 -20 -20 -20 -20 -20 -20 -20 -20 -20 -20 -20 -20 -16 5 23 24 14 1 5 5 -3 -7 -20 -19 -20 -20 -20
-20 -20 -20 -20 -9 -20 -20 -20 -20 -20 -20 -20 -20 -20 -20 -20 -20 -20 -20 -20 -20 -20 -20 -20 -20 -20 -20 -20 -2 10 10 18 22 12 2 -2 -3 -9 -1 5 -4 -18 -4 -20
-20 -20 -20 -20 -20 -20 -20 -20 -20 -20 -20 -20 -20 -20 -20 -20 -20 -20 -20 -20 -20 -20 -20 -20 -20 -20 -20 -20 10 30 18 11 7 9 9 1 -0 10 8 -17 -5 -5 -20 -20
-20 -20 -20 -20 -20 -20 -20 -20 -20 -20 -20 -20 -20 -20 -20 -20 -20 -20 -20 -20 -20 -20 -20 -20 -20 -20 -19 15 22 12 16 19 16 11 10 10 9 4 -2 2 -6 -20 -20 -20
-20 -20 -20 -20 -20 -20 -20 -20 -20 -20 -20 -20 -20 -20 -20 -20 -20 -20 -20 -20 -20 -20 -20 -20 -20 2 24 15 16 15 15 12 10 10 8 4 0 1 -9 -20 -20 -20 -20 -5
-20 -20 -20 -20 -20 -20 -20 -20 -20 -20 -20 -20 -20 -20 -20 -20 -20 -20 -20 -20 -20 -20 -20 -12 6 11 18 19 16 11 8 8 8 6 -1 -16 -10 -12 -20 -20 -20 -20 -20 -20

GFSCGP_prec_radar_018.txt.gz
Reflectivity
-20 -20 -20 8 16 -11 -18 -18 -4 -17 -20 -20 -20 -19 -20 -20 -20 -20 -18 20 -20 -20 -20 -20 -20 -20 -20 -20 -20 -20 -20 36 -20 -20 -20 -20 -20 -20 -20 -20 -20 -20 -20 -20
-12 -19 8 -20 -15 -20 1 -4 5 -20 -20 -20 -20 -20 -20 -20 -20 -20 -20 -20 5 -20 -20 -20 -20 -20 -20 -20 -20 -4 -20 -1 -20 -1 -20 -20 -20 -20 -20 -20 -20 -20 -20 -20
3 -20 2 -20 -5 -20 -12 12 -8 -20 -20 -20 -20 -20 -20 -20 -20 -20 -20 -20 -20 -20 -20 -20 -20 -20 -20 -20 -20 -19 -20 -20 -20 -20 -20 -20 -20 -20 -20 -20 -20 -20 -20 -20
-9 15 -19 -20 -20 -11 -13 -16 -15 10 -18 -20 -11 -20 -7 15 -20 -20 -20 -20 -20 -20 -20 -20 -20 -20 -13 -15 -20 -20 -20 -17 -20 -20 -20 -20 -20 -20 -20 -20 -20 -20 -20 -20
-16 -20 -14 -20 -2 -0 -5 -6 -20 -4 -20 -20 10 -6 12 10 18 -19 -20 -20 -20 -20 -20 -20 -20 -20 -20 -20 -20 -20 -20 -20 -20 -20 -20 -20 -20 -20 -20 -20 -20 -20 -19 -16
6 -20 20 29 5 -4 -20 -20 -20 -20 -20 -20 14 5 10 -9 -4 11 -11 -20 -20 -20 -20 -20 -20 -20 -20 -20 -20 -20 -20 -20 -20 -20 -20 -20 -20 -20 -20 -20 -20 -20 -11 -18
-8 -20 -20 -20 -20 -20 -20 -20 -20 -16 -20 -20 -4 -18 -13 9 -4 -7 41 1 -20 -20 -20 -20 -20 -20 -20 -20 -20 -20 -20 -20 -20 -20 -20 -20 -20 -20 -20 -20 -20 -20 -18 -20
7 12 -20 -20 -20 -7 -2 -20 -14 0 13 5 -1 8 12 -20 -20 -20 -10 -20 -20 -20 -20 -20 -20 -20 -20 -20 -20 -20 -20 -20 -20 -20 -20 -20 -20 -20 -20 -20 -20 -20 -20 -20
-6 -14 32 -20 -20 -20 -20 -20 -20 12 0 -20 -20 -20 -20 -20 -20 -20 -20 -20 -20 -20 -20 -20 -20 -20 -20 -20 -20 -20 -20 -20 -20 -20 -20 -20 -20 -20 -20 -20 -20 -20 -20 -20
23 27 -4 -2 -20 -20 -20 -20 -20 -20 -20 -20 -20 -20 -1 -20 -20 -20 -20 -20 -20 -20 -20 -20 -20 -20 -20 -20 -20 -20 -20 -20 -20 -20 -20 -20 -20 -20 -20 -20 -20 -20 -20 -20
-6 19 -0 -20 -20 -20 -20 -20 -20 -20 -20 -20 -20 -20 -20 -20 -20 -20 -20 -20 -20 -20 -20 -20 -20 -20 -20 -20 -20 -20 -20 -20 -20 -20 -20 -20 -20 -18 -20 -20 -20 -20 -20 -20
-20 -20 -20 -20 -20 -20 -20 -20 -20 -20 -20 -20 -20 -20 -20 -20 -20 -20 -20 -20 -20 -20 -20 -20 -20 -20 -20 -20 -20 -20 -20 -20 -20 -20 -20 -20 -20 -18 -18 -20 -20 -20 -20 -20
-20 -20 -20 -20 -20 -20 -20 -20 -20 -20 -20 -20 -20 -20 -20 -20 -20 -20 -20 -20 -20 -20 -20 -20 -20 -20 -20 -20 -20 -20 -20 -20 -20 -20 -20 -20 -20 -18 -12 -20 -20 -20 -20 -20
-20 -20 -20 -20 -20 -20 -4 -20 -20 -20 -20 -20 -20 -20 -20 -20 -20 -20 -20 -20 -20 -20 -20 -20 -20 -20 -20 -20 -20 -20 -20 -20 -20 -20 -20 -19 -16 -20 -20 -20 -20 -20 -20 -20
-20 -20 -20 -20 -20 -2 -16 -20 -20 -20 -20 -20 -20 -20 -20 -20 -20 -20 -20 -20 -20 -20 -20 -20 -20 -20 -20 -20 -20 -20 -20 -20 -20 -20 -20 -13 -18 -20 -20 -20 -20 8 -20 -20
-20 -20 -20 -20 -20 -20 -20 -20 -20 -20 -20 -20 -20 -20 -20 -20 -20 -20 -20 -20 -20 -20 -20 -20 -20 -20 -20 -20 -20 -20 -20 -20 -20 -20 -20 -9 -6 -1 -11 4 -2 -6 -20 -20
-20 -20 -20 -20 -20 -20 -20 -20 -20 -20 -20 -20 -20 -20 -20 -20 -20 -20 -20 -20 -20 -20 -20 -20 -20 -20 -20 -20 -20 -20 -20 -20 -20 -20 -19 -1 -1 3 0 -8 7 10 -0 -18
-20 -20 -20 -20 -20 -20 -20 -20 -20 -20 -20 -20 -20 -20 -20 -20 -20 -20 -20 -20 -20 -20 -20 -20 -20 -20 -20 -20 -20 -20 -20 -20 -20 -18 -4 -4 4 -9 -11 8 3 -10 -10 -7
-20 -20 -20 -20 -20 -20 -20 -20 -20 -20 -20 -20 -20 -20 -20 -20 -20 -20 -20 -20 -20 -20 -20 -20 -20 -20 -20 -20 -20 -20 -20 -20 -6 -1 -17 7 13 13 14 22 14 14 5 -1
-20 -20 -20 -20 -20 -20 -20 -20 -20 -20 -20 -20 -20 -20 -20 -20 -20 -20 -20 -20 -20 -20 -20 -20 -20 -20 -20 -20 -20 -20 -20 -20 3 -1 10 10 17 19 15 15 23 16 4 -3
-20 -20 -20 -20 -20 -20 -20 -20 -20 -20 -20 -20 -20 -20 -20 -20 -20 -20 -20 -20 -20 -20 -20 -20 -20 -20 -20 -20 -20 -20 -19 -20 10 -20 25 16 22 11 18 16 12 -7 -5 -2
-20 -20 -20 -20 -20 -20 -20 -20 -20 -20 -20 -20 -20 -20 -20 -20 -20 -20 -20 -20 -20 -20 -20 -20 -20 -20 -20 -20 -20 -20 -20 6 26 18 10 11 22 21 13 9 -5 -3 2 -5
-20 -20 -20 -20 -20 -20 -20 -20 -20 -20 -20 -20 -20 -20 -20 -20 -20 -20 -20 -20 -20 -20 -20 -20 -20 -20 -20 -20 -20 6 26 12 12 24 21 18 11 2 -15 -6 4 -3 -20 -20
-20 -20 -20 -20 -20 -20 -20 -20 -20 -20 -20 -20 -20 -20 -20 -20 -20 -20 -20 -20 -20 -20 -20 -20 -20 -20 -20 -18 -19 -19 7 22 16 15 11 -4 1 -5 2 -5 -19 -20 -20 -20
-20 -20 -20 -20 -20 -20 -20 -20 -20 -20 -20 -20 -20 -20 -20 -20 -20 -20 -20 -20 -20 -20 -20 -20 -20 -20 -20 -9 4 -7 -14 -8 -13 -10 -10 -19 -18 -20 -20 -20 -20 -20 -20 -20
-20 -20 -20 -20 -20 -20 -20 -20 -20 -20 -20 -20 -20 -20 -20 -20 -20 -20 -20 -20 -20 -20 -20 -20 -17 -19 -20 -20 -20 -20 -20 -20 -20 -20 -20 -20 -20 -20 -20 -20 -20 -20 -20 -20

GFSCGP_prec_radar_021.txt.gz
Reflectivity
-20 -20 -20 -19 6 -18 6 -12 -6 -20 -20 -20 -20 -20 -20 -20 -20 -11 7 3 -10 -20 -20 -20 -20 -20 -20 -20 -18 -20 -20 -20 -20 -20 -20 -20 -20 -20 -20 -20 -20 -20 -20 -20
-20 -20 -20 -20 -1 -20 -20 -19 -20 -20 -20 -20 -20 -20 -20 -20 -20 -20 -20 -6 10 -12 -20 -20 -20 -20 -20 -20 -20 -20 -20 -20 -20 -20 -20 -20 -20 -20 -20 -20 -20 -20 -20 -20
-20 -20 10 3 -20 -20 -12 -20 7 -20 -20 -20 -20 -20 -20 -20 -20 -20 -20 -20 -20 -20 -20 -20 -20 -20 -20 -20 -20 -20 -20 -20 -20 -20 -20 -20 -20 -20 -20 -20 -20 -20 -20 -20
-20 -20 -20 -20 -20 -20 -20 -12 -3 -13 -20 -20 -20 -20 -20 -20 -20 -4 -20 -20 -20 -20 -20 -20 -20 -20 -20 -20 32 -20 -20 -20 -20 -20 -20 -20 -20 -20 -20 -20 -20 -20 -20 -20
-20 -14 -20 -20 -20 -20 -20 -20 -20 -20 -20 8 -19 -20 -3 -20 -20 -20 -20 -18 -20 -20 -20 -20 -20 -20 -20 -20 -20 -20 -20 -20 -20 -20 -20 -20 -20 -20 -20 -20 -20 -20 -20 -20
-20 -19 -20 -20 -20 -20 -20 -20 -20 -20 -20 -20 -20 -20 -20 -16 -20 -9 -20 -19 -18 -20 -20 -20 -20 -20 -20 -20 -15 -20 -20 -20 -20 -20 -20 -20 -20 -20 -20 -20 -20 -20 -20 -20
-20 -20 19 11 1 -20 -20 -20 -20 -20 -20 -20 -20 -20 -16 -20 -20 -20 -20 -3 -5 -20 -20 -20 -20 -17 -20 -20 -20 -18 -20 -20 -20 -20 -20 -20 -20 -20 -20 -20 -20 -20 -20 -20
-8 -20 -20 -18 -20 -20 5 -20 -20 -20 -20 -19 -19 7 -6 -20 -20 -20 -20 -7 -20 -20 -20 -20 -20 -20 -20 -20 -20 -20 -20 -20 -20 -20 -20 -20 -20 -20 -20 -20 -20 -20 -20 -20
-20 -20 -15 -20 -20 -20 -20 -20 -19 -20 -20 -10 11 5 -20 -20 -20 -20 -20 -20 -20 -20 -20 -20 -20 -20 -20 -20 -20 -20 -20 -20 -20 -20 -20 -20 -20 -20 -20 -20 -20 -20 -20 -20
-20 -20 -18 22 -10 -20 -20 -14 -20 -20 -20 -20 -20 -20 -20 -20 -20 -20 -20 -20 -20 -20 -20 -20 -20 -20 -20 -20 -20 -20 -20 -20 -20 -20 -20 -20 -20 -20 -20 -20 -20 7 -20 5
-20 -20 18 1 -17 -20 -20 -20 -20 -20 -20 -20 -20 -20 -20 -20 -20 -20 -20 -20 -20 -20 -20 -20 -20 -20 -20 -20 -20 -20 -20 -20 -20 -20 -20 -20 -20 -20 -20 -18 -20 -20 -10 -20
20 -20 -20 -20 -20 -20 -20 -14 2 -20 -20 -20 -20 -20 -20 -20 -20 -20 -20 -20 -20 -20 -20 -20 -20 -20 -20 -20 -20 -20 -20 -20 -20 -20 -20 -20 -20 -20 -19 -20 -19 -20 -19 -20
-20 -20 -20 -20 -10 -20 -15 -20 -20 -20 -20 -20 -20 -20 -20 -20 -20 -20 -20 -20 -20 -20 -20 -20 -20 -20 -20 -20 -20 -20 -20 -20 -20 -20 -20 -20 -20 -18 -18 -20 -20 -20 -20 -20
-20 -20 -20 -20 -20 -20 -20 -20 -20 -20 -20 -20 -20 -20 -20 -20 -20 -20 -20 -20 -20 -20 -20 -20 -20 -20 -20 -20 -20 -20 -20 -20 -20 -20 -20 -20 -20 -20 -20 -20 -20 -20 -20 -20
-20 -20 -20 -20 -20 -20 -20 -20 -9 -20 -20 -20 -20 -20 -20 -20 -20 -20 -20 -20 -20 -20 -20 -20 -20 -20 -20 -20 -20 -14 -20 -20 -20 -20 -20 -20 -20 -20 -20 -20 -18 -20 -20 -16
-20 -20 -20 -20 -20 -20 -20 -20 -20 -20 -20 -20 -20 -20 -20 -20 -20 -20 -20 -20 -20 -20 -20 -20 -20 -20 -20 16 -8 3 -20 -20 -20 -20 -20 -20 -20 -20 -20 -20 -20 -13 -20 5
-20 -20 -20 -20 -20 -20 -20 -20 -20 -20 -20 -20 -20 -20 -20 -20 -20 -20 -20 -20 -20 -20 -20 -20 -20 -20 -20 -20 -20 -20 -20 -20 -20 -20 -20 -20 -20 -20 -17 -11 19 8 3 8
-20 -20 -20 -20 -20 -20 -20 -20 -20 -20 -20 -20 -20 -20 -20 -20 -20 -20 -20 -20 -20 -20 -20 -20 -20 -20 -20 -20 -20 -20 -20 -20 -20 -20 -20 -20 -19 -19 14 5 10 7 16 15
-1 -20 -20 -20 -20 -20 -20 -20 -20 -20 -20 -20 -20 -20 -20 -20 -20 -20 -20 -20 -20 -20 -20 -20 -20 -20 -20 -20 -20 -20 -20 -20 -20 -20 -20 6 -0 -13 17 17 15 17 10 -1
-20 -20 -20 -20 -20 -20 -20 -20 -20 -20 -20 -20 -20 -20 -20 -20 -20 -20 -20 -20 -20 -20 -20 -20 -20 -20 -20 -20 -20 -20 -20 -20 -20 -19 -19 8 -18 32 22 21 13 17 -4 -7
-20 -20 -20 -20 -20 -20 -20 -20 -20 -20 -20 -20 -20 -20 -20 -20 -20 -20 -20 -20 -20 -20 -20 -20 -20 -20 -20 -20 -20 -20 -15 -11 11 -7 -10 17 23 27 19 -5 -14 -8 -17 -14
-20 -20 -20 -20 -20 -20 -20 -20 -20 -20 -20 -20 -20 -20 -20 -20 -20 -20 -20 -20 -20 -20 -20 -20 -20 -20 -0 -11 -14 4 10 17 2 26 26 30 15 -1 -9 -15 -19 -20 -20 -20
-20 -20 -20 -20 -20 -20 -20 -20 -20 -20 -20 -20 -20 -20 -20 -20 -20 -20 -20 -20 -20 -20 -20 -20 -20 -20 -20 -12 -4 4 3 14 32 27 -2 -20 -20 -20 -20 -20 -20 -20 -20 -20
-20 -20 -20 -20 -20 -20 -20 -20 -20 -20 -20 -20 -20 -20 -20 -20 -20 -20 -20 -20 -20 -20 -20 -20 -20 -20 -20 -20 -19 -20 -20 -20 -20 -20 -20 -20 -20 -20 -20 -20 -20 -20 -20 -20
-20 -20 -20 -20 -20 -20 -20 -20 -20 -20 -20 -20 -20 -20 -20 -20 -20 -20 -20 -20 -20 -20 -20 -20 -20 -20 -20 -20 -20 -20 -20 -20 -20 -20 -20 -20 -20 -20 -20 -20 -20 -20 -20 -20
-20 -20 -20 -20 -20 -20 -20 -20 -20 -20 -20 -20 -20 -20 -20 -20 -20 -20 -20 -20 -20 -20 -20 -20 -20 -20 -20 -20 -20 -20 -20 -20 -20 -20 -20 -20 -20 -20 -20 -20 -20 -20 -20 -20

GFSCGP_prec_radar_027.txt.gz
Reflectivity
-20 -20 -20 -20 -20 -20 -20 -20 -20 -20 -20 -20 -20 -20 -20 -20 -20 -20 -20 -20 -20 -20 -20 -20 -20 -20 -20 -20 -20 -20 -20 -20 -20 -20 -20 -20 -20 -20 -20 -20 -20 -20 -20 -20
-20 -20 -20 -20 -20 -20 -17 -20 -20 -20 -20 -20 -20 -20 -20 -20 -20 -20 -20 -20 -20 -20 -20 -20 -20 -20 -20 -20 -20 -20 -20 -20 -20 -20 -20 -20 -20 -20 -20 -20 -20 -20 -20 -20
-20 -20 -20 -20 -20 -20 -20 -20 -20 -20 -20 -20 -20 -20 -20 -20 -20 -20 -20 -20 -20 -20 -20 -20 -20 -20 -20 -20 -20 -20 -20 -20 -15 -20 -20 -20 -20 -20 -20 -20 -20 -20 -20 -20
-20 -20 -20 -18 -18 -20 -20 -20 -20 -20 -20 -20 -20 -20 -20 -20 -20 -20 -20 -20 -20 -20 -20 -20 -20 -20 -20 -20 -20 -20 -20 -20 -20 -20 -20 -20 14 -20 -20 -20 -20 -20 -20 -20
-20 -20 -20 -20 -16 -20 -20 -20 -20 -20 -20 -20 -20 -20 -20 -20 -20 -20 -20 -20 -20 -20 -20 -20 -20 -20 -20 -20 -20 -20 -20 -17 -18 -14 -19 3 23 -20 -20 -20 -20 -20 -20 -20
-20 -20 -20 -20 -20 -20 -20 -20 -20 -20 -20 -20 -20 -20 -20 -20 -20 -20 -20 -20 -20 -20 -20 -20 -20 -20 -20 -20 -20 37 -13 -10 -12 -19 27 10 -13 -20 -20 -20 -20 -20 -20 -20
-20 -20 -20 -20 -20 -20 -20 -20 -20 -20 -20 -20 -20 -20 -20 -20 -20 -20 -20 -20 -20 -20 -20 -6 -20 -20 -20 -20 -20 -16 -15 33 -13 -20 -10 16 -20 -20 -20 -20 -20 -20 -20 -20
-20 -20 -20 -20 -20 -20 -20 -20 -20 -20 -20 -20 -20 -20 -20 -20 -20 -20 -20 -20 -20 -20 -20 -20 -20 -20 -20 -20 -20 -10 -19 -7 -20 -20 12 -20 -20 -20 -20 -20 -20 -20 -20 -20
-20 -20 -20 -20 -20 -20 -20 -20 -20 -20 -20 -20 -20 -20 -20 -20 -20 -20 -20 -20 -20 -20 -20 -20 -20 -20 -20 -20 -20 -20 -20 -0 -20 -20 -20 -20 -20 -20 -20 -4 3 -20 -20 -15
-20 -20 -20 -20 -20 -20 -20 -20 -20 -20 -20 -20 -20 -20 -20 -20 -20 -20 -20 -20 -20 -20 -20 -20 -20 -20 -20 -20 -20 -20 -20 -20 -20 -20 -20 -20 -20 -19 -11 -20 -20 -16 16 17
-20 -20 -20 -20 -20 -20 -20 -20 -20 -20 -20 -20 -20 -20 -20 -20 -20 -20 -20 -20 -20 -20 -20 -20 -20 -20 -20 -20 -20 -20 -20 -20 -20 -20 -20 -20 -10 -11 -20 -20 -20 -11 -7 -9
-20 -20 -20 -20 -20 -20 -20 -20 -20 -20 -20 -20 -20 -20 -20 -20 -20 -20 -20 -20 -20 -20 -20 -20 -20 -20 -20 -20 -20 -20 -20 -20 -20 -20 17 -6 -20 -20 -20 -20 -20 -20 -20 -20
-20 -20 -20 -20 -20 -20 -20 -20 -20 -20 -20 -20 -20 -20 -20 -20 -20 -20 -20 -20 -20 -20 -20 -20 -20 -20 -20 -20 -20 -20 -20 -20 -20 -20 -10 -20 -16 -20 -16 -20 -20 -20 -20 -20
-20 -20 -20 -20 -20 -9 -20 -20 -20 -20 -20 -20 -20 -20 -20 -20 -20 -20 -20 -20 -20 -20 -20 -20 -20 -20 -20 -20 -20 -20 19 10 17 -1 -20 -20 -20 -20 -20 -10 -20 -20 -20 -20
-20 -20 -20 -20 -20 -20 -20 -17 -20 -20 -20 -20 -20 -20 -20 -20 -20 -20 -20 -20 -20 -20 -20 -20 -20 -20 -14 14 -13 15 -20 15 9 -20 -20 -20 -17 -20 -20 -20 -20 -20 -20 -20
-20 -20 -20 -20 -20 -20 -20 -20 -20 -20 -20 -20 -20 -20 -20 -20 -20 -20 -20 -20 -20 -20 -20 -20 -20 -20 -20 -20 -20 -20 -20 16 -20 -20 -20 -19 -14 -20 -20 -14 -20 -20 -20 -19
-20 -20 -20 -20 -20 -20 -20 -20 -20 -20 -20 -20 -20 -20 -20 -20 -20 -20 -20 -20 -20 -20 -20 -20 -20 -20 -20 -20 -20 -20 -20 -20 -20 -1 2 -0 -20 -20 -20 -20 -20 -19 -19 -18
-20 -20 -20 -20 -20 -20 -20 -20 -20 -20 -20 -20 -20 -20 -20 -20 -20 -20 -20 -20 -20 -20 -20 -20 -20 -20 -20 -20 -20 -20 -20 -20 -20 -19 -20 -20 -20 -20 -20 -19 -12 8 18 23
-20 -20 -20 -20 -20 -20 -20 -20 -20 -20 -20 -20 -20 -20 -20 -20 -20 -20 -20 -20 -20 -20 -20 -20 -20 -20 -20 -20 -20 -20 -20 -20 -20 -19 -7 -20 -20 -20 -3 -18 10 19 23 26
-20 11 -20 -20 -20 -20 -20 -20 -20 -20 -20 -20 -20 -20 -20 -20 -20 -20 -20 -20 -20 -20 -20 -20 -20 -20 -20 -20 -20 -20 -20 -20 -20 -20 -20 -20 -19 -14 4 11 24 30 18 2
-20 -20 -20 -20 -20 -20 -20 -20 -20 -20 -20 -20 -20 -20 -20 -20 -20 -20 -20 -20 -20 -20 -20 -20 -20 -20 -20 -20 -20 -20 -20 -20 -20 -20 -15 8 28 29 30 28 25 24 -3 -20
-20 -20 -20 -20 -20 -20 -20 -20 -20 -20 -20 -20 -20 -20 -20 -20 -20 -20 -20 -20 -20 -20 -20 -20 -20 -20 -20 -20 -20 -20 -20 -20 -19 -16 7 15 22 24 20 -5 -16 -20 -20 -20
-20 -20 -20 -20 -20 -20 -20 -20 -20 -20 -20 -20 -20 -20 -20 -20 -20 -20 -20 -20 -20 -20 -20 -20 -20 -20 -20 -20 -20 -20 -20 -20 6 -1 -7 -18 -20 -20 -20 -20 -20 -20 -20 -20
-20 -20 -20 -20 -20 -20 -20 -20 -20 -20 -20 -20 -20 -20 -20 -20 -20 -20 -20 -20 -20 -20 -20 -20 -20 -20 -20 -20 -20 -20 -20 -20 -20 -20 -20 -20 -20 -20 -20 -20 -20 -20 -20 -20
-20 -20 -20 -20 -20 -20 -20 -20 -20 -20 -20 -20 -20 -20 -20 -20 -20 -20 -20 -20 -20 -20 -20 -20 -20 -20 -20 -20 -20 -20 -20 -20 -20 -20 -20 -20 -20 -20 -20 -20 -20 -20 -20 -20
-20 -20 -20 -20 -20 -20 -20 -20 -20 -20 -20 -20 -20 -20 -20 -20 -20 -20 -20 -20 -20 -20 -20 -20 -20 -20 -20 -20 -20 -20 -20 -20 -20 -20 -20 -20 -20 -20 -20 -20 -20 -20 -20 -20

GFSCGP_prec_radar_030.txt.gz
Reflectivity
-20 -20 -20 -20 -20 -20 -20 -20 -20 -20 -20 -20 -20 -20 -20 -20 -20 -20 -8 -20 -20 -20 -20 -20 -20 -20 -20 -20 -20 -20 -20 -20 -20 -20 -20 -20 24 -20 -20 -20 -20 -20 -20 -20
-20 -20 -20 -20 -20 -20 -20 -20 -20 -20 -20 -20 -20 -20 -20 -20 -20 -20 -20 -20 -20 -20 -20 -20 -20 -20 -20 -20 -20 -20 -20 -20 -20 -20 -20 -20 -20 -20 -20 -20 -20 -20 -20 -20
-20 -20 -20 -20 -20 -20 -20 -20 -20 -20 -20 -20 -20 -20 -20 -20 -20 -20 -20 -20 -20 -20 -20 -20 -20 -20 -20 -20 -20 -20 -20 -20 -20 6 -20 -20 21 -20 -20 -20 -20 -20 -20 -20
-20 -20 -20 -20 -20 -20 -20 -20 -20 -20 -20 -20 -20 -20 -20 -20 -20 -20 -20 -20 -20 -20 -20 -20 -20 -20 -20 -20 -20 -20 -20 -20 -20 -20 -20 -20 -20 -20 16 -20 -20 -20 -20 -20
-20 -20 -20 -20 -20 -20 -20 -20 -20 -20 -20 -20 -20 -20 -20 -20 -20 -20 -20 -20 -20 -20 -20 -20 -20 -20 -20 -20 -20 -20 -19 -18 -20 -20 -20 -20 -20 -8 7 -20 12 -20 -20 -20
-20 -20 -20 -20 -20 -20 -20 -20 -20 -20 -20 -20 -20 -20 -20 -20 -20 -20 -20 -20 -20 -20 -20 -20 -20 -20 -20 -20 -20 -20 36 25 -19 -20 -13 -20 -20 13 20 14 8 -20 -20 -20
-20 -20 -20 -20 -20 -20 -20 -20 -20 -20 -20 -20 -20 -20 -20 -20 -20 -20 -20 -20 -20 -20 -20 -20 -20 -20 -20 -20 -20 -20 28 25 21 -20 6 26 -20 -20 14 -20 -1 -20 -20 -20
-20 -20 -20 -20 -20 -20 -20 -20 -20 -20 -20 -20 -20 -20 -20 -20 -20 -20 -20 -20 -20 -20 -20 -20 -20 -20 -20 -20 -20 -20 22 31 -15 -11 21 2 -20 15 -17 -20 -20 -20 -20 -20
-20 -20 -20 -20 -20 -20 -20 -20 -20 -20 -20 -20 -20 -20 -20 -20 -20 -20 -20 -20 -20 -20 -20 -20 -20 -20 -20 -20 -20 -20 -19 7 -20 -20 -20 -20 4 -20 -20 13 9 -15 -20 -20
-20 -20 -20 -20 -20 -20 -20 -20 -20 -20 -20 -20 -20 -20 -20 -20 -20 -20 -20 -20 -20 -20 -20 -20 -20 -20 -20 -20 -20 -19 -20 -20 10 -20 -20 -20 -18 -20 -20 -5 -19 -4 1 -20
-20 -20 -20 -20 -20 -20 -20 -20 -20 -20 -20 -20 -20 -20 -20 -20 -20 -20 -20 -20 -20 -20 -20 -20 -20 -20 -20 -20 -20 -20 -20 -20 -20 -20 -20 -20 -20 12 14 -20 18 -20 -20 -10
-20 -20 -20 -20 -20 -20 -20 -20 -20 -20 -20 -20 -20 -20 -20 -20 -20 -20 -20 -20 -20 -20 -20 -20 -20 -20 -20 -20 -20 -20 -20 -20 -20 -20 -20 5 24 21 13 -18 -20 -20 -16 -14
-20 -20 -20 -20 -20 -20 -20 -20 -20 -20 -20 -20 -20 -20 -20 -20 -20 -20 -20 -20 -20 -20 -20 -20 -20 -20 -20 -20 -20 -9 -16 -16 -20 -20 -7 -2 12 -20 -20 -20 -20 -18 -16 -16
-20 -20 -20 -20 -20 -20 -20 -20 -20 -20 -20 -20 -20 -20 -20 -20 -20 -20 -20 -20 -20 -20 -20 -20 -20 -20 -20 -20 -20 -17 22 -7 22 -1 7 9 0 -20 -20 -20 -20 -16 -14 -3
-20 -20 -20 -20 -20 -20 -20 -20 -20 -20 -20 -20 -20 -20 -20 -20 -20 -20 -20 -20 -20 -20 -20 -20 -20 -20 -20 -20 16 -20 -20 -20 15 14 5 -9 -20 -20 -20 -4 -20 -20 -14 -19
-20 -20 -20 -20 -20 -20 -20 -20 -20 -20 -20 -20 -20 -20 -20 -20 -20 -20 -20 -20 -20 -20 -20 -20 -20 -20 -20 -20 -20 -20 -20 -20 -20 -20 -20 -20 -20 6 -10 -20 -20 -18 -18 -12
-20 -20 -20 -20 20 -20 -20 -20 -20 -20 -20 -20 -20 -20 -20 -20 -20 -20 -20 -20 -20 -20 -20 -20 -20 -20 -20 -20 -20 -20 -20 -20 -20 -20 -20 -20 -19 -5 6 -13 -10 -3 -19 4
-20 -20 -20 -20 -20 -20 -20 -20 -20 -20 -20 -20 -20 -20 -20 -20 -20 -20 -20 -20 -20 -20 -20 -20 -20 -20 -20 -20 -20 -20 -20 -20 -20 -20 -20 -20 -20 -7 13 -2 4 13 5 4
-20 -20 -20 -20 -20 -20 -20 -20 -20 -20 -20 -20 -20 -20 -20 -20 -20 -20 -20 -20 -20 -20 -20 -20 -20 -20 -20 -20 -20 -20 -20 -20 -20 -20 -20 -20 3 7 7 14 13 21 27 39
-20 -20 -20 -20 -20 -20 -20 -20 -20 -20 -20 -20 -20 -20 -20 -20 -20 -20 -20 -20 -20 -20 -20 -20 -20 -20 -20 -20 -20 -20 -20 -20 -20 -20 -20 -20 -20 -20 -7 13 14 13 19 4
-20 -20 -20 -20 -20 -20 -20 -20 -20 -20 -20 -20 -20 -20 -20 -20 -20 -20 -20 -20 -20 -20 -20 -20 -20 -20 -20 -20 -20 -20 -20 -20 -20 -20 -20 -20 -20 -8 1 -9 5 20 12 -14
-20 -20 -20 -20 -20 -20 -20 -20 -20 -20 -20 -20 -20 -20 -20 -20 -20 -20 -20 -20 -20 -20 -20 -20 -20 -20 -20 -20 -20 -20 -20 -20 -20 -20 -12 5 8 8 -11 -16 -20 -20 -20 -20
-20 -20 -20 -20 -20 -20 -20 -20 -20 -20 -20 -20 -20 -20 -20 -20 -20 -20 -20 -20 -20 -20 -20 -20 -20 -20 -20 -20 -20 -20 -20 -20 -19 -20 -20 -20 -20 -20 -20 -20 -20 -20 -20 -20
-20 -20 -20 -20 -20 -20 -20 -20 -20 -20 -20 -20 -20 -20 -20 -20 -20 -20 -20 -20 -20 -20 -20 -20 -20 -20 -20 -20 -20 -20 -20 -20 -20 -20 -20 -20 -20 -20 -20 -20 -20 -20 -20 -20
-20 -20 -20 -20 -20 -20 -20 -20 -20 -20 -20 -20 -20 -20 -20 -20 -20 -20 -20 -20 -20 -20 -20 -20 -20 -20 -20 -20 -20 -20 -20 -20 -20 -20 -20 -20 -20 -20 -20 -20 -20 -20 -20 -20
-20 -20 -20 -20 -20 -20 -20 -20 -20 -20 -20 -20 -20 -20 -20 -20 -20 -20 -20 -20 -20 -20 -20 -20 -20 -20 -20 -20 -20 -20 -20 -20 -20 -20 -20 -20 -20 -20 -20 -20 -20 -20 -20 -20

GFSCGP_prec_radar_033.txt.gz
Reflectivity
-20 -20 -20 -20 -20 -20 -20 -20 -20 -20 -20 -20 -20 -20 -20 -20 -20 -20 -20 -20 -20 -20 -20 -20 -20 -20 -20 -20 -20 -20 -20 -20 -20 -20 -20 -20 -20 -20 -20 -20 -20 -20 -20 -20
-20 -20 -20 -20 -20 -20 -20 -20 -20 -20 -20 -20 -20 -20 -12 -20 -20 -20 -20 -20 -20 -20 -20 -20 -20 -20 -20 -20 -20 -20 -20 -20 -20 -20 -20 -20 -20 -20 -1 -20 -20 -20 -20 -20
-20 -20 -20 -20 -20 -20 -20 -20 -20 -20 -20 -20 -20 -20 -20 -20 -20 -20 -20 -20 -20 -20 -20 -20 -20 -20 -20 -20 -20 -20 -20 -20 -20 -20 -20 -20 -20 -20 -5 -20 -20 -20 -20 -20
-20 -20 -20 -20 -20 -20 -20 -20 -20 -20 -20 -20 -20 -20 -20 -20 -20 -20 -20 -20 -20 -20 -20 -20 -20 -20 -20 -20 -20 -20 -20 -20 -20 -20 -20 -20 -20 -12 -20 19 19 18 -20 -20
-20 -20 -20 -20 -20 -20 -20 -20 -20 -20 -20 -20 -20 -20 -20 -20 -20 -20 -20 -20 -20 -20 -20 -20 -20 -20 -20 -20 -20 -20 -20 -20 -20 -1 32 33 -20 -20 -0 13 20 7 -20 -18
-20 -20 -20 -20 -20 -20 -20 -20 -20 -20 -20 -20 -20 -20 -20 -20 -20 -20 -20 -20 -20 -20 -20 -20 -20 -20 -20 -20 -20 -20 -20 -17 -18 3 15 -20 14 8 -20 -20 -19 -18 -9 -12
-20 -20 -20 -20 -20 -20 -20 -20 -20 -20 -20 -20 -20 -20 -20 -20 -20 -20 -20 -20 -20 -20 -20 -20 -20 -20 -20 -20 -20 -10 -14 13 12 16 -0 30 -20 -20 -20 -20 -0 23 12 -20
-20 -20 -20 -20 -20 -20 -20 -20 -20 -20 -20 -20 -20 -20 -20 -20 -20 -20 -20 -20 -20 -20 -20 -20 -20 -20 -20 -20 -20 -20 -19 8 29 33 17 25 -20 -20 -20 -20 17 1 -4 -20
-20 -20 -20 -20 -20 -20 -20 -20 -20 -20 -20 -20 -20 -20 -20 -20 -20 -20 -20 -20 -20 -20 -20 -20 -20 -20 -20 -20 -20 -20 -20 29 32 27 10 -20 -20 -20 -20 -20 24 -11 7 -20
-20 -20 -20 -20 -20 -20 -20 -20 -20 -20 -20 -20 -20 -20 -20 -20 -20 -20 -20 -20 -20 -20 -20 -20 -20 -20 -20 -20 -20 -20 -20 -20 -20 2 -1 -20 -20 -20 -13 -2 6 19 6 -8
-20 -20 -20 -20 -20 -20 -20 -20 -20 -20 -20 -20 -20 -20 -20 -20 -20 -20 -20 -20 -20 -20 -20 -20 -20 -20 -20 -20 -20 -20 -20 -20 -20 -20 -20 -20 7 -20 23 23 21 18 3 -8
-20 -20 -20 -20 -20 -20 -20 -20 -20 -20 -20 -20 -20 -20 -20 -20 -20 -20 -20 -20 -20 -20 -20 -20 -20 -20 -20 -20 -20 -20 -20 -20 -18 19 -4 9 25 23 24 23 24 19 -19 -20
-20 -20 -20 -20 -20 -20 -20 -20 -20 -20 -20 -20 -20 -20 -20 -20 -20 -20 -20 -20 -20 -20 -20 -20 -20 -20 -20 -20 -20 -20 -20 7 -18 29 26 20 -12 23 24 20 16 14 -20 -20
-20 -20 -20 -20 -20 -20 -20 -20 -20 -20 -20 -20 -20 -20 -20 -20 -20 -20 -20 -20 -20 -20 -20 -20 -20 -20 -20 -20 -20 -20 -20 -20 1 -13 -20 -1 18 17 22 17 0 -20 -17 -20
-20 -20 -20 -20 -20 -20 -20 -20 -20 -20 -20 -20 -20 -20 -20 -20 -20 -20 -20 -20 -20 -20 -20 -20 -20 -20 -20 -20 -20 -20 27 -20 -20 -20 -20 10 -20 -20 -8 0 -18 -20 3 -10
-20 -20 -20 -20 -20 -20 -20 -20 -20 -20 -20 -20 -20 -20 -20 -20 -20 -20 -20 -20 -20 -20 -20 -20 -20 -20 -20 -20 -20 -20 -20 -20 -20 -20 -20 -20 -20 -20 -20 -20 -3 4 2 25
-20 -20 -20 -20 -20 -20 -20 -20 -20 -20 -20 -20 -20 -20 -20 -20 -20 -20 -20 -20 -20 -20 -20 -20 -20 -20 -20 -20 -20 -20 -20 -20 -20 -20 -20 -20 -20 -20 -20 -10 0 4 -1 28
-20 -20 -20 -20 -20 -20 -20 -20 -20 -20 -20 -20 -20 -20 -20 -20 -20 -20 -20 -20 -20 -20 -20 -20 -20 -20 -20 -20 -20 -20 -20 -20 -20 -20 -20 -20 -20 -20 -20 -20 -20 -6 20 10
-20 -20 -20 -20 -20 -20 -20 -20 -20 -20 -20 -20 -20 -20 -20 -20 -20 -20 -20 -20 -20 -20 -20 -20 -20 -20 -20 -20 -20 -20 -20 -20 -20 -20 -20 -20 -20 -20 -20 -16 -12 -19 -1 27
-20 -20 -20 -20 -20 -20 -20 -20 -20 -20 -20 -20 -20 -20 -20 -20 -20 -20 -20 -20 -20 -20 -20 -20 -20 -20 -20 -20 -20 -20 -20 -20 -20 -20 -20 -20 -20 -20 -20 -20 -20 -20 -13 -15
-20 -20 -20 -20 -20 -20 -20 -20 -20 -20 -20 -20 -20 -20 -20 -20 -20 -20 -20 -20 -20 -20 -20 -20 -20 -20 -20 -20 -20 -20 -20 -20 -20 -20 -20 -20 -20 -20 -20 -19 -14 -3 -1 -19
-20 -20 -20 -20 -20 -20 -20 -20 -20 -20 -20 -20 -20 -20 -20 -20 -20 -20 -20 -20 -20 -20 -20 -20 -20 -20 -20 -20 -20 -20 -20 -20 -20 -20 -20 -18 -5 -13 -20 -20 -20 -20 -20 -20
-20 -20 -20 -20 -20 -20 -20 -20 -20 -20 -20 -20 -20 -20 -20 -20 -20 -20 -20 -20 -20 -20 -20 -20 -20 -20 -20 -20 -20 -20 -20 -20 -20 -20 -20 -20 -20 -20 -20 -20 -20 -20 -20 -20
-11 -20 -20 -20 -20 -20 -20 -20 -20 -20 -20 -20 -20 -20 -20 -20 -20 -20 -20 -20 -20 -20 -20 -20 -20 -20 -20 -20 -20 -20 -20 -20 -20 -20 -20 -20 -20 -20 -20 -20 -20 -20 -20 -20
1 0 -20 -20 -20 -20 -20 -20 -20 -20 -20 -20 -20 -20 -20 -20 -20 -20 -20 -20 -20 -20 -20 -20 -20 -20 -20 -20 -20 -20 -20 -20 -20 -20 -20 -20 -20 -20 -20 -20 -20 -20 -20 -20
-17 5 -17 -20 -20 -20 -20 -20 -20 -20 -20 -20 -20 -20 -20 -20 -20 -20 -20 -20 -20 -20 -20 -20 -20 -20 -20 -20 -20 -20 -20 -20 -20 -20 -20 -20 -20 -20 -20 -20 -20 -20 -20 -20

GFSCGP_prec_radar_036.txt.gz
Reflectivity
-20 -20 -20 -20 -20 -20 -20 -20 -20 -20 -20 -20 -20 -20 -20 -20 -20 -20 -20 -20 -20 -20 -20 -20 -20 -20 -20 -20 -20 -20 -20 -1 4 -3 -20 -20 -20 -20 -20 -20 -20 -20 -20 -20
-20 -20 -20 -20 -20 -20 -20 -20 -20 -20 -20 -20 -20 -20 -20 -20 -20 -20 -20 -20 -20 -20 -20 -20 -20 -20 -20 -20 -20 -20 -20 4 3 -6 -20 -20 4 -14 -20 -20 -20 -20 -20 -20
-20 -20 -20 -20 -20 -20 -20 -20 -20 -20 -20 -20 -20 -20 -20 -20 -20 -20 -20 -20 -20 -20 -20 -20 -20 -20 -20 -20 -20 -20 -20 -1 11 4 -20 -20 -10 -20 -20 -20 -20 -20 -20 -20
-20 -20 -20 -20 -20 -20 -20 -20 -20 -20 -20 -20 -20 -12 -20 -20 -20 -20 -20 -20 -20 -20 -20 -20 -20 -20 -20 -20 -20 -20 -20 -20 -1 -6 -20 -20 -20 -20 -20 14 -10 15 14 16
-20 -20 -20 -20 -20 -20 -20 -20 -20 -20 -20 -20 -20 -20 -20 -20 -20 -20 -20 -20 -20 -20 -20 -20 -20 -20 -20 -20 -20 -20 -20 -20 -20 1 -20 -20 -19 -20 -20 13 -20 16 10 22
-20 -20 -20 -20 -20 -20 -20 -20 -20 -20 -20 -20 -20 -20 -20 -20 -20 -20 -20 -20 -20 -20 -20 -20 -20 -20 -20 -20 -20 -20 -20 -20 -3 9 3 26 -6 -15 1 -6 -19 2 -20 -10
-20 -20 -20 -20 -20 -20 -20 -20 -20 -20 -20 -20 -20 -20 -20 -20 -20 -20 -20 -20 -20 -20 -20 -20 -20 -20 -20 -20 -20 -20 -20 -12 34 1 19 30 7 -2 21 21 -18 20 -10 18
-20 -20 -20 -20 -20 -20 -20 -20 -20 -19 -20 -20 -20 -20 -20 -20 -20 -20 -20 -20 -20 -20 -20 -20 -20 -20 -20 -20 -20 -20 -20 -20 36 12 28 -2 12 -6 8 -20 -20 -14 10 -3
-20 -20 -20 -20 -20 -20 -20 -20 -20 -20 -20 -20 -20 -20 -20 -20 -20 -20 -20 -20 -20 -20 -20 -20 -20 -20 -20 -20 -20 -20 -17 -20 -20 27 32 20 4 -18 -20 -20 -20 -2 -18 7
-20 -20 -20 -20 -20 -20 -20 -20 -20 -20 -20 -20 -20 -20 -20 -20 -20 -20 -20 -20 -20 -20 -20 -20 -20 -20 -20 -20 -20 -20 -20 -20 -20 -6 10 -2 -20 -20 -20 -20 -20 -16 20 16
-20 -20 -20 -20 -20 -20 -20 -20 -20 -20 -20 -20 -20 -20 -20 -20 -20 -20 -20 -20 -20 -20 -20 -20 -20 -20 -20 -20 -20 -20 -20 -20 -20 -20 -20 -12 -5 -20 -12 1 24 21 17 10
-20 -20 -20 -20 -20 -20 -20 -20 -20 -20 -20 -20 -20 -20 -20 -20 -20 -20 -20 -20 -20 -20 -20 -20 -20 -20 -20 -20 -20 -20 -20 -20 -20 -20 -20 -20 -18 -16 -1 -20 -20 20 4 14
-20 -20 -20 -20 -20 -20 -20 -20 -20 -20 -20 -20 -8 -20 -20 -20 -20 -20 -20 -20 -20 -20 -20 -20 -20 -20 -20 -20 -20 -20 -20 -20 -20 -20 -20 -19 -20 -8 -20 13 -12 13 12 10
-20 -20 -20 -20 -20 -20 -20 -20 -20 -20 -20 -20 -20 -20 -20 -20 -20 -20 -20 -20 -20 -20 -20 -20 -20 -20 -20 -20 -20 -20 -20 -20 -20 -20 -20 -18 -17 -20 -7 -20 -19 -12 9 -12
-20 -20 -20 -20 -20 -20 -20 -20 -20 -20 -20 -20 -20 -20 -20 -20 -20 -20 -20 -20 -20 -20 -20 -20 -20 -20 -20 -20 -20 -20 -20 -20 -18 -14 24 -19 -20 -20 -10 -17 2 -20 -15 -1
-20 -20 -20 -20 -20 -20 -20 -20 -20 -20 -20 -20 -20 -20 -20 -20 -20 -20 -20 -20 -20 -20 -20 -20 -20 -20 -20 -20 -20 -20 -20 20 -20 -20 -20 -20 -20 -20 -20 -20 -20 -20 -20 -16
-20 -20 -20 -20 -20 -20 -20 -20 -20 -20 -20 -20 -20 -20 -20 -20 -20 -20 -20 -20 -20 -20 -20 -20 -20 -20 -20 -20 -20 -20 -20 -20 -20 -20 -20 -20 -20 -20 -20 -20 -20 -20 -20 -14
-20 -20 -20 -20 -20 -20 -20 -20 -20 -20 -20 -20 -20 -20 -20 -20 -20 -20 -20 -20 -20 -20 -20 -20 -20 -20 -20 -20 -20 -20 -20 -20 -20 -20 -20 -20 -20 -20 -20 -20 -20 -20 -16 3
-20 -20 -20 -20 -20 -20 -20 -20 -20 -20 -20 -20 -20 -20 -20 -20 -20 -20 -20 -20 -20 -20 -20 -20 -20 -20 -20 -20 -20 -20 -20 -20 -20 -20 -20 -20 -20 -20 -20 -20 -20 -20 -20 -11
-20 -20 -20 -20 -20 -20 -20 -20 -20 -20 -20 -20 -20 -20 -20 -20 -20 -20 -20 -20 -20 -20 -20 -20 -20 -20 -20 -20 -20 -20 -20 -20 -20 -20 -20 -20 -20 -20 -20 -19 -2 0 -1 -8
-20 -20 -20 -20 -20 -20 -20 -20 -20 -20 -20 -20 -20 -20 -20 -20 -20 -20 -20 -20 -20 -20 -20 -20 -20 -20 -20 -20 -20 -20 -20 -20 -20 -20 -20 -20 -20 -15 -10 -16 -20 -20 -20 -20
-20 -5 -20 -20 -20 -20 -20 -20 -20 -20 -20 -20 -20 -20 -20 -20 -20 -20 -20 -20 -20 -20 -20 -20 -20 -20 -20 -20 -20 -20 -20 -20 -20 -20 -20 -20 -20 -20 -20 -20 -20 -20 -20 -20
15 -20 -20 -20 -20 -20 -20 -20 -20 -20 -20 -20 -20 -20 -20 -20 -20 -20 -20 -20 -20 -20 -20 -20 -20 -20 -20 -20 -20 -20 -20 -20 -20 -20 -20 -20 -20 -20 -20 -20 -20 -20 -20 -20
-20 -4 0 -20 -20 -20 -20 -20 -20 -20 -20 -20 -20 -20 -20 -20 -20 -20 -20 -20 -20 -20 -20 -20 -20 -20 -20 -20 -20 -20 -20 -20 -20 -20 -20 -20 -20 -20 -20 -20 -20 -20 -20 -20
0 13 8 -20 -20 -20 -20 -20 -20 -20 -20 -20 -20 -20 -20 -20 -20 -20 -20 -20 -20 -20 -20 -20 -20 -20 -20 -20 -20 -20 -20 -20 -20 -20 -20 -20 -20 -20 -20 -20 -20 -20 -20 -20
-20 -20 -20 -20 5 4 -20 -20 -20 -20 -20 -20 -20 -20 -20 -20 -20 -20 -20 -20 -20 -20 -20 -20 -20 -20 -20 -20 -20 -20 -20 -20 -20 -20 -20 -20 -20 -20 -20 -20 -20 -20 -20 -20

GFSCGP_prec_radar_039.txt.gz
Reflectivity
-20 -20 -20 -20 -20 -20 -11 -20 -7 -15 9 -20 -20 -20 29 -20 -20 -20 -20 -20 -20 -20 -20 -14 -20 -12 -11 -20 -19 -5 -20 -11 25 -18 -20 -20 -8 -20 -20 -20 -20 31 -20 -20
-20 -20 -20 -20 -20 -20 -20 -20 -20 -9 -20 -20 -20 -20 5 -16 -20 -20 -20 -20 -20 -20 -20 -20 -20 -20 -20 -20 -20 -20 -20 -20 -14 -20 -20 -20 -20 -20 -20 4 -20 -20 -20 -20
-20 -20 -20 -20 -20 -20 -20 -20 -6 -16 0 -20 -20 -20 -20 -20 -20 -20 -20 -20 -20 -20 -20 -20 -20 -20 -20 -20 -20 -20 -20 -20 13 -20 -20 -20 -20 -20 -20 -20 -20 -20 -20 -20
-20 -20 -20 -20 -20 -20 -20 -20 -19 -20 -20 -18 -20 -16 3 -15 -20 -20 -20 -20 -20 -20 -20 -20 -20 -20 -20 -20 -20 -20 -20 -20 -20 -20 -9 -20 -20 9 -17 -15 -20 -20 -20 14
-20 -20 -20 -20 -20 -20 10 -3 -20 -20 -20 -20 -20 -20 -7 -20 -20 -20 -20 -20 -20 -20 -20 -20 -20 -20 -20 -20 -20 -20 -20 -20 -20 -20 -20 -13 -20 -20 -0 -19 -20 -20 -7 -12
-20 -20 -20 -20 -20 -20 -20 -20 -20 -20 -20 -20 -20 -20 5 17 -19 -20 -19 -20 -20 -20 -20 -20 -20 -20 -20 -20 -20 -20 -20 -20 -20 -20 -20 -1 -10 -20 29 10 -17 -12 2 -8
-20 -20 -20 -20 -20 -20 -20 -20 -20 -19 -2 -20 -7 -20 -20 11 -19 -20 -20 -20 -20 -20 -20 -20 -20 -20 -20 -20 -20 -20 -20 -20 -20 -20 -7 -12 17 22 22 21 29 25 24 19
-20 -20 -20 -20 -20 -20 -20 -20 -9 25 -0 -4 0 -20 -18 -18 -19 -20 -20 -20 -20 -20 -20 -20 -20 -20 -20 -20 -20 -20 -20 -20 21 13 29 2 22 13 25 10 5 23 22 -3
-10 -20 -20 -20 -20 -20 -3 -19 -3 11 -20 -19 -10 -20 -20 -20 -20 -20 -20 -20 -20 -20 -20 -20 -20 -20 -20 -20 -20 -20 -20 -20 -20 -20 2 -15 27 2 7 2 -8 -18 -2 -20
-16 -19 -20 -20 -20 -20 -20 11 -20 -20 -20 -6 -20 -7 1 -11 -20 -20 -20 -20 -20 -20 -20 -20 -20 -20 -20 -20 -20 -20 -20 -20 -20 5 -20 -5 10 3 -6 -7 -19 9 17 24
-19 -19 -20 -20 -20 -20 -20 -20 -20 3 -11 -20 -4 -20 19 -20 -20 -20 -20 -20 -20 -20 -20 -20 -20 -20 -20 -20 -20 -20 -20 -20 -17 -20 -20 10 -20 -20 -18 -8 -20 -19 -20 -20
-20 -1 -19 -20 -20 -20 0 -20 -20 -20 -16 -20 -20 -20 -6 -20 -20 -20 -20 -20 -20 -20 -20 -20 -20 -20 -20 -20 -20 -20 -20 -20 -20 -20 -19 -20 -20 -20 -20 -1 12 -20 -20 -20
-3 0 -20 -20 -20 -20 -20 -12 5 9 -20 -10 21 -20 -1 -20 -20 -20 -20 -20 -20 -20 -20 -20 -20 -20 -20 -20 -20 -20 -20 -20 -20 -17 7 -19 -11 13 13 26 1 -0 -20 -20
-1 -16 -20 -20 -20 -20 -20 -20 -20 -20 -20 -20 -20 -20 13 2 -11 -20 -20 -20 -20 -20 -20 -20 -20 -20 -20 -20 -20 -20 -20 -20 -20 -20 -16 -17 7 25 25 -3 -4 -17 -11 21
-20 -20 -20 -20 -20 -20 -20 -20 -20 -20 -20 -20 -20 -20 -20 -20 -20 -20 -11 -20 -20 -20 -20 -20 -20 -20 -20 -20 -20 -20 -20 -20 -8 26 -20 -20 12 -18 15 -7 -8 1 -13 3
-20 -20 -1 -20 -20 -20 -20 -20 -20 -20 -20 -20 -20 -20 -20 17 -20 -20 -20 -20 -20 -20 -20 -20 -20 -20 -20 -20 -20 -20 -20 -20 -18 -20 -20 5 -20 -20 -20 -20 -20 -20 -20 -20
-20 -20 -9 -20 -20 -20 -20 -20 -20 -20 -20 -20 -20 -20 -20 -20 -20 -20 -20 -20 -20 -20 -20 -20 -20 -20 -20 -20 -20 -20 -20 18 2 -20 -20 -20 -20 -20 -20 -20 -20 -20 -20 -20
-20 -20 -5 -20 -20 5 -20 -20 -20 -20 -20 -20 -20 -20 -20 -20 -20 -20 -20 -20 -20 -20 -20 -20 -20 -20 -20 -20 -20 -20 -20 -20 -20 -20 -20 -20 -20 -20 -20 -20 -20 -20 -20 -20
-20 -7 6 20 -20 -20 -20 -20 -20 -20 -20 -20 -20 -20 -20 -20 -20 -20 -20 -20 -20 -20 -20 -20 -20 -20 -20 -20 -20 -20 -20 -20 -20 -20 -20 -20 -20 -20 -20 -20 -20 -20 -20 -20
-18 7 22 -16 -20 -20 -20 -20 -20 -20 -20 -20 -20 -20 -20 -20 -20 -20 -20 -20 -20 -20 -20 -20 -20 -20 -20 -20 -20 -20 -20 -20 -20 -20 -20 -20 -20 -20 -20 -20 -20 -20 -20 -20
30 3 -6 22 4 -20 -20 -20 -20 -20 -20 -20 -20 -20 -20 -20 -20 -20 -20 -20 -20 -20 -20 -20 -20 -20 -20 -20 -20 -20 -20 -20 -20 -20 -20 -20 -20 -20 -20 -20 -14 -13 -9 -20
31 3 -18 1 21 -15 -20 -20 -20 -20 -20 -20 -20 -20 -20 -20 -20 -20 -20 -20 -20 -20 -20 -20 -20 -20 -20 -20 -20 -20 -20 -20 -20 -20 -20 -20 -20 -20 -20 -20 -20 -20 -20 -20
2 31 26 4 -20 -16 -7 -20 -20 -20 -20 -20 -20 -20 -20 -20 -20 -20 -20 -20 -20 -20 -20 -20 -20 -20 -20 -20 -20 -20 -20 -20 -20 -20 -20 -20 -20 -20 -20 -20 -20 -20 -20 -20
-19 16 20 12 -20 -20 -20 -20 -20 -20 -20 -20 -20 -20 -20 -20 -20 -20 -20 -20 -20 -20 -20 -20 -20 -20 -20 -20 -20 -20 -20 -20 -20 -20 -20 -20 -20 -20 -20 -20 -20 -20 -20 -20
-6 -18 -20 -20 -20 -20 -20 -9 -14 -20 -20 -20 -20 -20 -20 -20 -20 -20 -20 -20 -20 -20 -20 -20 -20 -20 -20 -20 -20 -20 -20 -20 -20 -20 -20 -20 -20 -20 -20 -20 -20 -20 -20 -20
-20 -20 -14 -20 -11 10 -10 26 -17 -20 -20 -20 -20 -20 -20 -20 -20 -20 -20 -20 -20 -20 -20 -20 -20 -20 -20 -20 -20 -20 -20 -20 -20 -20 -20 -20 -20 -20 -20 -20 -20 -20 -20 -20

GFSCGP_prec_radar_042.txt.gz
Reflectivity
-20 -20 -20 -20 -20 -20 -20 -7 15 -2 -20 -20 -20 9 8 -20 -20 -20 -20 1 0 2 0 -2 0 -20 -20 -20 -20 -20 -20 -20 -20 -4 1 -13 -7 -6 -1 10 -6 -20 -20 -20
-20 -20 -20 -20 -20 -20 -20 -20 -20 -2 -14 -20 -20 -20 12 -20 -20 -20 -20 -20 -20 -20 -20 -20 -20 -20 -20 -20 -20 -19 -20 -20 -20 -20 -18 -20 -20 -20 -20 -20 -20 -18 -8 -20
-20 -20 -20 -20 -20 -20 -20 -20 -16 -12 4 -20 -20 -20 10 -3 -20 -20 -20 -20 -20 -20 -20 -20 -20 -20 -20 -20 -20 -20 -20 -20 -20 -20 -20 -20 -20 -20 -20 -20 -20 11 -20 -20
-20 -20 -20 -20 -20 -20 -20 -20 -17 -16 -19 -20 -11 -20 -20 -1 -20 -20 -20 -20 -20 -20 -20 -20 -20 -20 -20 -20 -20 -20 -20 -20 -20 -20 10 -20 -20 -20 -20 -20 -20 16 -20 -20
-20 -20 -20 -20 -20 -20 -20 -20 -20 -20 -20 -20 -6 -17 3 -20 -20 -19 -20 -20 -20 -20 -20 -20 -20 -20 -20 -20 -20 -20 -20 -20 -20 -20 -20 -19 -20 -20 -20 -18 -20 -19 -20 -20
-20 -20 2 -20 -20 -20 -20 -20 -20 -20 -20 -20 -20 -20 12 -17 6 7 -12 -20 -20 -20 -20 -20 -20 -20 -20 -20 -20 -20 -20 -20 -20 -20 -20 -20 -20 -20 -20 10 17 3 28 -17
-20 -20 -20 -20 -20 -20 -20 -20 -20 -20 -20 -20 -9 -20 -2 -20 8 10 -13 -20 -20 -20 -20 -20 -20 -20 -20 -20 -20 -20 -20 -20 -20 -20 -20 -20 5 12 -20 -20 27 29 30 17
-20 -20 -20 -20 -20 -20 -20 -20 -20 -19 -1 19 5 -19 -20 -20 -20 -20 -20 -20 -20 -20 -20 -20 -20 -20 -20 -20 -20 -20 -20 -20 -20 -20 -20 -10 8 1 -20 -20 -15 13 -6 -10
-20 -20 -20 -20 -20 -20 -20 -20 -17 -16 25 8 25 -20 -16 -20 -20 -20 -20 -20 -20 -20 -20 -20 -19 -20 -20 -20 -20 -20 -20 -20 -20 -20 -20 -20 -20 -20 -20 -20 -20 -20 -8 -4
-20 -20 -0 6 -14 -20 -20 -19 -20 1 20 19 -20 -20 -2 -14 15 -20 -20 -20 -20 -20 -20 -20 30 28 8 -20 -20 -20 -20 33 -20 -20 -20 -20 -20 -20 -13 -20 -20 -20 -20 -20
-20 -20 -16 9 10 -9 -20 -20 -20 -20 -20 -20 -20 -20 -8 31 -4 6 -20 -20 -20 -20 -20 -20 -20 13 -19 14 31 23 -14 -20 -18 -8 -20 -20 -20 -20 -20 -20 -7 -20 -20 -20
-20 -20 -19 5 5 -13 -20 -20 -20 -17 -20 -20 -20 -20 -4 10 -19 -4 -20 -20 -20 -20 -20 -20 -20 -20 -20 -20 -20 -19 -19 -20 39 -14 7 -12 35 29 6 -20 -20 -20 -20 -20
-20 -8 -14 -19 14 -6 -20 -20 -19 -20 -20 -20 -11 -16 -20 -20 -20 -20 -20 -20 -20 -20 -20 -20 -20 -20 -20 -20 -20 -20 -20 -20 -11 -18 36 5 -4 -19 -20 -20 -15 -20 -18 9
18 3 -20 -20 -20 -0 1 -20 -20 -16 -20 -20 -9 -20 -20 1 -9 -10 6 -20 -20 -20 -20 -20 -20 -20 -20 -20 -20 -20 -20 -20 1 -20 25 4 14 -16 -20 4 11 16 4 12
11 10 -20 -20 -20 -17 -5 -20 -20 -16 12 -14 -18 -20 -20 -20 -12 -1 30 11 -20 -20 -20 -20 -20 -20 -20 -20 -20 -20 -20 -20 9 -18 -10 -20 -19 24 0 17 13 17 13 1
-20 -20 -20 -20 -11 -20 -6 16 -10 -20 -20 -20 -20 -20 -20 -20 -11 3 4 -4 -20 -20 -20 -20 -20 -20 -20 -20 -20 -20 -20 -20 -19 -20 -20 -20 -19 -19 28 21 18 -20 -20 -20
-20 -20 -19 -20 -20 -13 -20 -20 -20 -18 8 -20 -20 -20 -20 -20 -3 7 -20 -20 -20 -20 -20 -20 -20 -20 -20 -20 -20 -20 -20 -20 -20 -20 -20 -20 8 -12 -20 -20 -20 -20 -20 -20
-20 -15 -20 -2 -20 -11 -20 -20 -20 -20 -20 -20 -20 -20 -20 -20 -20 -20 -20 -20 -20 -20 -20 -20 -20 -20 -6 -20 -20 -20 -20 -20 -20 -20 -12 -4 -20 -20 -20 -20 -20 -20 -20 -20
-19 4 13 14 -20 -20 -20 -20 -9 -20 -20 -20 -18 -20 -20 -20 -15 -20 -20 -20 -20 -20 -20 -20 -20 -20 -20 -20 -20 -20 -20 -20 -20 -20 -20 -20 -20 -20 -20 -20 -20 -20 -20 -20
27 -20 19 21 -11 -12 -20 -16 9 -13 -20 -20 -10 -20 -20 -20 -20 -20 -20 -20 -20 -20 -20 -20 -20 -20 -20 -20 -20 -20 -20 -20 -20 -20 -20 -20 -20 -20 -20 -20 -20 -20 -20 -20
21 20 4 8 17 -16 -20 8 8 -8 -19 -11 -10 0 -20 -4 -16 -20 -20 -20 -20 -20 -20 -20 -20 -20 -20 -20 -20 -20 -20 -20 -20 -20 -20 -20 -20 -20 -20 -20 -20 -20 -20 -20
11 30 18 15 4 -8 -5 12 1 -19 -13 -10 -20 -16 -18 -20 -20 -20 -20 -20 -20 -20 -20 -20 -20 -20 -20 -20 -20 -20 -20 -20 -20 -20 -20 -20 -20 -20 -20 -20 -20 -20 -20 -20
10 -7 14 29 1 -20 11 21 6 4 -20 -20 -20 12 -18 -20 -20 -20 -20 -20 -20 -20 -20 -20 -20 -20 -20 -20 -20 -20 -20 -20 -20 -20 -20 -20 -20 -20 -20 -20 -20 -20 -20 -20
-20 6 1 0 -17 -16 37 24 -4 10 -19 -20 -20 5 -20 -20 -20 -20 -20 -20 -20 -20 -20 -20 -20 -20 -20 -20 -20 -20 -20 -20 -20 -20 -20 -20 -20 -20 -20 -20 -20 -20 -20 -20
1 -17 -5 -5 0 12 8 26 18 5 -20 -20 -20 -20 -20 -20 -20 -20 -20 -20 -20 -20 -20 -20 -20 -20 -20 -20 -20 -20 -20 -20 -20 -20 -20 -20 -20 -20 -20 -20 -20 -20 -20 -20
-20 -20 -17 -7 12 13 22 16 7 4 -20 -20 -20 -20 -20 -20 -20 -20 -20 -20 -20 -20 -20 -20 -20 -20 -20 -20 -20 -20 -20 -20 -20 -20 -20 -20 -20 -20 -20 -20 -20 -20 -20 -20

GFSCGP_prec_radar_045.txt.gz
Reflectivity
-20 -20 -20 -20 -20 -20 -20 -20 -20 -20 -6 -20 -20 -20 -20 -20 -20 -20 -20 -20 -14 -20 -20 -20 -20 -20 -20 -20 -20 -20 -20 -20 -20 -20 -20 -12 -20 -20 -20 -20 -14 -14 -20 -20
-20 -20 -20 -20 -20 -20 -20 -20 -20 -14 16 -20 -20 -20 -20 -20 -20 -20 -20 -20 -20 -20 -20 -20 -20 -20 -20 -20 -20 -20 -20 -20 -20 -20 -20 -20 -20 -20 -20 -20 2 6 -13 -20
-20 -20 -20 -20 -20 -20 -20 -20 -20 -20 -20 -20 -20 -20 -20 -20 -20 -20 -20 -20 -20 -20 -20 -20 -20 -20 -20 -20 -20 -20 -20 -20 -20 -20 -20 -20 -18 -20 -20 -20 -20 -20 -20 -10
-20 -20 -20 -20 -20 -20 -20 -20 -20 -20 -20 -20 -20 -20 -20 -20 -20 -20 -20 -20 -20 -20 -20 -20 -20 -20 -20 -20 -20 -20 -20 -20 -20 -20 -20 -20 -20 -20 -20 -20 -20 -20 -20 29
-20 -20 -20 -20 -20 -20 -20 -20 -20 -20 -20 -20 -20 -20 -16 -20 23 -20 -20 -20 -20 -20 -20 -20 -20 -20 -20 -20 -20 -20 -20 -20 -20 -20 -20 -20 -20 -20 -20 -20 -20 -15 -20 -20
-20 -20 -20 -20 -20 -20 -20 -20 -20 -20 -20 -20 -20 -20 -20 7 11 6 -20 -20 -20 -20 -20 -20 -20 -20 -20 -20 -20 -20 -20 -20 -20 -20 -20 -20 -20 -20 -20 -20 -20 -20 -20 -20
-20 -20 -20 -20 -20 -20 -20 -20 -20 -20 -20 -20 -20 -20 -20 -19 -15 -20 -20 -20 -20 -20 -20 -20 -20 -20 -20 -20 -20 -20 -20 -20 -20 -20 -20 -20 -20 -20 -20 -20 -20 -20 -10 26
-20 -20 -20 -20 -20 -20 -20 -20 -20 -20 -20 -20 -20 -20 -20 -9 -19 -20 -20 -20 -20 -20 -20 -20 -20 -20 -20 -20 -20 -20 -20 -20 -20 -20 -20 -20 -20 -20 -20 -20 -20 -20 -20 -1
-20 -20 -20 -20 -20 -20 -20 -20 -20 -20 -20 -20 -20 -14 -19 -12 -10 -20 -20 -20 -20 -20 -20 -20 -20 -20 -20 -20 -20 -20 -20 -20 -20 -20 -20 -20 -20 -20 -20 -20 -20 -20 -20 -20
-20 -20 -16 -20 -20 -20 -20 -20 -20 -20 -11 -20 -20 -20 -11 10 15 -18 -20 -20 -20 -20 -20 -20 -20 -20 -2 -14 -2 -0 -18 -20 -18 -20 -20 -20 -20 -20 -20 -20 -20 -20 -20 -20
-20 -20 -20 -20 -20 -20 -20 -20 -20 -2 -13 -14 -20 -6 -3 -9 -20 -18 -20 -20 -20 -20 -20 -20 -20 -13 -19 -20 5 21 -3 22 30 33 1 -15 -20 -20 1 -11 -20 -3 -20 -20
-20 -20 -20 -20 -20 -17 -20 -20 -20 -20 -20 -20 -20 -20 -20 -20 -20 -19 -14 -20 -20 -20 -20 -20 -20 -20 20 -20 -20 -20 -20 -5 27 -9 -3 -20 24 -0 32 34 10 -20 -20 -16
-20 -13 -20 -20 -20 -20 -20 -20 -20 -20 -20 -20 -20 -20 -3 -14 -20 6 -20 -20 -20 -20 -20 -20 -20 -20 -20 -20 -20 12 -17 -15 22 -13 -4 18 32 43 24 9 -8 -20 -20 -20
5 -6 -20 -20 -20 -20 -20 -20 -20 -20 -20 -20 -20 -20 -19 -20 13 -20 -20 -20 -20 -20 -20 -20 -20 -20 -20 -20 -20 -20 -20 5 -16 -3 13 4 12 14 -9 -12 5 -4 -18 9
-0 15 -17 -20 -20 -1 -16 -20 -20 -20 -20 -20 -20 -20 -20 -20 -20 -20 -20 -20 -20 -15 -20 -20 -20 -20 -20 -20 -20 -20 -20 -20 -16 -7 -20 -20 -20 -20 -20 -20 -20 -20 -20 -14
-3 -16 -20 -20 -20 -13 -14 -20 -20 -20 -20 -20 -20 -20 -20 -20 -8 -20 -19 4 -20 3 -8 -20 -20 -20 -20 -20 -20 -20 -20 -20 -20 -20 -20 -20 -20 -20 -20 -20 -20 -20 -17 4
-3 -20 -20 -20 -20 -20 -7 -20 -20 -20 -20 -20 -20 -20 -20 -20 -20 -4 -20 -20 -20 -20 -7 -20 -20 -20 -20 -20 -20 -20 -20 -20 -20 -20 -20 -20 -20 -20 -20 -20 -20 -20 0 4
25 -20 -20 -20 -20 15 10 -12 -20 -20 -20 -18 2 -20 -20 -20 -20 -20 -20 -20 -20 -20 -20 -20 -20 -20 -20 -20 -20 -20 -20 -20 -20 -20 -20 -20 -20 -20 -20 -20 -20 -20 -20 -15
15 17 8 -5 -6 -17 -13 -20 -20 -20 -20 -20 -20 -20 -20 -20 -20 -20 -20 -20 -20 -18 -20 -20 -20 -20 -20 -20 -20 16 -20 -20 -20 -20 -20 -20 -12 -20 -20 -20 -20 -20 -20 -20
4 38 42 13 7 -14 -20 -20 -20 -20 -20 -20 -20 -20 -20 -20 -20 -20 -20 -20 -19 -20 -20 -20 -20 -20 -20 -20 -20 -20 -20 -6 -20 17 -20 -20 -20 -20 -20 -20 -20 -20 -20 -20
5 27 30 -20 -3 -20 -20 -20 -10 8 -3 -9 9 -20 -20 -20 -20 -20 -20 -20 -20 -20 -20 -20 -20 -20 -20 -20 -20 -20 -20 -20 -20 -20 -20 -20 -20 -20 -20 -20 -20 -20 -20 -20
-1 10 23 29 -20 -2 -20 -20 -1 3 -14 9 15 -20 -17 -20 -20 -20 -20 -20 -20 -20 -20 -20 -20 -20 -20 -20 -20 -20 -20 -20 -20 -20 -20 -20 -20 -20 -20 -20 -20 -20 -20 -20
12 -19 9 14 29 -20 -17 9 -20 4 -19 -20 -20 -20 -20 -20 -17 -20 -20 -20 -20 -20 -20 -20 -20 -20 -20 -20 -20 -20 -20 -20 -20 -20 -20 -20 -20 -20 -20 -20 -20 -20 -20 -20
-20 -19 3 -8 3 5 -20 -9 4 -20 3 3 28 -17 15 -6 -20 -20 -20 -20 -20 -20 -20 -20 -20 -20 -20 -20 -20 -20 -20 -20 -20 -20 -20 -20 -20 -20 -20 -20 -20 -20 -20 -20
-20 -20 -14 -3 -5 15 1 -20 -20 5 -5 5 -11 -15 12 -20 -20 -20 -20 -20 -20 -20 -20 -20 -20 -20 -20 -20 -20 -20 -20 -20 -20 -20 -20 -20 -20 -20 -20 -20 -20 -20 -20 -20
-20 -20 -10 -20 -13 12 4 -20 -3 4 30 30 -0 -4 -20 -20 -20 -20 -20 -20 -20 -20 -20 -20 -20 -20 -20 -20 -20 -20 -20 -20 -20 -20 -20 -20 -20 -20 -20 -20 -20 -20 -20 -17

GFSCGP_prec_radar_051.txt.gz
Reflectivity
-20 -20 -20 -9 -20 -20 -20 -20 -20 -20 -20 -20 -20 -20 -20 -20 -20 -20 -20 -20 -20 -20 -20 -20 -20 -20 -20 -20 -5 0 20 33 22 15 9 15 31 30 10 10 19 29 2 -7
-20 -20 -3 -20 -20 -20 -20 -20 -20 -20 -20 -20 -20 -20 -20 -20 -20 -20 -20 -20 -20 -20 -20 -20 -20 -20 -20 -20 -20 -6 9 9 -8 6 28 20 29 24 6 14 17 19 14 -20
-20 -20 -17 -20 -20 -20 -20 -20 -20 -20 -20 -20 -20 -20 -20 -20 -20 -20 -20 -20 -20 -20 -20 -20 -20 -20 -20 -20 -20 -16 -20 -20 -19 -5 12 16 28 29 10 -6 14 13 -1 -20
-20 -20 -20 -20 -20 -20 -20 -20 -20 -20 -20 -20 -20 -20 -20 -20 -20 -20 -20 -20 -20 -20 -20 -20 -20 -20 -20 -20 -20 -20 -20 -20 -20 -20 -1 -9 -15 -16 -20 -20 -20 -20 -20 -20
-20 -20 -20 -20 -20 -20 -20 -20 -20 -20 -20 -20 -20 -20 -20 -20 -20 -20 -20 -20 -20 -20 -20 -20 -20 -20 -20 -20 -20 -20 -20 -20 -20 -20 -20 -20 -20 -20 -20 -20 -20 -20 -20 -20
-20 -20 -20 -20 -20 -20 -20 -20 -20 -20 -20 -20 -20 -20 -20 -20 -20 -20 -20 -20 -20 -20 -20 -20 -20 -20 -20 -20 -20 -20 -20 -20 -20 -20 -20 -20 -20 -20 -20 -20 -20 -20 -20 -20
-20 -20 -20 -20 -20 -20 -20 -20 -20 -20 -20 -20 -20 -20 -20 -20 -20 -20 -20 -20 -20 -20 -20 -20 -20 -20 -20 -20 -20 -20 -20 -20 -20 -20 -20 -20 -20 -20 -20 -20 -20 -20 -20 -20
-20 -20 -20 -20 -20 -20 -20 -20 -20 -20 -20 -20 -20 -20 -20 -20 -20 -20 -20 -20 -20 -20 -20 -20 -20 -20 -20 -20 -20 -20 -20 -20 -20 -20 -20 -20 -20 -20 -20 -20 -20 -20 -20 -20
-20 -20 -20 -20 -20 -20 -20 -20 -20 -20 -20 -20 -20 -20 -20 -20 -20 -20 -20 -20 -20 -20 -20 -20 -20 -20 -20 -20 5 -20 -20 -20 -20 -20 -20 -20 -20 -20 -20 -20 -20 -20 -20 -20
-20 -20 -20 -20 -20 -20 -20 -20 -20 -20 -20 -20 -20 -20 -20 -20 -20 -20 -20 -20 -20 -20 -20 -20 -20 -20 -20 5 4 -20 -20 -20 -20 -20 -20 -20 -20 -20 -20 -20 -20 -20 2 -20
-20 -20 -20 -20 -20 -20 -20 -20 -20 -20 -20 -20 -20 -20 -20 -20 -20 -20 -20 -20 -20 -20 -20 -20 -20 -20 -20 -1 -9 -5 -20 -6 18 2 -20 -20 -20 -20 -20 -20 -20 -20 -14 8
-20 -20 -20 -20 -20 -20 -20 -20 -20 -20 -20 -20 -20 -20 -20 -20 -20 -20 -20 -20 -20 -20 -20 -20 -20 -20 -20 -20 -20 -20 27 -20 -20 24 23 26 -7 -20 -19 -19 -10 24 22 23
-20 -20 -20 -20 -20 -20 -20 -20 -20 -20 -20 -20 -20 -15 -20 -20 -20 -20 -20 -20 -20 -20 -20 -20 -20 -20 -20 -20 -20 -20 -20 -20 -13 15 20 24 12 26 17 -6 3 -4 9 36
-20 -20 -20 -20 -20 -20 -20 -20 -20 -20 -20 -20 -20 -20 -20 -20 -20 -20 -20 -20 -20 -20 -20 -20 -20 -20 -20 -20 -20 -20 -20 -20 -20 -20 -20 -20 5 30 -20 -18 18 20 25 -20
-19 -20 -20 -20 -20 -20 -20 -20 -20 -20 -20 -20 -20 -20 -20 -20 -20 -20 -20 -20 -20 -20 -20 -20 -20 -20 -20 -20 -20 -20 -20 -20 -20 -20 -20 -20 12 -20 5 16 15 -20 -20 -16
9 -20 -20 -20 -20 -20 -20 -20 -20 -20 -20 -20 -20 -20 -20 -20 -20 -20 -20 -20 -20 -20 -20 -20 -20 -20 -20 -20 -20 -20 -20 -20 -20 -20 -20 -20 -20 -20 -20 -20 -20 -20 -16 -20
-19 -20 -8 -20 -19 -20 -20 -20 -20 -20 -20 -20 -18 -20 -20 -20 -20 -20 -20 -20 -20 -20 -20 -20 -20 -20 -20 -20 -20 -20 -20 -20 -20 -20 -20 -20 -20 -19 -20 -6 -20 -7 24 30
-14 -20 -6 -17 1 16 -20 -20 -20 -20 -20 -20 -18 -14 7 -20 -20 -20 -20 -20 -20 -20 -20 -20 -20 -20 -20 -20 -20 -20 -20 -20 -20 -20 -20 -20 -20 -0 -4 7 7 -20 -20 -11
-20 -20 -20 -8 -20 -18 -20 7 5 -20 -20 2 3 -20 -20 -20 -20 -20 -20 -20 -20 -20 -20 -20 -20 -20 -20 -20 -20 -20 -20 -20 -20 -20 -20 -20 -20 -12 -17 25 -12 -14 -3 1
-20 -20 -20 -20 -20 -20 16 9 24 11 -20 -20 -20 -20 -20 -20 -20 -20 -20 -20 -20 -20 -20 -20 -20 -20 -20 -20 -20 -20 -20 -20 -20 -20 -20 -20 -20 -20 -20 -20 5 13 -19 3
-18 -20 -13 -20 -18 -20 8 6 5 5 -14 14 -10 -20 -20 -20 -20 -20 -20 -20 -20 -20 -20 -20 -20 -20 -20 -20 -20 -20 -20 -20 -20 10 -9 -20 -20 -20 -15 -12 12 16 19 9
-20 1 -16 -19 -20 -20 4 3 -17 -20 -13 -20 -9 5 -20 -20 -20 -20 -20 -20 -20 -20 -20 -20 -20 -20 -20 -20 -20 -20 -20 -20 -20 -20 -20 -20 -20 -14 10 18 19 1 -16 -20
-2 -20 -20 -16 -20 -20 1 6 2 14 26 20 21 -14 6 -20 -20 -20 -20 -20 -20 -20 -20 -20 -20 -20 -20 -20 -20 -20 -16 -13 -20 -20 -20 -20 -20 -19 -17 -20 -20 -20 -20 -20
-20 -20 -20 -20 -20 -20 -7 1 4 9 14 25 4 9 -20 -13 2 -20 -16 -18 -20 -20 -20 -6 -17 -20 -20 -20 -20 -20 -20 -20 -20 -20 -20 -20 -20 -20 -20 -20 -20 -20 -20 -20
-20 -20 -20 -20 -16 -10 -20 -2 -5 -20 8 16 12 6 -8 -20 -9 -20 20 12 -20 -2 -2 -20 -20 -20 -20 -20 -15 -20 -20 -20 -20 -20 -20 -20 -20 -20 -20 -20 -20 -20 -20 -8
-20 -20 -20 -20 -15 -14 8 20 -17 -20 -8 7 -17 -20 -20 -20 -20 -20 -10 14 18 -0 8 -20 2 -16 -20 -4 -15 -20 -20 -20 -20 -20 -20 -20 -20 -20 -20 -20 -18 10 8 11

GFSCGP_prec_radar_054.txt.gz
Reflectivity
-20 -20 -20 7 -20 -20 -20 -20 -20 -20 -20 -20 -20 -20 -20 -20 -20 -20 -20 -20 -20 -20 -20 -20 -20 -20 -20 -20 -20 -8 18 27 32 16 33 35 38 -10 -14 -14 -20 -20 -20 8
-20 -20 -20 3 -20 -20 -20 -20 -20 -20 -20 -20 -20 -20 -20 -20 -20 -20 -20 -20 -20 -20 -20 -20 -20 -20 -20 -20 -20 -11 19 27 20 29 23 1 14 4 14 22 9 -11 -11 17
-20 -20 -20 -20 -20 -20 -20 -20 -20 -20 -20 -20 -20 -20 -20 -20 -20 -20 -20 -20 -20 -20 -20 -20 -20 -20 -20 -20 -20 -8 -19 1 -2 -11 21 12 19 -0 18 25 -7 6 10 30
-20 -20 -20 -20 -20 -20 -20 -20 -20 -20 -20 -20 -20 -20 -20 -20 -20 -20 -20 -20 -20 -20 -20 -20 -20 -20 -20 -20 -20 -20 -20 -20 -12 1 -20 11 31 15 7 24 28 -13 -2 17
-20 -20 -20 -20 -20 -20 -20 -20 -20 -20 -20 -20 -20 -20 -20 -20 -20 -20 -20 -20 -20 -20 -20 -20 -20 -20 -20 -20 -20 -20 -20 -20 -20 -20 -20 -11 -2 19 -3 11 19 -10 13 11
-20 -20 -20 -20 -20 -20 -20 -20 -20 -20 -20 -20 -20 -20 -20 -20 -20 -20 -20 -20 -20 -20 -20 -20 -20 -20 -20 -20 -20 -20 -20 -20 -19 -20 -20 -20 -20 -20 -7 -15 -15 -20 -20 -20
-20 -20 -20 -20 -20 -20 -20 -20 -20 -20 -20 -20 -20 -20 -20 -20 -20 -20 -20 -20 -20 -20 -20 -20 -20 -20 -20 -20 -20 -20 -20 -20 -20 -20 -20 -20 -20 -20 -20 -20 -20 -20 -20 -20
-20 -19 -10 -20 -20 -20 -20 -20 -20 -20 -20 -20 -20 -20 -20 -20 -20 -20 -20 -20 -20 -20 -20 -20 -20 -20 -20 -20 -20 -20 -20 -20 -20 -20 -20 -20 -20 -20 -20 -20 -20 -20 -20 -20
-19 -17 -18 -14 -6 -20 -20 -20 -20 -20 -20 -20 -20 -20 -20 -20 -20 -20 -20 -20 -20 -20 -20 -20 -20 -20 -20 -20 -20 -20 -20 -20 -20 -20 -20 -20 -20 -20 -20 -20 -20 -20 -20 -20
-20 -15 3 -12 -16 -20 -20 -20 -20 -20 -20 -20 -20 -20 -20 -20 -20 -20 -20 -20 -20 -20 -20 -20 -20 -20 -20 -20 -20 -20 -20 -20 -20 -20 -20 -20 -20 -20 -20 -20 -20 -20 -20 -20
-20 -20 -12 -20 -20 -20 -20 -20 -20 -20 -20 -20 -20 -20 -20 -20 -20 -20 -20 -20 -20 -20 -20 -20 -20 -20 -20 -20 -20 -20 -16 -12 -20 -20 -9 -20 -20 -20 -20 -20 -20 -20 -20 -20
-20 -20 -20 -20 -20 -20 -20 -20 -20 -20 -20 -20 -20 -20 -20 -20 -20 -20 -20 -20 -20 -20 -20 -20 -20 -20 -20 -20 -20 -20 -20 -20 -20 -20 -20 -18 -15 -18 -7 -20 -20 -20 -20 -20
-20 -20 -20 -13 -20 -20 -20 -20 -20 -20 -20 -20 -20 -20 -20 -20 -20 -20 -20 -20 -20 -20 -20 -20 -20 -20 -20 -20 -20 -20 -20 -20 9 -20 -20 -0 5 22 -15 -3 0 -20 -19 -20
-20 -20 -20 -20 -20 -20 -20 -20 -20 -20 -20 -20 -20 -20 -20 -19 -20 -20 -20 -20 -20 -20 -20 -20 -20 -20 -20 -20 -20 -20 -20 -20 -20 -20 -20 -20 -20 -20 -13 15 14 -14 -20 -20
-20 -20 -20 -20 -20 -20 -20 -20 -20 -20 -20 -20 -20 -20 -20 -16 -14 -20 -20 -20 -20 -20 -20 -20 -20 -20 -20 -20 -20 -20 -20 -20 -20 -20 -20 -20 -20 -20 -20 -20 16 22 -18 25
-19 -20 -20 -20 -10 -20 -20 -20 -20 -20 -20 -20 -20 -20 -20 -20 -20 -20 -20 -20 -20 -20 -20 -20 -20 -20 -20 -20 -20 -20 -20 -20 -20 -20 -20 -20 -20 -20 -20 -20 -20 15 21 25
-20 -20 -20 -20 -19 -20 -20 -20 -20 -20 -20 -20 -20 -20 -20 -20 -20 -20 -20 -20 -20 -20 -20 -20 -20 -20 -20 -20 -20 -20 -20 -20 -20 -20 -20 -20 -20 -20 -20 -20 -20 -14 -18 13
-14 -16 -6 -20 -13 -19 -20 -19 -20 -20 -20 -20 -20 -20 -20 -20 -20 -9 -17 -20 -20 -20 -20 -20 -20 -20 -20 -20 -20 -20 -20 -20 -20 -20 -20 -20 -20 -20 -20 -20 -17 -1 -8 3
-19 -6 -20 -20 -20 -20 -20 -19 -17 -20 -11 -20 -20 -20 -20 -20 -20 -20 -20 -20 -20 -20 -20 -20 -20 -20 -20 -20 -20 -20 -20 -20 -20 -20 -20 -20 -20 -20 -20 -20 -3 10 20 24
-20 -20 -8 -20 -20 -20 -20 -20 -20 -20 -13 11 -8 -20 -20 -20 -20 -20 -14 -11 -5 -8 -20 -20 -20 -20 -20 -20 -20 -20 -20 -20 -20 -10 -20 -20 -20 -20 -20 -7 24 19 19 21
-9 3 -1 -11 11 -17 -20 -20 -20 3 -16 -20 -20 -20 -20 -20 -20 -20 -20 -20 -20 -20 -20 -20 -20 -20 -20 -20 -20 -20 -20 -20 -20 -20 -20 -18 -10 -5 5 12 14 9 13 7
-5 -7 -10 12 -7 -20 -20 -20 -17 -15 -19 -20 -20 -20 -20 -13 -20 -20 -20 -20 -20 -20 -20 -20 -20 -20 -20 -20 -20 -20 -20 -20 -20 -13 28 14 11 -20 -20 -19 -8 -2 9 6
-2 -20 -20 -20 -20 -20 -20 -20 -20 -20 -20 -20 -20 -20 -20 -18 -20 -20 -20 -20 -20 -20 -20 -20 -20 -20 -20 -20 -20 -20 -19 -20 -11 -8 -18 -20 -20 -20 -13 4 10 13 22 20
-20 -20 -20 -20 -20 -20 -20 -20 -20 -20 -20 -20 -8 -20 -17 -3 -20 -20 -20 -20 -20 -20 4 -11 -17 -20 -20 -20 -20 -20 -12 5 -20 -20 -20 -20 -20 -16 11 7 19 22 22 -1
-20 -20 -20 -20 -20 -20 -20 -20 -20 -20 -20 -20 1 5 -20 -1 10 22 -15 -20 -20 -20 8 -10 -10 -14 -20 -20 -20 -12 -3 -20 -15 -20 -20 -20 -20 -14 -18 11 4 -11 -20 -20
-20 -20 -20 -20 -20 -14 -20 -20 -20 -20 12 4 9 -4 3 5 -1 2 4 -9 -19 -20 -2 5 -4 29 10 21 -15 -20 -20 -20 -20 -20 -20 -20 -20 -20 -20 -20 -20 -20 -20 -19

GFSCGP_prec_radar_057.txt.gz
Reflectivity
-20 -20 -20 -20 -20 -20 -20 -20 -20 -20 -20 -20 -20 -20 -20 -20 -20 -20 -20 -20 -20 -20 -20 -20 -20 -20 -20 -20 -20 -7 24 2 18 16 7 15 30 -11 7 12 -18 -20 -20 -20
-20 -20 -20 -20 -20 -20 -20 -20 -20 -20 -20 -20 -20 -20 -20 -20 -20 -20 -20 -20 -20 -20 -20 -20 -20 -20 -20 -20 -19 -20 6 27 9 8 11 14 5 19 22 -7 -20 -20 -11 -20
-20 -12 -20 -20 -20 -20 -20 -20 -20 -20 -20 -20 -20 -20 -20 -20 -20 -20 -20 -20 -20 -20 -20 -20 -20 -20 -20 -20 -15 -20 -0 -10 15 5 31 25 27 29 35 15 16 -6 -11 1
-20 -20 -20 -20 -20 -20 -20 -20 -20 -20 -20 -20 -20 -20 -20 -20 -20 -20 -20 -20 -20 -20 -20 -20 -20 -20 -20 -20 -20 -6 -20 -20 6 1 19 17 22 -19 13 13 -1 -1 20 23
-20 -12 -20 -20 -20 -20 -20 -6 -20 -20 -20 -20 -20 -20 -20 -20 -20 -20 -20 -20 -20 -20 -20 -20 -20 -20 -20 -20 -20 -2 -20 -20 -7 8 -14 -17 -7 27 30 -9 -12 14 7 15
-6 -20 -20 -20 -20 -20 -20 -20 -20 -20 -20 -20 -20 -20 -20 -20 -20 -20 -20 -20 -20 -20 -20 -20 -20 -20 -20 -20 -20 -20 -20 -8 -20 -16 -20 -20 -8 14 12 -1 8 9 -20 -12
-18 -20 -20 -20 -20 -20 -20 -20 -20 -20 -20 -20 -20 -20 -20 -20 -20 -20 -20 -20 -20 -20 -20 -20 -20 -20 -20 -20 -20 -20 -20 -20 -20 -20 -20 -20 -20 -20 1 13 -0 4 -3 -18
9 11 -11 -20 -20 -12 -4 -20 -20 -20 -20 -20 -20 -20 -20 -20 -20 -20 -20 -20 -20 -20 -20 -20 -20 -20 -20 -20 -20 -20 -20 -20 -20 -20 -20 -20 -20 -20 -20 -18 -20 -20 -20 -17
-19 -20 7 11 18 15 8 -20 -20 -20 -20 -20 -20 -20 -20 -20 -20 -20 -20 -20 -20 -20 -20 -20 -20 -20 -20 -20 -20 -20 -20 -20 -20 -20 -20 -20 -20 -20 -20 -20 -20 -20 -20 -20
0 -20 -11 4 7 -3 -20 -20 -20 -20 -20 -20 -20 -20 -20 -20 -20 -20 -20 -20 -20 -20 -20 -20 -20 -20 -20 -20 -20 -20 -20 -20 -20 -20 -20 -20 -20 -20 -20 -20 -20 -20 -20 -20
-1 -12 -20 -20 -20 -20 -20 -20 -20 -20 -20 -20 -20 -20 -20 -20 -20 -20 -20 -20 -20 -20 -20 -20 -20 -20 -20 -20 -20 -20 -20 -20 -20 -20 -20 -20 -20 -20 -20 -20 -20 -20 -20 -20
-20 -19 0 5 8 -18 -20 -20 -20 -20 -20 -20 -20 -20 -20 -20 -20 -20 -20 -20 -20 -20 -20 -20 -20 -20 -20 -20 -20 -20 -20 -20 -20 -20 -20 -20 -20 -20 -20 -20 -20 -20 -20 -20
-20 -20 -20 -20 -18 -4 -13 -20 -20 -20 -20 -20 -20 -20 -20 -20 -20 -20 -20 -20 -20 -20 -20 -20 -20 -20 -20 -20 -20 -20 -20 -20 -20 -20 -20 -20 -20 -20 -19 -2 18 1 -20 -10
-19 -11 -20 -19 -20 -20 -20 -20 -20 -20 -20 -20 -20 -20 -20 -20 -20 -20 -20 -20 -20 -20 -20 -20 -20 -20 -20 -20 -20 -20 -20 -20 -20 -20 -20 -20 -20 -20 -20 -20 -20 -19 -20 -3
4 -8 -20 -20 -15 -19 -20 -20 -20 -20 -20 -20 -20 -20 -20 -20 -20 -20 -20 -20 -20 -20 -20 -20 -20 -20 -20 -20 -20 -20 -20 -20 -20 -20 -20 -20 -20 -20 -20 -20 -20 -20 -20 -20
-20 -20 -20 -20 -20 -20 -20 -20 -20 -20 -20 -20 -20 -20 -20 -20 -20 -20 -20 -13 -20 -20 -20 -20 -20 -20 -20 -20 -20 -20 -20 -20 -20 -20 -20 -20 -20 -20 -20 -20 -20 -20 -20 -20
-20 -20 -20 -20 -20 -20 -20 -20 -20 -20 -20 -20 -20 -20 -20 -20 -20 -20 -20 -20 -0 5 -19 -20 -20 -20 -20 -20 -20 -20 -20 -20 -20 -20 -20 -20 -20 -20 -20 -20 -20 -20 -20 -20
-20 -20 -20 -20 -20 -20 -20 -20 -20 -20 -20 -20 -20 -20 -20 -20 -20 -20 -20 -15 14 -2 -7 -4 -10 -20 -20 -20 -20 -20 -20 -20 -20 -20 -20 -20 -20 -20 -20 -20 -20 -20 -20 -6
-20 -9 10 -20 -20 -20 -20 -20 -20 -20 -20 -8 -20 -20 -20 -20 -20 -20 -20 -20 -20 -20 -20 -17 3 -20 -20 -20 -20 -20 -20 -20 -20 -20 -20 -20 -20 -20 -20 -20 -20 -20 -20 -20
-20 -20 10 -20 -6 -20 -20 -20 -20 -20 -20 -20 -20 -20 -20 -20 -20 -20 -20 -20 -20 -20 -20 -20 -20 -20 -19 -20 -20 -20 -20 -20 -20 -20 -20 -20 -20 -20 -20 -17 -20 -20 -20 6
-12 -11 5 9 -20 -20 -20 -20 -20 -20 -20 -20 -20 -20 -20 -20 -20 -20 -20 -20 -20 -20 -20 -20 -20 -18 -8 7 -7 -20 -20 -20 -20 -20 -20 -20 -20 -20 -20 -17 -11 -7 0 -8
-20 -20 -10 -1 -3 -17 -20 -20 -20 -20 -20 -20 -20 -20 -20 -20 -20 -20 -20 -20 -20 -20 -20 -20 -20 -20 -20 -20 -9 -14 -20 -19 -20 -20 -20 -19 4 9 -20 -19 23 0 -0 2
10 -20 -20 -20 -20 -20 -20 -20 -20 -20 -20 -20 -20 -20 -20 -20 -20 -20 -20 -19 -20 -20 -20 -20 -20 -20 -20 -20 -20 -20 -20 -18 -2 9 -17 5 10 -7 -9 -20 -20 -20 -11 4
-20 -20 -20 -20 -20 -20 -20 -20 -20 -20 -20 -20 -20 -20 -20 -20 -20 -20 -20 -17 12 7 -20 -20 -20 -20 -18 -20 -20 -20 -15 -9 -16 5 -20 -20 -18 5 -8 -20 -16 -4 4 16
-20 -20 -20 -20 -20 -20 -20 -20 -20 -20 -20 -20 -20 -20 -20 -20 -20 -20 -20 -20 10 7 -20 -20 -11 -19 -5 -2 7 14 -20 -19 -16 -20 -20 -20 7 -20 -20 -18 1 6 16 21
-20 -17 -6 -20 -20 -20 -20 -20 -20 -20 -20 -20 -20 -20 -20 -18 -11 -8 -20 -20 -19 16 16 12 1 -14 9 -1 -1 -16 -20 -20 -14 -4 -0 -20 -20 -20 -20 -20 -14 -3 2 6

GFSCGP_prec_radar_060.txt.gz
Reflectivity
-20 -20 -20 6 -20 -20 -20 -20 -20 -20 -20 -20 -20 -20 -20 -20 -20 -20 -20 -20 -20 -20 -20 -20 -20 -20 -18 -20 -3 -20 6 -15 -20 12 8 -3 1 0 23 21 25 28 8 0
-20 -20 -12 9 -20 -20 -20 -20 -20 -20 -20 -20 -20 -20 -20 -20 -20 -20 -20 -20 -20 -20 -20 -20 -20 -20 -20 -5 1 -20 2 3 32 13 -15 -2 1 19 21 24 20 29 19 -20
-20 -20 14 10 -20 -20 -20 -20 -20 -20 -20 -20 -20 -20 -20 -20 -20 -20 -20 -20 -20 -20 -20 -20 -20 -20 -20 -20 -20 9 9 21 19 -5 -4 16 28 4 22 21 12 9 -20 -6
-20 -20 20 -6 -20 -6 -20 -20 -20 -20 -20 -20 -20 -20 -20 -20 -20 -20 -20 -20 -20 -20 -20 -20 -20 -20 -20 -20 -18 2 11 11 6 13 -20 7 -16 4 14 26 28 12 -7 -20
-20 -0 9 -13 -19 1 -20 -20 -20 -20 -20 -20 -20 -20 -20 -20 -20 -20 -20 -20 -20 -20 -20 -20 -20 -20 -20 -20 -20 -6 2 5 1 3 -5 -20 13 22 23 7 15 4 3 -2
-13 -17 7 -1 4 4 -20 -20 -20 -20 -20 -20 -20 -20 -20 -20 -20 -20 -20 -20 -20 -20 -20 -20 -20 -20 -20 -20 -20 -20 -18 -0 4 -20 -13 -13 -18 -6 -0 -1 29 -4 -16 -4
3 -19 -19 -15 -20 -19 -20 -20 -20 -20 -20 -20 -20 -20 -20 -20 -20 -20 -20 -20 -20 -20 -20 -20 -20 -20 -20 -20 -20 -20 -18 -9 6 1 1 1 -20 -20 -20 1 19 -15 -19 -20
-14 2 -16 -7 -18 -20 -20 -20 -20 -20 -20 -20 -20 -20 -20 -20 -20 -20 -20 -20 -20 -20 -20 -20 -20 -20 -20 -20 -20 -20 -20 -17 3 4 -20 -20 1 -20 -20 -7 -9 -20 -20 -20
-20 -20 7 14 2 3 -19 -20 -20 -20 -20 -20 -20 -20 -20 -20 -20 -20 -20 -20 -20 -20 -20 -20 -20 -20 -20 -20 -20 -20 -20 -20 -20 -18 -19 -19 -7 1 -20 -20 -20 -20 -20 -20
-14 -11 -15 2 13 -7 -20 -20 -20 -20 -20 -20 -20 -20 -20 -20 -20 -20 -20 -20 -20 -20 -20 -20 -20 -20 -20 -20 -20 -20 -20 -20 -20 -20 -20 -20 -20 -20 -20 -20 -20 -20 -20 -20
-3 1 -2 -20 -20 -20 -20 -20 -20 -20 -20 -20 -20 -20 -20 -20 -20 -20 -20 -20 -20 -20 -20 -20 -20 -20 -20 -20 -20 -20 -20 -20 -20 -20 -20 -20 -20 -20 -20 -20 -20 -20 -20 -20
-10 -4 -8 -20 -20 -20 -20 -20 -1 2 8 -20 -20 -20 -20 -18 -20 -20 -20 -20 -20 -20 -20 -20 -20 -20 -20 -20 -20 -20 -20 -20 -20 -20 -20 -20 -20 -20 -20 -20 -20 -20 -20 -20
1 -15 -3 -20 -20 -20 -20 -20 -20 -20 -20 -3 -12 -20 -20 -4 -6 -20 -20 -20 -20 -20 -20 -20 -20 -20 -20 -20 -20 -20 -20 -20 -20 -20 -20 -20 -20 -20 -20 -20 -20 -20 -20 -20
0 11 -20 4 -14 -20 -20 -20 -20 -20 -20 -20 -20 -20 -20 0 -8 -4 -20 -20 -20 -20 -20 -12 -20 -20 -20 -20 -20 -20 -20 -20 -20 -20 -20 -20 -20 -20 -20 -20 -20 -20 -20 -20
13 2 -20 -20 -20 -20 -20 -20 -20 -20 -20 -20 -20 -20 -20 -20 -15 -20 -17 1 -17 -20 -20 -20 -20 -20 -20 -20 -20 -20 -20 -20 -20 -20 -20 -20 -20 -9 -20 -20 -20 -20 -20 -20
-20 -4 8 -18 -20 -20 -20 -20 -20 -20 -20 -20 -20 -20 -20 -20 -20 -20 -20 -20 -5 -9 -20 -20 -20 -20 -20 -20 -20 -20 -20 -20 -20 -20 -20 -20 -20 -20 -20 -20 -20 -20 -20 -20
-18 -7 -20 -13 -20 -20 -20 -20 -20 -20 -20 -20 -20 -20 -20 -20 -20 -20 -20 -20 -20 -20 -13 -14 -20 -20 -20 -20 -20 -20 -20 -20 -20 -20 -20 -20 -20 -20 -20 -20 -20 -20 -20 -20
-20 -11 0 -20 -20 -20 -20 -20 -20 -20 -20 -20 -20 -20 -20 -20 -20 -20 -20 -20 -20 -20 -20 -15 5 -3 -14 -20 -10 -10 -20 -20 -20 -20 -20 -20 -20 -20 -20 -20 -20 -20 -20 -20
-20 -20 -16 5 -13 -20 -20 -20 -20 -20 -20 -20 -20 -20 -20 -20 -20 -20 -20 -20 -20 -20 -20 -20 -20 -19 -15 -12 1 -14 -20 -20 -20 -20 -20 -20 -20 -20 -20 -20 -20 -20 -20 -20
-20 -20 11 18 -5 -20 -20 -20 -20 -20 -20 -20 -20 -20 -20 -20 -20 -20 -20 -20 -20 -20 -20 -20 -20 -20 -20 -20 -20 -20 -19 -20 -20 -20 -20 -20 -20 -20 -20 -20 -20 -20 -20 -20
2 8 -14 6 6 -20 -20 -20 -20 -20 -20 -20 -20 -20 -20 -20 -20 -20 -20 -20 -20 -20 -20 -20 -20 -20 -20 -20 -20 -20 -20 -20 -20 -20 -20 -20 -20 -20 -20 -20 -20 -20 29 -20
4 4 9 10 11 6 -20 -20 -16 -9 -20 -20 -20 -20 -20 -20 -20 -20 -20 -20 -20 -20 -20 -20 -20 -20 -20 -20 -9 -20 -20 -19 -19 -20 -20 -20 -20 -20 -20 -20 -20 -20 19 9
15 -19 6 -17 6 -20 -20 -20 -20 -20 -20 -20 -20 -20 -20 -20 -20 -20 -20 -20 -20 -20 -20 -20 -20 -20 -20 -20 -20 -8 -20 -20 -20 -20 -20 -20 0 -10 3 26 26 24 12 -20
-20 -20 10 5 -20 -20 -20 -20 -20 -20 -20 -20 -20 -20 -20 -20 -20 -20 -20 -20 -20 -20 -20 -20 -20 -20 -14 14 17 9 18 11 17 27 8 15 19 25 5 1 -3 -17 7 3
-16 -20 -20 -20 -20 -10 -20 -20 -20 -20 -20 -20 -20 -20 -20 -20 -20 -20 -20 -20 -20 -20 -20 -8 -18 20 12 10 12 13 19 19 -4 6 21 22 15 -5 -20 -19 -11 -11 8 25
-20 -20 -16 5 -20 -20 -9 -20 -20 -20 -20 -20 -20 -20 -20 -20 -20 -20 -20 -20 -12 12 -4 -20 -11 -5 28 28 6 19 7 1 14 17 -17 -3 -20 -20 -11 -1 9 18 11 8

GFSCGP_prec_radar_063.txt.gz
Reflectivity
-3 -20 -20 -20 11 15 -2 -20 -20 -20 -20 -20 -20 -20 -20 -20 -20 -20 -20 -20 -20 -20 -20 -20 -20 -20 -20 -20 4 6 3 -11 -12 8 5 9 13 11 18 21 17 1 17 22
25 -15 -20 2 12 9 -4 -20 -20 -20 -20 -20 -20 -20 -20 -20 -20 -20 -20 -20 -20 -20 -20 -20 -20 -20 -20 -20 -17 2 -20 -20 -5 -20 -19 -8 -2 12 20 27 18 10 13 11
16 4 5 -2 -17 -20 -20 -20 -20 -20 -9 -20 -20 -20 -20 -20 -20 -20 -20 -20 -20 -20 -20 -20 -20 -20 -20 -20 -20 -7 5 -19 4 31 -2 21 13 17 12 16 25 -9 11 21
18 23 15 1 -20 -1 -19 -20 -20 -20 -20 -20 -20 -20 -20 -20 -20 -20 -20 -20 -20 -20 -20 -20 -20 -20 -20 -20 -20 3 9 -10 -20 -3 1 -2 -16 5 -11 7 23 27 19 13
17 10 3 0 -19 15 -18 10 -20 -20 -20 -20 -20 -20 -20 -20 -20 -20 -20 -20 -20 -20 -20 -20 -20 -20 -20 -20 -20 -20 -13 5 4 0 -14 -20 -20 2 8 6 -6 5 16 18
-15 8 8 11 14 16 -13 -0 -20 -20 -20 -20 -20 -20 -20 -20 -20 -20 -20 -20 -20 -20 -20 -20 -20 -20 -20 -20 -20 -20 -20 0 8 3 -13 -8 -20 -20 5 24 13 3 -3 -4
14 -5 -8 1 5 9 1 -20 -4 -18 -20 -20 -20 -20 -20 -0 -20 -20 -20 -20 -20 -20 -20 -20 -20 -20 -20 -20 -20 -20 -20 -19 -2 1 -0 -6 -15 -20 -20 -16 -20 -16 -12 13
6 12 16 -2 1 9 -2 -20 -19 -20 -20 -20 -20 -20 -20 -14 -20 -20 -20 -20 -20 -20 -20 -20 -20 -20 -20 -20 -20 -20 -20 -20 -20 3 -6 -0 -18 8 -19 -20 -9 -3 4 2
-7 -1 18 13 2 0 -7 -15 -16 4 -17 -20 -11 -20 -20 -20 -20 -20 -20 -20 -20 -20 -20 -20 -20 -20 -20 -20 -20 -20 -20 -20 -20 -20 1 -4 -2 3 -20 -20 -19 -17 -20 -20
-12 -20 -2 9 7 -7 10 6 -20 0 -19 2 -2 6 -20 -20 -20 -20 -20 -20 -20 -20 -20 -20 -20 -20 -20 -20 -20 -20 -20 -20 -20 -20 -2 5 -4 6 -14 -20 -20 -20 -20 -2
9 -10 2 -1 0 -20 -8 5 -17 -17 -19 -16 -12 -13 -16 -17 -5 -19 -20 -20 -20 -20 -20 -20 -20 -20 -20 -20 -20 -20 -20 -20 -20 -20 -20 -9 -19 -5 6 -16 6 -20 -20 -20
-12 -10 -20 -16 1 8 -5 6 8 1 12 -20 -4 5 1 -17 -1 -20 -20 -20 -20 -20 -20 -20 -20 -20 -20 -20 -20 -20 -20 -20 -20 -20 -20 -20 -20 -1 -12 -20 -19 -20 -20 -20
-20 -20 6 14 16 -4 2 6 -0 -10 -2 10 18 -14 12 5 -3 3 -20 -20 -19 -20 -20 -20 -20 -20 -20 -20 -20 -20 -20 -20 -20 -20 -20 -20 -20 -20 -20 -20 -20 -20 -20 -20
-20 5 -12 4 1 9 -17 11 8 -6 11 -12 9 -8 14 8 -7 -2 6 -20 -20 -20 -20 -20 -20 -20 -20 -20 -20 -20 -20 -20 -20 -20 -20 -20 -20 -20 -20 -20 -20 -20 -20 -20
6 13 1 -14 -16 -20 9 -4 2 7 -2 17 4 10 -14 -8 -20 0 13 -8 -20 -20 -4 -17 -19 -16 -20 -20 -20 -20 -20 -20 -20 -20 -20 -20 -20 -20 -20 -20 -20 -20 -20 -20
8 -3 34 -14 -20 -20 -20 -10 -18 -5 2 14 7 4 2 6 -20 -20 -20 -20 -20 -20 -20 -7 -20 -20 -20 -20 -20 -20 -20 -20 -20 -20 -20 -20 -20 -20 -20 -20 -20 -20 -20 -20
-14 13 26 15 -1 -20 -19 -20 4 -4 -15 -20 -2 -2 9 -20 -20 -20 0 -20 -20 -20 -20 -20 -20 -20 -20 -20 -20 -20 -20 -20 -20 -20 -20 -20 -20 -20 -20 -20 -20 -20 -20 -20
1 -9 -6 10 20 10 -14 -18 -20 -19 -8 -13 6 -11 -15 -20 -20 -20 -20 -20 -20 -20 -20 -20 -20 -20 -20 -20 -20 -20 -20 -20 -20 -20 -20 -20 -20 -20 -20 -20 -20 -20 -20 -20
-20 -5 17 6 -19 -17 -18 -20 -11 -20 -3 -20 -12 -20 -20 -20 -20 -20 -20 -20 -20 -20 -20 -20 -20 -20 -20 -20 -20 -20 -20 -20 -20 -20 -20 -20 -20 -20 -20 -20 -20 -20 -20 -20
-20 -20 3 8 -20 -4 -20 -20 -20 -20 6 8 -20 -20 -20 -20 -20 -20 17 -20 -20 -20 -20 -20 -20 -20 -20 -20 -20 -20 -18 2 -11 -20 -20 -20 -20 -20 -20 -20 -20 -20 -20 -20
-1 3 -6 -1 -9 -19 -0 -13 -20 -20 9 -20 -20 -20 -20 -20 -20 -20 -20 -20 -20 -20 -20 -20 -20 -20 -20 -20 -20 -20 -20 -20 -20 -20 -18 -16 -20 -20 -20 -20 -20 -20 -20 -20
-8 5 4 -15 0 1 -20 -20 -14 -4 -20 -20 -20 -20 -20 -20 -20 -20 -20 -20 -20 -20 -20 -20 -20 -20 -20 -20 -10 -20 -20 -20 -20 -20 -20 -20 -15 -20 -20 -12 -4 -20 -20 -20
6 -19 -17 -20 -18 -20 -20 -15 -15 -20 -20 -20 -20 -20 -20 -20 -20 -20 -20 -20 -20 -20 -20 -20 -20 -20 -20 -20 -5 11 -0 6 8 -17 -20 -20 -20 -20 5 7 -11 -6 -1 20
24 7 17 -11 -7 25 26 -20 -20 -20 -20 -20 -20 -20 -20 -20 -20 -20 -20 -20 -20 -20 -20 -20 -20 -20 -20 -20 -19 15 20 23 17 25 24 10 9 6 5 8 11 13 25 23
16 -14 -18 6 22 -20 -20 -20 -20 -20 -20 -20 -20 -20 -20 -20 -20 -20 -20 -20 -20 -20 -20 -20 -20 -20 -20 -20 -20 9 25 25 28 26 28 29 18 12 20 25 21 17 25 27
-19 2 2 21 13 11 -11 -20 -20 -20 -20 -20 -20 -20 -20 -20 -20 -20 -20 -20 -20 -20 -20 -20 -20 -20 -20 -20 -20 -3 28 42 29 22 17 14 16 29 17 23 24 18 13 10

GFSCGP_prec_radar_066.txt.gz
Reflectivity
-15 -9 -20 -20 -20 -0 -19 -16 -16 -17 -11 -20 -20 -20 -20 -20 -20 -20 -20 -20 -20 -20 -20 -20 -20 -20 -20 -20 -18 2 5 10 -20 -20 3 -20 -3 22 17 16 1 16 3 -18
-20 11 -19 19 12 -3 -9 10 4 -2 9 -5 -20 -20 -20 -20 -20 -20 -20 -20 -20 -20 -20 -20 -20 -20 -20 -20 -14 -20 -2 -20 -20 -20 -18 -13 -8 1 17 21 -1 2 9 9
-3 -14 15 22 6 -11 -20 -20 -2 -18 -19 -16 -20 -20 -20 -20 -20 -20 -20 -20 -20 -20 -20 -20 -20 -20 -20 -20 -20 -11 4 4 -20 -14 13 -5 -19 8 13 3 4 -20 -20 -12
12 -2 23 -7 5 -20 -2 -15 10 -20 -20 -20 -20 -20 -20 -20 -20 -20 -20 -20 -20 -20 -20 -20 -20 -20 -20 -20 -20 -20 -20 6 -19 -20 -9 -10 -20 -19 -20 -10 -19 1 -2 9
16 8 28 12 1 4 -19 21 14 4 -20 -20 -20 -20 -20 -20 -20 -20 -20 -20 -20 -20 -20 -20 -20 -20 -20 -20 -20 -20 -20 -8 -4 -20 -20 -20 -20 -20 -20 -20 -20 -13 -4 -1
11 16 34 14 18 20 -1 24 -2 -20 -20 -20 -20 -20 -20 -20 -20 -20 -20 -20 -20 -20 -20 -20 -20 -20 -20 -20 -20 -20 -20 -13 6 -18 -20 -20 -20 -20 -20 -20 -20 -20 -19 -9
6 4 -15 -18 -3 3 15 28 17 -12 -20 -20 -19 -20 -20 -12 -19 -16 -20 -20 -20 -20 -20 -20 -20 -20 -20 -20 -20 -20 -20 -19 -17 7 -20 -20 -20 -20 -20 -20 -20 -9 -17 -19
-20 8 7 -20 -20 7 10 11 4 7 -15 -20 -20 -20 -20 -20 3 -20 -20 -20 -20 -20 -20 -20 -20 -20 -20 -20 -20 -20 -20 -20 -8 -20 -20 -20 -20 -20 -20 -20 -20 -11 -14 20
-20 8 13 14 1 21 22 29 6 25 14 7 -20 -20 -20 -20 -20 -20 -20 -20 -20 -20 -20 -20 -20 -20 -20 -20 -20 -20 -20 -20 -20 -17 -14 4 -20 -20 -16 -20 -20 -17 8 16
-20 -18 10 -11 -3 4 15 10 22 18 -8 -13 -20 2 -20 -17 -20 -20 -20 -20 -20 -20 -20 -20 -20 -20 -20 -20 -20 -20 -20 -20 -20 -20 -20 -6 -7 -11 -15 -20 -20 -20 -20 -6
-20 -20 4 7 2 -17 13 10 17 1 -12 -3 -8 -12 4 15 -1 -7 -20 -20 -20 -20 -20 -20 -20 -20 -20 -20 -20 -20 -20 -20 -20 -20 -18 8 -0 -1 -6 -18 -20 -20 -20 -20
-18 -20 -20 6 19 23 16 11 12 26 9 -19 -19 4 -11 7 -10 -20 2 11 -16 5 -20 -20 -20 -20 -20 -20 -20 -20 -20 -20 -20 -20 -20 -20 -0 7 -3 -5 -20 -20 -20 -20
-20 -20 -20 -20 -17 -19 -2 -1 15 17 25 -2 7 -20 -15 -16 7 -8 -10 -20 -20 -17 -20 -20 -20 -20 -20 -20 -20 -20 -20 -20 -20 -20 -20 -20 -20 -10 -19 1 -20 -20 -20 -20
-7 -17 -18 -20 9 26 14 15 11 7 31 16 22 8 33 10 8 -11 -20 1 -2 -20 -20 -19 -16 -20 -20 -20 -20 -20 -20 -20 -20 -20 -20 -20 -20 -20 -20 -20 -10 -20 -20 -20
16 3 7 -20 -14 3 -10 -5 14 30 23 -2 -1 5 21 25 1 -8 -20 -20 -3 -20 -20 -20 -20 -20 -20 16 -20 -20 -20 -20 -20 -20 -20 -20 -20 -20 -20 -20 -20 -20 -20 -20
3 18 -20 -20 -7 12 -1 10 10 6 1 -3 9 21 25 31 14 9 -20 -20 -20 -20 -20 -18 -19 -20 -20 -20 -20 -20 -20 -20 -20 -20 -20 -20 -20 -20 -20 -20 -20 -20 -20 -20
3 -12 -11 -6 7 -18 -18 -8 7 10 21 18 17 24 7 21 17 3 -20 -20 -20 -20 -20 -20 -20 -14 -11 -20 -20 -20 -20 -20 -20 -20 -20 -20 -20 -20 -20 -20 -20 -20 -20 -20
2 -14 27 -1 27 3 -20 -9 -14 -20 2 3 3 3 -20 19 -6 14 -20 -20 -12 -20 -13 -19 -20 -20 -20 -20 -20 -19 1 -4 -20 -20 -20 -20 -20 -20 -20 -20 -20 -20 -20 -20
-20 4 10 22 14 17 -19 -20 4 -14 5 15 35 6 -19 -2 17 2 -20 -20 -19 -20 -20 -8 -20 -20 -20 -20 -20 -20 -20 -20 -20 -20 -20 -20 -20 -20 -20 -20 -20 -20 -20 -20
-20 -19 4 8 16 7 -20 4 7 5 16 -5 7 -20 -20 -6 -2 -17 -20 -20 -20 -20 -20 -20 -20 -20 -20 -20 -20 -20 -20 -20 -20 -20 -20 -20 -20 -20 -20 -20 -20 -20 -20 -20
-4 12 -2 10 11 -5 -20 1 -20 9 -18 -20 -20 -20 4 -4 -16 -16 -20 -20 -20 -20 -20 -20 -20 -20 -20 -20 -20 -20 -20 -20 -20 -20 -20 -20 -20 -20 -20 -20 2 -20 -20 -20
-20 14 13 -1 1 11 17 4 1 -15 -20 -20 -20 -20 -20 -20 -15 -18 -20 -20 -20 -20 -20 -20 -20 -20 -20 -20 -20 -20 -20 -20 -20 -20 -20 -20 -20 -20 22 -1 5 -2 -20 17
18 -18 -17 -20 -20 25 -20 -20 -6 -20 -20 -20 -20 -20 -20 -20 -20 -20 -20 -20 -20 -20 -20 -20 -20 -20 -20 -20 -20 -20 -20 -20 -20 -20 -10 2 -12 -20 -16 22 23 24 -12 10
18 -15 -18 -13 -20 3 25 -20 -20 -20 -20 -20 -20 -20 -20 -20 -20 -20 -20 -20 -20 -20 -20 -20 -20 -20 -20 -20 -20 -20 -20 -20 -20 -20 -7 13 13 16 8 -5 0 9 9 22
33 13 -2 21 28 28 28 4 -0 -20 -20 -20 -20 -20 -20 -20 -20 -20 -20 -20 -20 -20 -20 -20 -20 -20 -20 -20 -20 -20 -20 -20 -20 -20 -11 18 16 16 19 17 11 11 22 28
16 14 26 9 38 46 26 -3 -20 -20 -20 -20 -20 -20 -20 -20 -20 -20 -20 -20 -20 -20 -20 -20 -20 -20 -20 -20 -20 -20 -20 -19 -20 -18 3 24 35 32 30 29 27 23 25 31

GFSCGP_prec_radar_069.txt.gz
Reflectivity
-20 -20 -20 -20 -9 -14 -10 -13 -20 -13 8 2 -20 -20 -20 -19 -20 -20 -20 -20 -20 -20 -20 -20 -20 -20 -20 -20 -20 -20 -15 -4 2 -20 -20 -0 -17 -11 -4 -12 19 25 16 9
-20 -20 -20 -20 2 5 -9 -13 -20 -20 7 -19 -20 -16 -13 -20 -20 -20 -20 -20 -20 -20 -20 -20 -20 -20 -20 -20 -20 -20 -16 6 13 -20 -20 -20 -19 9 -18 -12 -6 27 20 11
-20 -20 -20 -15 -16 -20 -17 -20 11 0 3 8 -20 5 -14 -19 -19 -20 -20 -20 -20 -20 -20 -20 -20 -20 -20 -20 -20 -20 -14 3 11 -20 -20 -5 -20 -9 8 -14 7 12 16 16
-20 -20 1 -20 -20 -20 -19 -20 5 -19 -3 -2 -20 -19 -20 -20 -20 -20 -20 -20 -20 -20 -20 -20 -20 -20 -20 -20 -20 -20 -20 -18 -7 -20 -20 -17 -20 -2 -2 -13 17 16 17 12
-20 -2 4 6 -20 8 -4 10 6 -20 -18 -20 -20 -20 -20 -20 -20 -20 -20 -20 -20 -20 -20 -20 -20 -20 -20 -20 -20 -20 -20 -20 -20 -20 -20 -20 -1 6 -11 -8 1 2 10 -20
-20 -20 -20 -20 -14 14 -18 -20 -19 -20 -20 -20 -20 -20 -20 -20 -20 -20 -20 -20 -20 -20 -20 -20 -20 -20 -20 -20 -20 -20 -20 -20 -20 -12 -0 -18 -20 -20 -20 -20 -20 -20 -19 -3
-20 -20 -20 -20 -11 0 -13 17 13 5 -20 -20 -1 -7 -11 -20 -20 -20 -12 -20 -20 -20 -20 -20 -20 -20 -20 -20 -20 -20 -20 -20 -20 5 -16 -16 -20 -20 -20 -20 -20 -20 -20 -19
-20 -20 -20 -20 -17 6 -13 0 -9 13 4 -20 16 0 -14 -20 -20 -20 5 -20 -20 -20 -20 -20 -20 -20 -20 -20 -20 -20 -20 -20 -20 -20 11 -11 -20 -20 -20 -20 -20 -20 -20 -13
-20 -20 -5 15 -20 5 -15 6 -10 29 -3 -20 -3 -20 -2 -20 -20 -20 -11 -20 -20 -20 -20 -20 -20 -20 -20 -20 -20 -20 -20 -20 -20 -20 -13 -20 -20 -20 -20 -20 -20 -20 -20 1
-20 -20 -20 -19 15 -1 -9 19 23 36 17 -18 2 -15 12 4 -9 -10 -15 -20 -20 -20 -20 -20 -20 -20 -20 -20 -20 -20 -20 -20 -20 -20 -20 -20 -20 -20 -20 -20 -20 -20 -20 -20
-20 -20 -20 -16 -6 -1 13 31 29 26 5 -5 -20 -9 27 1 13 17 6 -20 -20 -20 -20 -20 -20 -20 -20 -20 -20 -20 -20 -20 -20 -20 -20 -20 -20 -20 -20 -20 -20 -20 -20 -20
-20 -20 -20 -20 6 5 8 10 10 23 17 -0 10 -1 25 26 14 -19 -20 -20 -20 -20 -20 -20 -20 -20 -20 -20 -20 -20 -20 -20 -20 -20 -20 -20 -6 -3 -20 -20 -15 -20 -20 -20
-20 11 -14 -20 -19 -1 13 2 9 13 16 16 12 17 4 28 8 15 -1 -10 -20 -20 -20 -20 -20 -17 -20 -20 -20 -20 -20 -20 -20 -20 -20 -20 -20 -20 -20 -20 6 -17 -20 -20
-20 -20 -19 -11 -3 18 12 -0 23 27 30 18 16 20 29 27 26 10 -11 16 3 -18 -20 -20 -3 17 -9 3 5 -20 -20 -20 -20 -20 -20 -20 -20 -20 -20 -20 -20 4 -4 -13
-20 -20 -20 -15 -20 -13 18 22 20 31 20 23 4 13 22 24 16 26 13 -17 -10 1 -14 -20 -20 -11 -2 24 26 19 18 -8 16 -20 -20 -20 -20 -20 -20 -20 -20 -7 -5 -18
-20 -20 -14 -20 -20 -20 -20 10 -19 5 12 27 27 22 21 0 23 35 14 4 -20 -20 4 4 -20 -20 -20 -20 -20 21 -3 24 26 -19 14 -19 -20 -20 -20 -20 -20 -20 -16 -20
12 -20 -19 -20 -20 -20 -20 -20 -1 8 33 21 31 29 15 31 32 23 -20 -19 -19 -20 -20 -20 4 -18 -20 -18 -7 -20 -20 -20 -20 20 -10 -15 14 -5 -20 -20 -20 -20 -20 -20
-20 -14 -20 -20 -20 -20 -20 -20 -20 4 16 20 13 27 20 21 34 -2 -20 -20 -10 -19 -20 -20 -20 -2 -14 -20 -20 -20 -20 -20 -20 -20 -20 -20 22 17 -20 1 -20 -20 -20 -20
-20 -12 -20 -20 -10 -20 -20 -20 -20 23 24 4 15 19 25 17 30 -16 -20 -20 -20 -20 -20 -20 -20 -20 -20 -20 -20 -20 -20 -20 -20 -20 -20 -20 -20 16 16 16 -17 -20 -20 -20
-20 -20 -18 -19 -20 16 -20 8 17 -20 2 6 23 17 21 -6 11 -0 -20 -20 -20 -20 -20 -20 -20 -20 -18 -15 -20 -20 -20 -20 -20 -20 -20 -20 -20 -20 -9 18 22 -9 4 25
-8 -20 5 3 -3 -20 -8 -5 1 17 7 -1 25 23 14 -13 -5 -20 -20 -20 -20 -20 -20 -20 -20 -20 -20 -20 -20 -20 -20 -20 -20 -20 -20 -20 -20 -20 -20 -20 -20 21 22 25
11 -3 5 15 5 -20 -19 -14 7 12 2 -7 14 -7 -5 -20 -20 -20 -20 -20 -20 -20 -20 -20 -20 -20 -20 -20 -20 -20 -20 -20 -20 -20 -20 -20 -20 -20 -20 -20 -20 -11 17 -8
33 -13 -17 -20 -20 -20 -20 -20 17 11 -16 -16 -16 -20 -20 -20 -20 -20 -20 -20 -20 -20 -20 -20 -20 -20 -20 -20 -20 -20 -20 -20 -20 -20 -20 -20 -20 -20 -20 -20 -17 -10 9 20
-17 8 17 -5 -20 -15 26 -1 -20 -20 -20 -20 -20 -20 -20 -20 -20 -20 -20 -20 -20 -20 -20 -20 -20 -20 -20 -20 -20 -20 -20 -20 -20 -20 -20 -20 -20 -20 -20 -20 -14 -5 12 25
28 30 1 21 28 19 26 19 -20 -20 -20 -20 -20 -20 -20 -20 -20 -20 -20 -20 -20 -20 -20 -20 -20 -20 -20 -20 -20 -20 -20 -20 -20 -20 -20 -20 -20 -19 -18 -8 2 9 21 24
38 34 10 17 42 28 29 22 19 8 -8 -17 -15 -19 -20 -20 -20 -20 -20 -20 -20 -20 -20 -20 -20 -20 -18 -20 -20 -20 -20 -20 -20 -20 -18 -15 -20 -20 -18 -12 3 19 24 26

GFSCGP_prec_radar_072.txt.gz
Reflectivity
-20 -20 -20 -20 -20 -20 -20 -20 -20 -20 -3 15 -4 -20 -4 -9 -20 -20 -20 -20 -20 -20 -20 -20 -20 -20 -20 -20 -20 -20 -20 -20 -20 -20 2 -6 -20 -20 -20 -20 9 11 26 25
-20 -20 -20 -20 -20 -20 -20 -20 -20 -20 -12 4 -20 -20 -20 -16 -20 -20 -20 -20 -20 -20 -20 -20 -20 -20 -20 -20 -20 -20 -20 -20 -20 -20 -20 -1 -20 -20 -18 -20 -19 13 6 4
-20 -20 -20 -20 -20 -20 -20 -20 -20 -20 17 8 -19 -20 -20 -20 -20 -20 -20 -20 -20 -20 -20 -20 -20 -20 -20 -20 -20 -20 -20 -20 -20 -20 -20 -20 6 -9 2 5 17 28 20 26
-20 -20 -20 -20 -20 -20 -20 -20 -19 -20 15 -16 -19 -20 -20 -20 -20 -20 -20 -20 -20 -20 -20 -20 -20 -20 -20 -20 -20 -20 -20 -20 -20 -20 -18 -20 -17 -14 -13 8 2 24 24 27
-20 -20 -20 -20 -20 -20 -20 4 -19 -20 -20 -20 -20 -20 -20 -20 -20 -20 -20 -20 -20 -20 -20 -20 -20 -20 -20 -20 -20 -20 -20 -20 -20 -20 -20 -20 -20 -20 12 -13 4 1 18 25
-20 -20 -20 -20 -20 14 -17 20 -10 -20 -20 -20 -20 -20 -20 -17 -2 -10 -20 -20 -20 -20 -20 -20 -20 -20 -20 -20 -20 -20 -20 -20 -20 -20 -20 -20 -20 -20 -8 -15 0 -19 5 18
-20 -20 -20 -20 -20 -3 -20 1 -3 12 -8 -20 -14 -20 -12 -14 2 -20 -20 -20 -20 -20 -20 -20 -20 -20 -20 -20 -20 -20 -20 -20 -20 -20 -13 -20 -20 -20 -20 -15 -16 -15 -4 12
-20 -20 -20 -20 -20 -8 -15 5 20 -11 5 -5 6 -18 11 17 12 7 -20 -20 -20 -20 -20 -20 -20 -20 -20 -20 -20 -20 -20 -20 -20 -20 -19 -20 -20 -20 -20 -20 -20 -20 -20 -20
-20 -20 -20 -20 -20 -7 17 12 10 -2 -18 -20 -4 9 15 25 -6 -8 -20 -20 -20 -20 -20 -20 -20 -20 -20 -20 -20 -20 -20 -20 -20 -20 -20 -20 -17 -20 -20 -20 -20 -20 -20 -20
-20 -20 -20 -20 -19 14 -1 9 -2 13 -0 -9 -18 3 9 2 -20 -16 -20 -20 -20 -20 -20 -20 -20 -20 -20 -20 -20 -20 -20 -20 -20 -20 -20 -20 -9 3 -20 -20 -20 -20 -20 -20
-20 -20 -20 -20 -18 -10 16 4 20 1 11 2 4 18 -6 17 23 13 -20 -20 -20 -20 -20 -20 -20 -20 -20 -20 -20 -20 -20 -20 -20 -20 -20 -20 -20 -3 -4 -18 -20 -20 -20 -20
-20 -20 -20 -20 -20 -20 -20 -8 18 24 -7 9 14 22 12 36 -2 2 -12 -20 -20 -20 -20 -20 -20 -20 -20 -20 -20 -20 -20 -20 -20 -20 -20 -20 -20 -20 3 -13 -19 -20 -20 -20
-20 -20 -20 -20 -20 -18 -17 14 -4 18 21 25 16 10 31 37 21 8 15 -7 -20 -20 -20 -20 -20 -20 -20 -20 -20 -20 -20 -20 -20 -20 -20 -20 -20 -20 -20 -20 -13 -20 -20 -18
-20 -20 -20 -20 -12 -19 14 3 -4 4 27 -20 -9 6 38 39 21 -11 14 15 -20 -20 15 -20 -0 22 -20 -10 2 -4 -20 -20 -20 -20 -20 -20 -20 -20 -20 -20 -20 -20 -6 -5
-20 -20 -20 -20 -20 -20 -20 -20 -15 15 -20 3 -20 12 22 39 37 19 19 17 -15 -20 -20 -6 22 23 20 23 21 24 11 12 6 -1 -16 11 -20 -20 -15 -14 -20 -20 -20 -20
-20 -20 -20 -20 -20 -20 -20 -20 9 32 17 -6 -15 -1 29 33 29 38 22 6 7 -20 -20 -19 10 -20 -20 -20 7 7 23 10 -14 -8 -8 -20 -20 -20 -20 -20 -20 -20 -20 -20
1 -20 -20 -20 -20 -20 -20 0 -14 12 19 -17 21 6 29 26 19 14 34 27 11 0 4 -10 24 7 -19 -20 -20 -20 -20 -20 -20 -12 -13 -20 -20 -13 -20 -20 -20 -20 -7 -12
-20 -11 -12 -20 -20 -20 -20 6 -20 -14 8 23 9 25 32 12 29 30 18 27 30 22 6 1 11 1 -15 -20 -20 -20 -20 -20 -20 -20 -20 -20 -20 -20 -20 -20 12 8 11 -20
-20 -20 -20 -20 -19 -20 -17 -19 -17 16 17 15 25 14 17 5 27 15 -15 13 13 11 9 -13 -18 -20 -20 -20 -20 -20 -20 -20 -20 -20 -20 -20 -20 -20 -20 -20 -20 -20 -17 -9
-20 -20 -20 -18 -6 -20 -1 -20 -20 -15 3 34 5 16 12 40 17 27 22 4 13 11 -1 -18 -20 -20 -20 -20 -20 -20 -20 -20 -20 -20 -20 -20 -20 -20 -20 -20 -20 -20 -20 -20
-20 -20 -18 -20 4 -20 -20 -17 15 -5 16 19 18 14 0 -17 4 19 21 0 -20 -19 -20 -20 -20 -20 -20 -20 -20 -20 -20 -20 -20 -20 -20 -20 -20 -20 -20 -6 -19 -20 -20 -20
-20 -20 -20 -10 9 -3 -20 -7 -9 28 10 23 11 -4 18 16 24 1 0 5 3 -1 -19 -20 -20 -20 -20 -20 -20 -20 -20 -20 -20 -20 -20 -20 -20 -20 -20 -20 2 -14 0 0
-19 11 7 -20 -20 4 -20 -20 -20 -13 14 39 25 6 15 26 30 -14 -20 -20 -20 -20 -20 -20 -20 -20 -20 -20 -20 -20 -20 -20 -20 -20 -20 -20 -20 -20 -20 -20 -20 -20 -18 4
20 18 35 11 -14 -12 -20 17 5 -20 -20 26 28 7 6 4 -18 -20 -20 -20 -20 -20 -20 -20 -20 -20 -20 -20 -20 -20 -18 -20 -20 -20 -20 -20 -20 -20 -20 -20 -20 -20 -20 -20
-2 -10 9 21 16 -19 -20 18 9 15 18 14 -5 -20 -20 -20 -20 -20 -20 -20 -20 -20 -20 -20 -20 -20 -20 -20 -20 -20 -20 -20 -20 -20 -18 -20 -20 -20 -20 -18 -16 -18 -11 -16
26 9 28 18 27 28 6 -6 15 28 17 1 -20 -20 -20 -20 -20 -20 -20 -20 -20 -20 -20 -20 -20 -20 -20 -20 -20 -20 -20 -20 -20 -20 -20 -20 -20 -20 -20 -20 -20 -16 -14 -19

GFSCGP_prec_radar_075.txt.gz
Reflectivity
-20 -20 -20 -20 -20 -20 -20 -20 -20 -20 -20 -20 -20 -20 -20 -20 -20 -20 -20 -20 -20 -20 -20 -20 -20 -20 -20 -20 -20 -20 -20 -20 -20 -20 -20 1 -20 14 12 18 20 32 32 33
-20 -20 -20 -20 -20 -20 -20 -20 -20 -20 -20 -20 -20 -20 -20 -20 -20 -20 -20 -20 -20 -20 -20 -20 -20 -20 -20 -20 -20 -20 -20 -20 -20 -20 -20 -20 -2 17 7 15 25 37 36 36
-20 -20 -20 -20 -20 -20 -20 -20 -20 -20 -20 -20 -20 -20 -20 -20 -20 -20 -20 -20 -4 -18 -20 -20 -20 -20 -20 -20 -20 -20 -20 -20 -20 -20 -20 -20 -20 10 16 -20 -20 21 17 25
-20 -20 -20 -20 -20 -20 -20 -20 -20 -20 -20 -20 -20 -20 -20 -20 -20 -20 -20 -20 -20 -20 -20 -20 -20 -20 -20 -20 -20 -20 -20 -20 -20 -20 -20 -20 -20 -20 -1 -12 5 6 19 22
-20 -20 -20 -20 -20 -20 -17 -20 -20 -20 -20 7 -20 -20 -20 -20 -20 -20 -20 -20 -2 -20 -20 -20 -20 -20 -20 -20 -20 -20 -20 -20 -20 -20 -20 -20 -20 -20 -20 -18 -1 10 21 20
-20 -20 -20 -20 -20 -20 -20 -13 -20 -20 1 14 -20 -20 -20 -20 -20 -20 8 -20 -15 -20 -20 -20 -20 -20 -20 -20 -20 5 -11 -15 -20 -20 -20 -20 -20 -20 -20 -20 -20 -20 29 30
-20 -20 -20 -20 -20 -20 2 6 5 4 13 -10 -20 -20 -20 -20 -20 -15 4 1 -20 -20 -20 -20 -20 -20 -20 -20 -20 -20 -20 -1 -20 -20 -20 -20 -20 -20 -20 -20 -20 -20 7 7
-20 -20 -20 -20 -20 -20 -17 -20 -18 -18 -18 -20 -20 -20 -20 -20 -13 0 -20 -20 -20 -20 -20 -20 -20 -20 -20 -20 -20 -20 -20 -20 -20 -20 -20 -20 -20 -20 -20 -0 -19 -20 -20 -20
-20 -20 -20 -20 -20 -20 14 15 -2 28 20 -20 -20 -20 -17 -20 -0 13 -20 -20 -20 -20 -20 -20 -20 -20 -20 -20 -20 -20 -20 -20 -20 -20 -20 -20 -20 -20 -20 -20 3 -9 -11 -20
-20 -20 -20 -20 -20 -20 -16 -6 4 28 -17 -20 -20 -11 -14 -2 -20 -20 -20 -20 -20 -20 -1 -20 -20 -20 -20 -20 -20 -20 -20 -20 -20 -2 1 -20 -20 -20 -20 -20 -20 -18 -16 -3
-20 -20 -20 -20 -20 -20 5 15 11 -7 -8 -0 1 13 -12 -20 -20 -20 -20 -20 -20 -20 -4 3 -20 -20 -20 -20 -20 -20 -20 -20 -20 2 -8 -5 -20 -20 -20 -20 -20 -20 -20 -20
-20 -20 -20 -20 -20 -20 6 -20 17 19 -6 -20 14 9 1 -20 -20 -20 -20 -20 -20 -20 -19 -19 -20 -20 -20 -20 -20 -20 -5 -20 -20 -20 -20 9 -20 -20 -20 -20 -20 -20 -20 -20
5 -20 -20 -20 -20 -20 10 5 -14 13 -12 19 14 17 13 -19 -16 -16 5 -14 -20 -20 -20 -20 -20 -20 -20 -20 19 21 -20 -20 -20 -20 -20 -11 -20 -20 -20 -20 -20 -20 -20 -20
-20 -20 -20 -20 -7 9 14 -4 6 17 20 -4 -5 14 32 36 18 25 -6 -13 20 -20 -20 -20 -20 -20 -20 -20 -14 23 20 11 1 -1 -9 -6 -20 -20 -20 -20 -20 -20 -20 -20
-20 -20 -20 -20 -20 -20 -20 -20 -7 13 26 18 -9 10 18 28 36 35 30 -15 -20 -11 17 13 15 14 -10 20 -2 22 17 8 -20 -14 -20 -20 10 -20 -20 -20 -20 -20 -20 -20
-20 -20 -20 -20 -20 -20 -20 -20 -20 -20 -20 -4 -4 -9 14 28 28 35 37 28 -14 -20 -20 -20 3 -14 20 -7 30 27 23 13 8 10 9 3 -1 -20 11 -11 -20 -20 -0 -20
-20 -20 -20 -20 -20 -20 -20 -20 -20 -20 -20 -7 -17 -20 15 15 22 35 37 33 31 30 -20 -20 -20 -6 -20 -20 -19 -19 -16 -14 -20 -8 4 9 -7 -20 -20 -20 -20 -14 -13 -20
-20 -20 -20 -20 -20 -20 -20 -20 -12 -20 8 -13 -20 -10 20 23 12 28 34 34 36 19 11 28 -1 -20 1 -20 -20 -20 -20 -20 -20 -20 -20 -20 -20 -19 -11 -17 -20 -19 2 11
-20 -20 -20 -20 -20 -20 -20 -20 -20 3 -3 -20 -1 5 15 24 21 24 28 29 32 35 38 29 6 11 1 -8 -20 -20 -20 -20 -20 -20 -20 -20 -20 -20 -20 -20 -20 -20 -20 -20
-20 -20 -20 -20 -20 -20 -20 -20 -20 -20 -11 -19 -1 25 35 29 19 31 36 30 6 11 17 5 23 18 8 -15 -18 -20 -20 -20 -20 -20 -20 -20 -20 -20 -20 -20 -20 -20 -20 -20
-20 -20 -20 -20 -9 -20 -20 -20 -20 -20 10 -20 1 31 35 26 27 36 34 32 22 0 -20 -17 -2 3 -7 -19 -20 -20 -20 -20 -20 -20 -20 -20 -20 -20 -20 -20 -20 -20 -20 -19
2 -20 -20 -20 3 -18 -20 -20 -14 -20 -20 -18 25 9 -3 9 29 -4 -0 9 -7 2 2 -3 -20 -20 -20 -20 -20 -20 -20 -20 -20 -20 -20 -20 -20 -20 -20 -20 -20 -20 -20 -20
-19 -17 2 -20 -20 -20 -16 -20 -20 -20 -20 2 36 39 42 30 24 38 15 19 8 -7 -20 -20 -20 -20 -20 -20 -20 -20 -20 -20 -20 -20 -20 -20 -20 -20 -20 -20 -20 -20 -20 -20
12 -20 -19 21 -1 -20 -20 -20 -20 5 -11 -14 33 39 39 38 32 16 15 3 -20 -17 -11 -20 -20 -20 -20 -20 -20 -20 -20 -20 -20 -20 -20 -20 -20 -18 -20 -20 -20 -20 -20 -20
8 -20 -3 1 20 -20 -20 -11 -16 33 -1 -9 1 26 2 5 1 3 2 -20 -20 -20 -20 -20 -20 -20 -20 -20 -20 -20 -20 -20 -20 -20 -20 -15 -20 -20 -20 -19 -17 -18 -16 -19
9 -6 -1 1 26 10 0 -9 -8 36 17 23 -4 -16 7 -7 -20 -20 -20 -20 -20 -20 -20 -20 -20 -20 -20 -20 -20 -20 -20 -13 -20 -20 -20 -20 -20 -20 -20 -20 -19 -6 1 -15

GFSCGP_prec_radar_078.txt.gz
Reflectivity
-20 -20 -20 -20 -20 -20 -20 -20 -20 -20 -20 -20 -20 -20 -20 -20 -20 -20 -20 -20 -20 -20 -20 -20 -20 -13 -20 -20 -20 -20 -3 -20 -20 13 -20 -7 3 5 3 -9 9 22 25 12
-20 -20 -20 -20 -20 -20 -20 -20 -20 -20 -20 -20 -20 -20 -20 -20 -20 -20 -20 -20 -20 -20 -20 -20 -20 -20 -20 -20 -20 -20 -20 14 6 -20 -19 -20 9 -19 -16 5 2 24 32 31
-20 -20 -20 -20 -20 -20 -20 -20 -20 -20 -20 -20 -20 -20 -20 -20 -20 -20 -20 -20 -20 -20 -20 -20 -20 -20 -20 -20 -20 -20 -20 10 -20 -20 3 -20 -20 8 11 4 -6 25 37 39
-20 -20 -20 -20 -20 -20 -20 -20 -20 -20 -0 -20 -20 -13 -20 -20 -20 -20 -20 -20 -20 -20 -20 -20 -20 -20 -20 -20 -20 -20 -20 -8 -20 -20 -20 -20 -20 -10 -2 19 8 -11 27 33
-20 -20 -20 -20 -20 -20 -20 -20 -20 -20 -20 -14 -20 -5 -20 -20 -20 -20 -20 -20 -20 -20 -20 -20 -19 -2 -20 -20 -20 -20 -20 -20 -19 -2 -19 -20 -20 -20 9 10 21 18 -8 8
-20 -20 -20 -20 -20 -20 -20 -20 -20 -20 -20 2 -20 -20 -20 -18 -19 -20 -20 -20 -20 -20 -20 -20 -20 -7 -20 -20 -20 -20 -20 -20 4 8 -15 -20 -20 -20 -20 -19 2 13 15 21
-20 -20 -20 -20 -20 -20 -20 5 -20 3 6 -20 -20 -20 -16 6 -12 -20 -20 -20 -20 -20 -20 -20 -20 -20 -20 -20 -20 -20 -20 -20 -1 6 14 -20 -20 -20 -20 -20 -20 -17 2 6
-20 -20 -20 -20 -20 -20 -20 -8 -20 -20 2 -20 -20 -20 -2 10 -20 -20 -20 -20 -20 -20 -20 -17 -12 -20 -20 -20 -20 -20 7 -16 12 15 15 -20 -20 -20 -20 -20 -20 3 12 3
-20 -20 -20 -20 -20 -20 0 21 -17 11 -16 2 -20 -20 -20 3 -20 -20 -20 -20 -20 -20 -20 -11 -20 -20 -20 -20 -20 -20 9 3 7 7 12 0 -20 -20 -20 -20 -20 -20 -20 -6
-20 -20 -20 -20 -20 -20 -20 9 20 11 -9 -6 -20 -20 -15 -16 -18 -20 -20 -20 -20 -20 1 -18 -19 -20 -20 -20 -15 17 13 -15 -6 2 -4 9 -0 -20 -20 -20 -20 -20 -20 -20
-20 -20 -20 -20 -20 -20 -3 16 5 13 8 -20 -20 -14 -19 9 12 -0 -19 -20 -20 -20 3 -6 -20 -20 -20 -20 7 13 6 -17 -20 -20 -20 4 15 -8 -20 -20 -20 -20 -20 -20
-20 -20 -20 -20 -20 -20 9 9 -20 19 -14 -14 1 -13 20 22 8 18 9 -8 9 -20 -20 -19 -20 -20 -17 7 1 22 15 -20 -20 -7 -20 -16 -3 -7 -20 -20 -20 -20 -20 -20
-17 -20 -20 -20 -20 -14 16 20 15 -18 12 -9 7 -19 14 31 20 11 -10 -8 19 -20 -6 -19 8 -6 -16 4 5 12 9 4 -19 -2 -1 8 -20 -0 -20 -20 -20 -20 -20 -20
8 -16 -19 -20 -20 -20 -20 4 -20 29 22 1 -20 -18 -5 31 34 16 15 15 18 -14 -19 -7 -10 1 17 21 21 19 15 18 -10 9 -8 7 7 -13 -20 -20 -20 -20 -20 -20
21 2 -20 -20 -20 -20 -20 -20 -20 -20 -19 18 -17 -15 7 11 25 30 27 29 23 11 -20 -18 9 5 14 18 19 23 19 23 24 -14 8 -0 -8 11 -20 -12 -20 -20 -20 -20
-6 -20 -5 -20 -20 -20 -20 -20 -20 -20 -20 -20 -20 -3 11 10 6 9 30 26 20 19 14 8 6 10 5 19 20 16 7 17 11 24 18 10 11 12 2 2 8 -1 11 13
-4 -20 -20 -20 -20 -20 -20 -20 -20 -20 -20 -20 -20 -12 -1 17 11 9 23 32 18 -20 -20 -20 -12 2 -0 4 6 17 16 19 27 25 -9 -20 -20 -16 -17 -17 -19 13 20 15
-20 -20 -20 -20 -20 -20 -20 -20 -20 -20 -8 -20 -20 -10 14 14 3 20 15 30 30 33 -3 -19 -20 6 -3 -14 -20 -13 22 36 6 -20 -20 -20 -20 -20 -20 -20 -10 0 -18 -14
-20 -20 -20 -20 -20 -20 -20 -20 -20 -20 -20 -20 -20 -20 4 5 -4 16 18 11 20 30 35 18 -20 5 23 7 -18 -12 -2 1 -11 -20 -20 -20 -20 -20 -20 -16 -20 -20 -20 -20
-20 -20 -20 -20 -20 -20 -20 -20 -20 -20 -20 -3 14 3 15 20 18 33 27 29 31 25 30 30 34 22 14 11 -7 7 11 -11 -20 -20 -20 -20 -20 -20 -20 -20 -20 -20 -17 -16
-20 -20 -20 -20 -15 -20 -20 -20 -20 -20 -20 -20 -9 -20 23 32 31 38 36 30 20 14 -7 -2 12 25 21 29 11 -8 -18 -18 -20 -20 -20 -20 -20 -20 -20 -20 -20 -20 -20 -17
-20 -20 -20 -20 -20 -20 -20 5 -20 -17 -13 -20 -20 13 32 39 33 28 28 25 8 8 9 2 -2 -19 -14 -13 -11 -3 7 -6 -19 -16 -20 -20 -20 -20 -20 -20 -20 -20 -20 -20
-20 -20 -20 -20 -20 -20 -20 -20 -19 -5 -19 5 -2 32 30 29 25 32 28 25 16 -0 -1 2 0 -4 -4 5 2 2 4 -9 -7 -20 -20 -20 -20 -20 -20 -20 -20 -20 -20 -20
-15 10 10 -7 -17 -14 -19 -19 -20 -20 -20 21 9 31 39 36 31 27 20 8 -7 4 -16 -17 -20 -20 -20 -20 -20 -20 -20 -20 -20 -20 -20 -20 -20 -20 -20 -20 -20 -20 -20 -20
-10 -16 -18 -8 14 -11 15 6 2 -10 -20 19 17 16 23 23 20 16 9 10 1 -20 -20 -20 -19 -19 -20 -20 -20 -20 -20 -20 -20 -20 -20 -20 -20 -20 -20 -18 -18 -19 -12 -17
10 0 -5 2 9 27 19 27 19 -12 11 25 21 15 21 15 14 12 6 -3 -8 -10 -20 -20 -20 -20 -20 -20 -20 -20 -20 -20 -20 -20 -20 -20 -20 -20 -20 -20 -19 -3 3 4

GFSCGP_prec_radar_081.txt.gz
Reflectivity
-20 -20 -20 -2 7 -11 -20 -20 -20 -20 -20 -20 -20 -20 -20 -20 -20 -20 -20 -20 -20 -20 -20 -20 -20 -20 -20 -20 -20 -20 -20 -20 -20 -16 -14 -6 -8 -2 6 4 5 -4 -20 5
7 -20 -20 -19 -7 -18 -20 -20 -20 -20 -20 -20 -20 -20 -20 -20 -20 -20 -20 -20 -20 -20 -20 -20 -20 -20 -20 -20 -20 -20 -20 -20 -20 -20 -20 -9 -0 -4 -12 -7 -6 6 -15 2
6 -17 0 5 -19 -20 -20 -20 -20 -20 -20 -20 -20 -20 -20 -20 -20 -20 -20 -20 -20 -20 -20 -20 -20 -20 -20 -20 -20 -20 -20 -20 -20 -20 -20 -10 9 -7 -20 -12 -17 -17 14 31
4 -14 -18 -4 -20 -20 -20 -20 -20 -20 -20 -20 -20 -20 -20 -20 -20 -20 -20 -20 -20 -20 -20 -20 -20 -20 -20 -20 -20 -20 -20 -20 -5 -20 -19 -20 -4 -1 -20 -17 -2 -0 5 28
5 -20 -20 -20 -20 -20 -20 -20 -20 -20 -20 -14 -20 -7 -20 -20 -20 -20 -20 -20 -20 -20 -20 -20 -20 -20 -20 -20 -20 -20 -16 -20 -7 -20 -20 -20 4 10 -18 22 -18 -1 16 17
-20 -18 -4 -4 -20 -20 -20 -20 -20 -20 -20 5 -20 -20 -20 -20 -20 -20 -20 -20 -20 -20 -20 -20 -20 -20 -20 -20 -20 2 -1 -8 7 -20 -20 -20 5 1 -17 11 8 13 -4 -19
-13 -20 -17 -17 -20 -20 -20 -20 -20 -15 4 -20 -20 -20 -20 -20 -20 -20 -20 -20 -20 -20 -20 -20 -20 -20 -20 -20 -14 13 -16 0 5 -20 -16 -19 -20 -20 0 4 -0 -13 11 24
-20 -20 -20 -20 -20 -20 -20 -20 -20 -20 1 -0 -20 -20 -20 -20 -20 -20 -20 -20 -20 -20 -20 -20 -20 0 3 -20 -15 -20 -20 -20 -20 -3 -20 -5 -20 -20 -20 -20 -20 -9 -5 -19
-20 -20 -20 -20 -20 -20 -17 -5 -17 -20 -20 8 -20 -20 -20 -20 -20 -20 -20 -20 -20 -20 -20 -20 -7 -19 -20 -20 -20 -20 -20 -20 -12 -9 -16 -4 -20 -20 -20 -20 -20 -17 -4 4
-20 -20 -20 -20 -20 -20 1 -12 14 5 -13 7 -20 -20 -20 -20 -20 -20 -20 -20 -20 -20 -20 -20 -18 -19 2 -20 -20 -20 -20 -20 -20 -2 -20 -20 -20 -20 -20 -20 -20 -17 0 13
-20 -20 -20 -20 -20 -20 0 24 -1 18 4 -13 -20 -20 21 -20 -17 12 -20 -2 -0 -7 -18 -4 -20 3 -20 -15 11 -20 -20 -5 -17 13 -20 -20 -12 -20 -20 -20 -20 -20 -20 -15
-20 -20 -20 -20 -20 -20 3 9 -0 -2 15 23 -10 -20 -19 13 -1 7 13 8 16 21 13 22 2 -3 1 13 10 6 9 12 8 0 -20 -9 -3 -8 -7 -20 -20 -20 -20 -20
-20 6 -10 -18 -17 -17 -20 15 13 7 16 -20 8 -15 26 10 16 17 15 -1 9 15 14 19 6 17 11 10 16 14 10 -3 -8 -14 -3 4 7 -8 0 -18 -20 -20 -15 -19
13 -20 -14 0 -20 -20 -8 -20 -20 -20 -17 13 12 -17 -20 -20 5 19 23 -1 1 22 19 11 13 14 16 18 23 17 21 17 11 9 -16 6 2 -4 -18 -1 2 -20 -20 -19
11 18 8 -12 -20 -20 -20 -20 -20 -20 -20 -20 -4 -20 -20 -17 6 2 15 13 14 19 19 21 22 16 19 23 24 6 18 15 15 -19 -13 7 -17 1 -14 -20 -14 -20 -20 -20
20 23 25 -18 -20 -20 -20 -20 -20 -20 -20 -20 -20 -20 -20 -20 5 -9 11 26 25 24 25 20 10 21 16 11 11 17 14 14 17 8 -1 7 11 -14 -5 -10 -13 10 6 -5
10 13 6 -19 -20 -20 -20 -20 -20 -20 -20 -6 -20 -20 -20 -18 14 6 -6 17 37 30 28 26 19 24 14 -4 -12 11 12 -1 -17 -13 -11 11 17 13 6 16 18 -4 17 5
-0 14 6 -20 -20 -20 -20 -20 -20 -20 -20 -20 -20 -8 -20 -20 6 24 8 18 23 36 28 24 25 20 16 16 -19 -11 13 6 18 4 13 24 6 -15 -11 -16 -11 5 12 4
-20 2 -20 -20 -20 -20 -20 -20 -20 -20 -20 -5 21 -8 10 -7 13 29 21 9 25 32 40 22 2 4 9 8 10 18 34 4 26 38 32 29 13 -20 -20 -20 -20 -20 -20 -20
-20 -20 -20 -20 -20 -20 -20 -20 -20 -20 -20 -20 -20 16 -20 11 34 24 28 25 19 34 33 30 32 5 -16 -9 5 19 -8 -20 -5 -4 12 -15 -20 -20 -20 -20 -20 -20 -20 -20
-20 -20 -20 -20 -20 -20 -20 -20 -20 -20 -8 -20 -20 -20 6 13 23 30 30 26 25 34 26 19 23 30 31 12 8 11 17 9 -7 -20 -20 -20 -19 -19 -20 -20 -20 -20 -20 -20
-20 -20 -20 -20 -20 -20 -20 -20 -14 6 -15 -20 -20 -20 -12 20 26 25 28 23 4 -14 -20 -20 -16 -1 -12 20 24 27 17 13 -7 -14 4 4 -2 -20 -20 -20 -20 -20 -20 -20
5 -18 15 -20 -20 -18 -20 -20 -20 3 3 -5 -5 -2 13 28 29 28 27 22 19 15 6 2 -4 -8 4 7 -1 11 12 17 4 12 5 1 -6 -15 -20 -20 -20 -20 -20 -20
7 -16 18 4 -17 7 0 -20 -20 0 6 4 5 21 19 24 28 28 24 19 13 9 1 2 4 2 -0 -3 -11 -11 -20 -14 -19 -20 -20 -20 -20 -20 -20 -20 -20 -20 -20 -20
-16 -20 -20 -20 -17 1 3 4 3 -0 6 -1 10 19 23 24 20 18 15 13 -7 -1 -14 -19 -13 -20 -20 -19 -20 -2 -20 -20 -13 -10 -7 -19 -20 -20 -20 -2 -12 -10 6 -1
-1 -1 -17 0 -10 -1 -2 -9 -15 -5 3 1 16 19 21 17 17 15 12 13 11 4 -4 -17 -20 -20 -20 -20 -20 -20 -20 -20 -20 -20 -20 -20 -20 -19 -4 -20 -14 -10 -2 -15

GFSCGP_prec_radar_084.txt.gz
Reflectivity
-20 -20 -20 6 6 9 -13 -20 -20 -6 4 2 -18 -20 -20 -20 -20 -20 -20 -20 -20 -20 -20 -20 -20 -20 -20 -20 -20 -20 -20 -20 -5 -5 3 -10 10 8 2 2 -2 5 -15 -1
-20 -20 -8 -20 -8 -15 -20 -20 -20 -14 -1 -7 -20 -20 -20 -20 -20 -20 -20 -20 -20 -20 -20 -20 -20 -20 -20 -20 -20 -20 -20 -20 -5 -20 -20 -9 -3 4 3 -0 12 14 14 19
-20 -20 -19 -20 -20 -20 -20 -20 -20 -20 -20 -20 -20 -20 -20 -20 -20 -20 -20 -20 -20 -20 -20 -20 -20 -20 -20 -20 -20 -20 -20 -20 -18 -20 -20 1 7 -6 3 11 15 -0 -6 -15
-20 -20 -7 1 -20 -20 -20 -20 -20 -20 -20 -20 -20 -20 -20 -20 -20 -20 -20 -20 -20 -20 -20 -20 -20 -20 -20 -20 -20 -20 -20 -20 -3 -20 -11 -11 -20 -16 2 9 1 6 -5 6
-20 -20 -15 -20 -6 -9 -20 -20 -20 -20 -20 -20 -20 -20 -20 -20 -20 -20 -20 -20 -20 -20 -20 -20 -20 -20 -20 -20 -20 -20 -20 -20 -13 -20 -20 -20 -3 -20 8 4 7 -5 -12 -20
-20 -20 -17 -17 -20 -20 -20 -6 -9 -20 -11 -0 -20 -20 -20 -20 -20 -20 -20 -20 -20 -20 -20 -20 -20 -20 -20 -20 -20 -20 -16 -20 -4 -20 -20 -18 -1 0 7 10 -7 -0 2 3
-20 -20 -20 -20 -17 -20 -20 -18 -9 -2 3 -20 -20 -20 -20 -20 -20 -20 -20 -20 -20 -20 -20 -20 -20 -20 -20 -20 -20 9 -4 -20 -18 -16 -20 -10 -2 3 -10 -6 -10 -11 -1 10
0 -20 -20 -18 -20 -20 -20 -20 -20 -7 -0 -5 -20 -20 7 -20 -20 -20 -20 -20 -20 -20 -20 -20 -20 -20 -20 -20 -14 13 -5 -20 -20 -20 -20 -19 -9 5 -10 -16 -16 -5 11 4
10 -18 -20 -20 -20 -20 5 7 -8 9 -14 3 -20 -20 -18 -20 -7 -20 -20 -20 -20 -20 -20 -20 -20 -20 -20 -20 -15 15 -4 -13 -20 -14 -20 -18 -4 -17 -20 -20 -10 10 19 18
-20 -4 -20 -20 -20 -20 -10 -20 13 13 10 8 -20 -20 7 3 -12 -20 -20 -20 -20 -20 -20 -20 -20 -20 -20 -18 -18 -9 -9 -12 -9 3 -18 -20 -10 -1 -11 -11 9 -3 -20 -8
-20 -16 20 8 -20 -7 1 12 -0 1 0 17 6 -6 -20 -7 -18 -20 -20 -20 -20 -20 -18 -6 -12 -10 -20 -11 -3 9 -20 -20 -17 -9 -15 4 -19 -11 -14 -14 -4 5 -14 -20
20 17 11 -9 17 -3 19 6 23 19 21 1 7 6 -19 -20 -20 -20 -20 -20 -20 -20 -12 -13 10 13 2 0 7 6 -1 17 -0 -6 -19 -20 1 3 2 -20 11 10 11 1
25 16 18 21 -10 11 -11 5 -8 -20 -19 -8 15 19 -20 8 12 -19 -20 -17 -20 -20 11 11 18 -2 19 5 4 17 -7 17 -2 -9 -18 -6 3 -6 -20 -0 10 -1 -20 8
29 20 21 20 15 18 -6 -20 -20 -3 -6 14 5 -15 -13 -20 -20 -11 -16 -19 -20 -12 10 6 12 6 10 10 20 15 16 5 8 10 14 7 -5 -20 -10 -16 7 9 -20 -18
40 23 9 -20 -20 -20 -20 -20 -20 -20 -20 -20 -15 -20 -20 -20 -20 -20 -20 17 -14 -11 18 19 18 19 21 20 5 16 24 22 -10 19 11 10 -7 -9 -6 1 3 15 13 6
38 19 24 -10 -17 -20 -20 -20 -20 -20 -20 -20 -20 -20 -20 -20 -20 0 -10 7 11 0 20 27 26 20 23 15 7 25 24 14 11 16 4 -7 4 -2 2 -11 6 18 18 -7
35 11 6 13 3 -20 -20 -20 -20 -20 -20 -20 -0 -20 -20 23 -20 -8 12 10 24 21 22 29 17 25 19 11 25 27 16 17 18 -2 -20 -20 -15 -18 3 -5 7 -4 15 8
28 26 6 -4 11 -18 -20 -20 -20 -20 -3 -4 -20 15 -20 -1 -3 1 22 28 31 30 30 26 25 25 23 25 23 26 18 14 16 19 16 15 12 -10 -8 -5 1 -10 22 17
3 22 11 -20 -18 -6 -20 -20 -20 -20 -15 -20 -20 -19 -14 -20 18 21 29 33 35 32 29 34 30 30 29 29 28 26 36 31 13 2 7 15 7 3 19 23 -18 -9 -7 13
-20 -1 18 3 -20 -20 -20 -20 -20 -20 -20 -20 -20 -19 -20 5 0 3 32 27 14 23 32 32 30 32 32 24 17 32 30 25 26 23 33 31 39 35 31 21 8 -6 -20 -20
-20 6 9 8 2 -20 -20 -20 -20 -20 -13 0 -20 -15 -20 -4 -10 9 19 23 25 28 25 35 37 35 20 21 21 13 4 26 15 25 40 30 19 31 23 20 -3 -10 -20 -20
11 3 -0 9 9 3 -20 -20 -9 -10 5 -16 -20 -13 -4 1 8 18 23 23 25 21 16 12 14 20 29 34 27 17 9 3 8 16 11 11 3 10 7 -12 -5 -20 -13 -20
-10 3 23 15 20 -18 -18 -20 -20 -10 1 -1 -12 -1 -15 -8 14 16 19 20 16 17 17 3 -10 -20 -19 -15 -1 10 29 13 5 3 5 5 8 9 6 1 -14 -12 -12 -18
-3 -20 21 22 18 -3 2 -10 -19 -13 -1 -3 -0 -3 -2 6 15 19 19 19 16 12 10 7 7 9 3 -20 -16 4 -11 -14 11 19 17 11 12 14 17 7 -3 -8 -11 -8
-16 -20 -20 9 2 -10 -20 -2 -1 -11 -11 -17 -1 19 15 16 19 18 10 6 7 1 -10 -20 -20 -17 -20 -20 -20 -20 -20 -14 -6 1 -2 -20 -18 -8 5 6 -0 -2 3 -1
2 -5 -7 5 -3 2 -13 -12 -11 -20 -20 -3 -15 13 16 12 16 15 15 15 15 13 15 11 -11 -16 -6 -11 -5 -15 -20 -18 -20 -16 -17 -10 -4 -4 -10 -11 -0 -1 -1 -2

GFSCGP_prec_radar_087.txt.gz
Reflectivity
-20 -20 -20 -20 -3 1 -5 2 -20 -17 -16 -19 -20 -20 -20 -19 -2 -14 -20 -20 -20 -20 -20 -20 -20 -20 -20 -20 -20 -20 -20 -20 -20 -20 -4 -20 -20 -2 8 3 4 -6 5 -4
-20 -20 -20 -20 -19 -20 7 -2 -20 -20 1 -20 -20 -20 -20 -19 -0 -6 -20 -20 -20 -20 -20 -20 -20 -20 -20 -20 -20 -20 -20 -20 -17 -20 -20 -20 -20 -20 1 3 -20 -20 -18 -17
-20 -20 -20 -20 -20 -20 -20 -14 -20 -20 -20 -16 -20 -20 -13 4 -16 -1 -15 -20 -20 -20 -20 -20 -20 -20 -20 -20 -20 -20 -20 -20 -1 -20 -20 -20 -20 -15 2 -20 -12 16 2 19
-20 -20 -20 -20 -20 -20 -20 -20 -20 -20 -20 -20 -20 -20 -20 -20 -19 -19 -20 -20 -20 -20 -20 -20 -20 -20 -20 -20 -20 -20 -20 -20 -16 -20 -20 -20 -20 -20 -20 -11 -1 13 12 6
-20 -20 -20 -20 -20 -19 -20 -20 -20 -16 -20 -20 -20 -20 -20 -20 -20 -20 -20 -20 -20 -20 -20 -20 -20 -20 -20 -20 -20 -20 -20 -20 -20 -20 -20 -20 -20 -20 -20 -9 5 6 -1 -19
-20 -20 -20 -20 -20 -20 -20 -20 -20 -20 -20 -20 -9 -3 -14 4 -19 -20 -20 -20 -20 -20 -20 -20 -20 -20 -20 -20 -20 -20 -20 -20 -20 -20 -20 -20 -20 -20 -20 -20 12 -0 -3 -17
-20 -20 -20 -20 -20 -20 -20 -16 12 -0 6 -20 -7 -20 -20 -0 -20 -19 -20 -20 -20 -20 -20 -20 -20 -20 -20 -20 -20 -20 -20 -20 -20 -20 -20 -20 -20 -20 -20 8 8 -12 -3 -3
-20 -20 2 -20 -20 -16 -14 -6 -5 1 0 10 23 6 3 -20 -19 -20 -20 -20 -20 -20 -20 -20 -20 -20 -20 -20 -20 -20 -20 -20 -20 -20 -20 -20 -20 -20 -20 7 5 -0 -15 3
16 -7 -20 -8 -20 -20 -7 1 -17 -20 -20 -20 19 5 -16 -20 -20 -20 -20 -20 -20 -20 -20 -20 -20 -20 -20 -20 -20 -20 -20 -6 5 -20 -20 -20 -20 -20 -19 8 4 2 -20 -20
-20 5 9 -20 -15 -20 -20 -20 16 18 10 11 -18 -14 3 6 -20 -20 -20 -20 -20 -20 -20 -20 -20 -1 -20 -20 -20 -20 -4 11 -17 -20 -20 -20 -20 -20 -14 4 9 3 -6 -15
-7 -1 -9 5 -7 4 -20 -10 14 14 21 19 14 21 29 -1 -20 -20 -20 -20 -20 -20 -20 -18 -13 28 14 -20 -20 -16 17 10 -15 -20 -20 -20 -20 -20 -20 -20 -20 -4 -5 0
16 17 19 20 -20 -14 23 10 17 14 12 -20 -14 8 20 -20 -20 -20 -20 -20 -20 -20 -20 -13 11 13 8 1 10 7 20 -11 6 -20 27 -9 -19 -15 -20 -17 -4 -1 7 7
4 22 18 -11 22 -17 -19 22 20 22 24 21 19 23 32 -3 -20 -20 -20 -20 -20 -20 -20 -19 18 21 21 22 8 12 18 -3 4 21 -3 -12 -20 14 -18 -2 -20 11 -3 -15
14 -3 6 2 17 9 -17 -15 -3 24 22 22 -8 -6 12 -18 -20 -20 -20 -20 -20 -20 -20 -20 8 20 25 20 3 11 21 3 16 15 3 3 6 7 5 -14 11 9 -3 10
23 6 -13 -4 27 28 21 19 23 17 20 20 7 -17 -20 -18 -20 -20 -20 -20 -20 -20 -20 -19 17 15 20 23 6 14 19 21 -6 -10 -7 7 10 22 -13 -4 -0 -17 -14 -16
-2 -3 15 27 -2 -20 -20 1 -5 -20 -20 -20 -20 -20 21 22 -20 -20 -20 -20 -20 -20 -20 -4 2 7 18 19 13 15 19 19 20 7 7 -20 -20 -20 -20 -20 -17 11 -12 2
12 14 37 17 -20 -20 -20 -18 -20 -20 -20 -20 8 22 -20 -20 -13 -6 -15 -20 -14 18 11 2 2 16 21 19 23 14 17 24 22 -6 -2 -8 8 7 -17 -1 -14 -17 -19 -14
12 24 33 3 -20 -16 9 -20 -20 -20 -20 -20 0 7 -20 -20 -14 8 16 13 6 22 32 6 19 22 28 30 26 25 21 29 26 -1 1 -0 0 19 7 -7 5 -2 2 19
15 19 27 11 13 2 -8 -20 -20 -20 12 -8 -6 -20 -4 -20 -20 -5 2 4 16 19 17 20 30 22 31 26 28 25 37 27 31 27 23 18 20 22 16 17 15 16 17 22
10 11 21 -18 -16 -13 29 -18 -20 -20 16 7 -20 -20 -20 -18 -1 -4 1 5 13 18 19 23 22 37 35 31 32 41 32 36 32 35 39 37 28 31 14 38 32 5 7 9
-4 5 14 21 -1 -11 -20 -20 -20 -3 11 -3 -20 -20 -20 -18 -5 6 1 2 17 23 24 30 31 29 27 37 29 18 21 27 30 36 38 33 29 28 25 35 28 22 28 30
14 18 13 11 6 7 -20 -20 -10 -2 -9 -7 -20 -20 -14 -11 -3 4 3 9 6 9 22 26 17 20 31 30 35 26 22 29 28 37 38 30 31 27 30 32 30 30 25 26
17 -13 24 9 17 -2 -20 -20 -19 -20 -17 1 -15 1 -18 -16 0 3 -0 12 13 9 4 -4 3 9 26 29 34 29 28 22 26 31 21 18 15 16 18 24 27 17 11 10
5 -20 14 20 -2 -8 -20 -20 -20 -20 -3 -0 4 -1 -6 -6 -2 9 10 9 8 14 12 5 7 8 10 15 18 23 30 34 23 18 23 19 20 16 14 17 16 16 17 14
1 -11 -20 2 2 -19 -20 -20 -2 -3 -5 1 2 3 -0 0 3 8 14 14 12 -4 -1 -2 6 6 5 4 5 9 12 10 11 14 19 19 16 17 20 14 13 14 16 11
3 5 0 6 -2 -12 -20 -6 -6 -12 3 -6 -20 4 3 -2 12 12 16 18 17 15 12 9 8 11 9 6 5 5 4 4 -1 -5 -4 -2 -4 -7 -15 -5 -12 -3 -10 -20

GFSCGP_prec_radar_090.txt.gz
Reflectivity
-20 -20 -20 -20 -20 -20 -20 -20 -20 -20 -20 12 -11 -20 -20 -20 -20 8 10 11 -8 -20 -20 -20 -20 -20 -20 -20 -20 -20 -20 -20 -20 -20 -20 -20 -20 -20 -20 -12 -10 -16 3 3
-20 -20 -20 -20 -20 -20 -20 -20 -20 -20 -20 -7 -1 -19 -20 -20 -20 -20 -19 7 4 -11 -20 -20 -20 -20 -20 -20 -20 -20 -20 -20 -20 -20 -20 -20 -20 -20 -20 -10 -7 -18 10 -20
-20 -20 -20 -20 -20 -20 -20 -20 -20 -20 -20 -12 -20 -20 -20 0 -7 -20 -20 -20 -20 -20 -20 -20 -20 -20 -20 -20 -20 -20 -20 -20 -20 -18 -20 -20 -20 -20 -13 -4 1 -3 -10 -15
-20 -20 -20 -20 -20 -20 -20 -20 -20 -20 -20 -20 5 -17 -20 -7 -5 10 -20 -20 -20 -20 -20 -20 -20 -20 -20 -20 -20 -20 -20 6 -20 -20 -20 -20 -20 -20 -20 -20 -20 -20 -20 -20
-20 -20 -20 -20 -20 -20 -20 -20 -20 -20 -20 -20 -20 -20 -20 1 -19 -18 -20 -20 -20 -20 -19 -20 -20 -20 -20 -20 -20 -20 -20 -20 -20 -20 -20 -20 -20 -20 -20 -20 -20 9 12 8
-20 -20 -20 -20 -20 -17 -20 -20 -20 -20 -20 -20 -20 1 -20 -5 11 14 -20 -20 -20 -20 -20 -20 -20 -20 -20 -20 -20 -20 -20 -20 1 -20 -20 -20 -20 -20 -20 -20 -20 -10 -20 -8
-20 -20 -20 -20 -20 -20 -20 -20 -11 -12 7 -20 -0 3 1 -12 20 24 -1 -20 -20 -20 -20 -20 -20 -20 -20 -20 -20 -20 -20 -20 -20 -20 -20 -20 -20 -20 -20 -20 -8 -4 -19 -16
-20 -20 -4 12 -20 -20 -20 -20 -19 4 -17 1 18 26 6 22 -20 -20 -20 -20 -20 -20 -20 -20 -20 -20 -20 -20 -20 -20 -20 -20 -20 -20 -20 -20 -20 -20 -20 -20 -20 -20 -20 -20
3 -18 -20 -20 -9 -20 -20 -20 -14 1 -20 -18 -20 7 13 33 -20 -13 -20 -20 -20 -20 -20 -20 -20 -20 -20 -20 -0 -20 -5 -20 -20 -19 -5 -12 -20 -20 -20 -20 -20 -7 -19 -20
-20 -11 -20 -20 15 -19 -20 -20 23 17 3 -20 -20 8 2 36 29 14 -20 -17 -20 -20 -20 -20 -20 -20 2 -10 16 1 -19 -20 10 1 9 -20 -20 -20 -20 -11 -20 -17 -11 -20
-20 11 -20 -20 9 10 -19 -20 -17 23 8 10 16 12 29 31 31 16 -11 -20 -20 -20 -20 -20 -20 16 14 13 6 -20 34 -17 2 3 16 -15 -20 -20 -20 4 7 -2 -20 -20
-9 -19 -20 -20 -17 28 20 -20 -9 10 9 -18 -20 -6 36 41 31 13 -20 -20 -20 -20 -20 -20 5 -20 6 -2 13 5 -20 -16 -2 21 14 -20 -20 -20 -2 1 -17 -18 6 -12
-8 0 -14 -20 -20 22 34 -12 16 16 21 16 22 13 30 25 13 -3 -20 -20 -20 -20 -20 -20 -6 14 -13 17 12 10 8 18 22 24 8 -15 7 5 15 -3 -2 16 11 10
-20 -17 -8 -3 -15 11 17 22 11 7 28 26 20 26 34 25 22 12 -10 -20 -20 -20 -20 -20 -2 15 18 13 16 22 26 9 -4 21 26 18 12 16 14 15 15 -5 -8 -9
-16 12 8 -11 -20 -16 20 14 18 14 15 25 25 12 7 -0 18 -19 -20 -20 -20 -20 -20 -20 -2 14 18 19 -11 19 23 15 13 22 7 21 9 8 9 11 12 11 5 -15
11 -10 6 -20 -20 2 2 23 17 21 28 16 6 25 22 -20 -20 -20 -20 -20 -20 -20 -18 -20 -15 17 25 16 12 17 23 20 23 25 25 17 3 10 17 15 15 10 13 9
12 7 8 -20 -20 5 32 18 10 16 22 11 -3 -1 -20 -20 -20 -16 -6 -20 -4 -4 -1 -0 -9 15 14 26 12 18 18 14 19 18 22 9 14 16 18 16 16 8 9 -12
6 11 12 -10 9 25 17 -20 -19 21 -4 -20 -20 -20 -20 -20 -12 -5 -12 -20 -20 -20 -5 2 17 0 17 24 23 23 19 24 18 26 17 16 -4 9 13 18 14 19 19 18
1 6 15 27 28 16 -20 -20 -20 -1 12 -20 -20 -20 -20 -20 -20 -2 -4 -9 -11 -1 2 3 17 24 20 13 23 23 21 24 26 28 35 33 2 -1 4 19 21 6 -6 -20
3 20 16 29 1 -6 27 18 -20 -20 12 -1 -20 -20 -20 -20 2 -4 -0 5 -0 2 -2 -9 17 17 10 13 25 23 20 22 19 31 34 38 27 6 10 27 24 23 22 22
-8 16 9 11 4 29 12 -20 -20 -15 10 -12 -20 -20 -20 -20 -3 4 6 -1 2 9 10 7 5 2 12 17 25 21 23 21 24 37 36 39 32 30 25 30 32 35 31 22
0 5 16 -9 12 14 -20 -14 6 -4 -4 -12 -20 -20 -20 -4 -5 -0 6 5 2 3 9 5 -1 -3 7 17 19 24 28 26 34 34 35 31 29 28 37 37 36 35 31 31
22 7 26 17 16 0 -20 -7 -20 -8 -2 -1 -13 -3 -4 -14 -4 1 4 1 -1 7 7 -1 -4 9 14 24 29 22 25 25 26 25 26 30 28 25 25 26 24 25 31 23
25 -18 19 16 11 -12 -18 -18 -20 -20 -3 2 -1 1 -7 -13 -2 4 6 6 2 3 4 5 -0 -1 10 12 21 15 25 26 24 23 23 22 22 29 27 30 31 33 32 28
0 -18 -20 1 -1 0 -19 -20 -8 -9 -10 -20 1 2 2 -3 -0 -1 0 -3 1 5 4 1 1 1 -1 8 9 11 13 15 13 15 19 23 21 20 19 18 17 18 18 20
2 2 -15 5 -16 5 -2 -2 -17 -20 -3 -4 -18 -5 8 -10 -16 3 5 -0 2 7 6 9 11 6 2 -9 -3 6 8 12 14 14 11 6 10 16 10 7 13 13 12 12

GFSCGP_prec_radar_093.txt.gz
Reflectivity
-20 -20 -20 -20 -20 -20 -20 -20 -20 -20 -20 -20 -20 -20 -20 -20 -20 -20 -20 -20 -11 -16 -20 5 -20 -20 -20 -20 -20 -20 -20 6 -20 -20 -20 -20 -20 -20 -20 -20 -20 -20 -20 -20
-20 -20 -20 -20 -20 -20 -20 -20 -20 -20 -20 -20 -20 -20 -20 -20 -20 -20 -20 8 -5 -20 -20 -18 -20 -20 -20 -20 -20 -20 -20 -11 -20 -20 -20 -20 -20 -20 -20 -20 -20 1 -18 -20
-20 -20 -20 -20 -20 -20 -20 -20 -20 -20 -20 -20 -20 -20 -20 -20 -20 -20 -20 -20 -20 -20 -20 -19 12 12 -18 -18 -15 -20 -20 -20 -20 -20 -20 -20 -20 -20 -20 -20 -20 5 -9 9
-20 -20 -20 -20 -20 -20 -20 -20 -20 -20 -20 -20 -20 -20 -20 -20 -20 -20 -3 -20 -20 -20 -20 -20 -20 -11 -4 -17 -18 -20 -20 -20 -20 -20 -20 -20 -20 -20 -20 -20 -20 -10 8 -4
-20 -20 -20 -20 -20 -20 -20 -20 -20 -20 -20 -20 -20 -20 -20 -20 -20 -15 -11 -20 -20 -20 -20 -20 -20 -20 -20 -20 -20 -20 -20 -20 -20 -20 -20 -20 -20 -20 -20 -20 -20 -20 -20 -20
-20 -20 -20 -20 -20 -20 -20 -20 -20 -20 -20 -20 -20 -20 -20 -20 -20 -20 -4 13 -19 -20 -20 -15 -20 -20 -8 -10 -6 -20 -20 -20 -20 -20 -20 -20 -20 -20 -20 -20 -20 -20 -9 -5
-20 -20 -20 -20 -20 -20 -20 -20 -20 -20 -20 -20 -20 -20 -20 -20 -20 5 11 -15 20 -17 -20 -20 -20 -20 -20 -20 -11 29 -19 -20 -20 -20 -20 -20 -20 -20 -20 -20 -20 -20 3 -20
-20 -20 -20 -20 -3 -20 -20 -17 4 -20 -20 -20 -14 -3 -20 -15 23 16 -18 -12 11 15 -15 -20 -20 -20 -20 -20 -20 -13 -7 -20 -13 -5 -9 -20 -20 -20 -20 -20 -20 -20 -20 -20
-13 -20 -20 -20 -20 8 -18 -20 -20 21 -5 -20 -20 -20 -20 -14 26 47 34 -20 -3 -14 -1 -20 -20 -20 -20 -20 -13 -20 -20 -20 -20 -10 -19 -18 -20 -20 -20 -20 -20 -20 -20 -20
-20 -20 -20 -20 -20 -20 16 -20 4 18 14 5 -20 -20 10 -8 24 45 19 -20 -20 -19 -13 -20 -20 -20 -20 -20 8 11 34 35 18 4 30 -8 -20 -18 -19 -20 -20 -20 -20 -20
-20 -14 -20 -20 -20 -20 -20 13 -18 18 17 7 -5 21 25 4 40 31 13 -20 -20 -13 -20 -20 -20 -20 8 -3 -20 -20 28 32 39 34 -12 8 6 -20 -20 -20 -20 -20 -20 -20
-20 -20 -20 -20 -20 -20 -18 29 16 12 3 12 2 -12 -8 25 29 41 -1 10 -20 -20 1 -20 -20 -20 -13 3 -1 -8 -12 6 -7 25 -4 -20 21 10 -20 1 -18 4 -20 -20
-19 -20 -20 -20 -20 -20 -15 25 39 25 17 -20 9 21 25 30 33 31 9 -20 -20 -20 -20 -20 -19 4 -1 -11 -14 -7 9 -14 -20 -20 -20 15 14 9 -4 12 12 17 17 12
-20 -20 -20 -20 -20 1 -20 -19 22 38 19 -20 19 33 24 33 30 36 -13 -20 -20 -20 -20 -20 -20 8 4 14 -5 17 14 12 26 1 -6 23 16 13 15 14 13 15 12 15
-20 -20 -20 -19 -20 0 -19 -16 11 -2 30 19 10 39 33 15 3 -19 -20 -20 -20 -20 -20 -20 -20 6 5 8 17 18 17 26 21 27 22 23 20 17 17 5 -5 8 19 7
-2 -19 -20 -20 -20 -20 -20 -12 13 25 36 30 9 35 26 -17 -3 -20 -20 -20 -20 -20 -20 -20 -20 -18 17 18 12 17 24 29 21 8 5 24 27 30 17 6 -6 6 8 15
-17 -9 -20 -20 -20 -20 -20 -11 7 29 27 37 30 14 0 -17 -20 -16 -20 -20 -20 -20 -20 -20 -18 -13 14 20 17 16 24 27 29 23 15 22 20 26 25 18 9 14 14 17
-20 -2 19 -20 -20 -3 3 0 28 21 23 15 16 -14 -20 -20 -6 -6 -11 -20 -20 -20 -20 -20 -15 -6 23 24 24 27 29 25 17 28 22 26 16 20 26 3 15 18 18 15
-20 -20 14 15 -16 24 31 34 24 -7 9 -11 -20 -20 -20 -20 -20 -20 -1 -11 -20 -7 -20 -14 -19 2 30 27 23 28 19 14 34 27 16 31 31 29 25 26 14 22 7 14
-15 12 16 15 24 30 25 -13 -17 -15 1 -18 -20 -20 -20 -17 -1 -10 -3 -9 -5 -3 -7 -19 -16 5 16 25 21 25 13 19 31 25 28 23 34 36 26 25 15 12 16 21
-5 11 12 9 18 16 14 -20 -20 -20 6 -10 -20 -20 -20 -20 -14 -1 -2 -1 1 0 -1 -19 -11 1 7 14 30 18 26 29 16 22 20 26 26 31 33 33 33 29 23 22
-20 8 20 18 24 11 -13 -15 -11 10 8 -16 -20 -15 -20 -20 -19 -16 -17 -20 -4 -9 -8 -3 -9 1 16 16 18 15 15 18 18 16 16 21 24 24 26 34 35 33 23 21
31 21 3 12 11 20 -20 5 -12 -10 -11 -14 -20 -7 -20 -20 -20 -20 -20 -15 -0 -8 -14 -12 -19 -20 -13 6 5 -3 12 17 17 21 21 18 16 22 25 31 30 27 24 24
18 13 21 17 5 -20 -1 -20 -5 -8 -12 -17 -20 -20 -17 -20 -8 -20 -20 -2 -9 -11 -7 -14 -20 -19 -17 -5 8 14 11 5 0 7 14 20 21 19 20 22 24 23 25 25
-4 -5 -6 9 5 -9 0 -20 -4 -20 -20 -20 -20 -20 -20 -20 -20 -20 -20 -20 -10 -10 -14 -20 -18 -20 -20 -20 -20 -9 6 8 5 -2 2 9 13 15 18 20 21 22 24 23
3 -0 -17 -18 -1 -12 2 -20 -20 -15 -12 -20 -20 -20 -20 -20 -20 -20 -20 -17 -18 -20 -20 -20 -7 -1 2 -11 -17 -18 -20 -20 -20 -15 -2 -20 -16 1 10 11 11 11 17 18

GFSCGP_prec_radar_096.txt.gz
Reflectivity
-20 -20 -20 -20 -20 -20 -20 -20 -20 -20 -20 -20 -20 -20 -20 -20 -20 -20 -20 -20 -20 -20 -20 -20 -20 -20 -20 -20 -20 -20 -20 -20 -20 -20 -17 15 -8 -20 -20 -20 -20 -20 -20 -20
-20 -20 -20 -20 -20 -20 -20 -20 -20 -20 -20 -20 -20 -20 -20 -20 -20 -20 -20 -20 -20 -20 -20 -20 -20 -20 -20 -20 -19 -20 -20 -20 -20 -20 -20 4 -8 -20 18 -20 -20 -20 -12 -20
-20 -20 -20 -20 -20 -20 -20 -20 -20 -20 -20 -20 -20 -20 -20 -20 -20 -20 -20 -20 -20 -20 -20 -20 -20 -20 -20 -20 -7 2 -18 -20 -20 -20 -19 -17 6 14 -20 -20 -20 -20 -20 -12
-20 -20 -20 -20 -20 -20 -20 -20 -20 -20 -20 -20 -20 -20 -20 -20 -20 -20 -20 -20 -20 -20 -20 -20 -20 -20 -20 -20 -20 -2 -9 -20 -20 -17 -19 -14 -19 -20 -20 -20 -20 -20 -10 10
-20 -20 -20 -20 -20 -20 -20 -20 -20 -20 -20 -20 -20 -20 -20 -20 -20 -20 -20 -20 -20 -20 -20 -20 -20 -13 11 -6 -20 -19 -1 -20 -20 -5 -11 -20 -20 -20 -20 -20 -20 -20 -19 1
-20 -20 -20 -20 -20 -20 -20 -20 -20 -20 -20 -20 -20 -20 -20 -20 -20 -20 -20 3 1 22 8 -3 -20 -18 -20 7 -19 -2 9 9 1 1 -20 -20 -15 -20 -20 -20 -20 -20 -20 -17
-20 -20 -20 -20 -20 -20 -20 -20 -20 -20 -20 -20 -20 -20 -20 -20 -20 -17 -20 -20 2 25 9 18 2 -20 -20 -20 -20 -20 -20 -7 -18 -1 22 -20 -20 12 -20 -20 -20 -20 -20 -20
-20 -20 -20 -20 -20 -20 -20 -20 -20 -6 -20 -20 -20 -20 -20 -15 2 -0 -6 -9 22 30 20 -17 -17 -15 -20 -20 -20 -20 -6 -20 -5 24 26 11 -0 -12 -20 -20 -20 -20 -20 -20
-20 -20 -20 -20 -20 -20 -20 -20 -20 -18 4 1 -20 -20 -20 -20 -14 -19 -14 30 40 8 29 -20 -20 -20 -20 14 -13 -20 -20 25 -2 12 -9 11 -4 -16 -20 -20 -20 -20 -20 -20
-20 -20 -20 -20 -20 -20 -2 -20 -20 -20 5 4 -20 -18 15 -9 -8 16 31 41 21 9 -12 -20 -20 -20 -2 23 23 11 -17 3 30 31 28 31 15 -16 -19 -19 -20 -20 -20 -20
-20 -20 -20 -20 -20 -20 -20 3 16 6 -7 3 3 -11 -20 15 21 31 27 25 10 -16 -20 -20 -20 -20 -2 21 23 23 11 22 18 31 36 28 28 10 -11 -20 -20 -20 -20 -20
-20 -20 -20 -20 -20 -20 -20 -20 -7 24 22 2 12 7 -20 18 17 33 31 5 2 2 -20 -20 -20 -20 -20 -19 -18 19 -13 0 6 40 43 31 31 6 21 18 -20 22 -20 -20
-20 -20 -20 -20 -20 -15 -20 -14 -20 8 19 1 4 -20 -13 2 37 38 34 -2 -20 -18 -20 -20 -20 -20 -20 -20 -20 11 -15 26 -11 -3 20 33 30 0 16 3 25 -19 -19 -19
-20 -20 -20 -20 -20 -11 -14 -20 -16 9 5 0 -4 19 8 32 28 26 10 -20 -20 -20 -20 -20 -20 -20 -20 -20 -20 -20 10 -10 21 28 27 28 -6 -12 1 -17 7 -0 14 -7
-20 -20 -20 -20 -20 -20 -20 -20 -20 -20 -20 16 28 20 27 38 15 18 -9 -17 -20 -20 -20 -20 -20 -20 -20 -16 4 -14 12 12 22 3 8 27 28 21 15 -5 -11 12 6 -7
-20 -20 -15 -20 -20 -20 -20 -20 -20 -20 1 9 27 27 35 22 12 10 10 -20 -20 -20 -20 -20 -20 -20 -20 -10 11 5 7 6 23 32 -2 32 -2 9 17 -15 -20 -20 -12 -20
-20 -20 -20 -20 -20 -20 -20 -20 -20 9 9 8 33 30 24 6 -9 -4 -13 -20 -20 -20 -20 -20 -20 -20 -20 -3 14 15 21 21 24 20 31 23 25 21 -4 -15 -1 14 7 8
-20 -20 -20 -20 -15 2 27 -20 -20 -3 32 36 32 29 13 -12 -5 -10 -12 -17 -10 -20 -20 -20 -20 -18 -19 7 6 19 16 25 36 25 27 24 25 9 -4 12 26 29 15 2
-20 -20 -19 7 -2 15 27 29 30 31 24 25 4 8 0 -19 -20 -17 0 -3 -3 -20 -20 -19 -20 -13 -20 -0 23 20 14 20 24 23 36 38 35 21 14 28 40 35 26 14
-20 -20 -20 13 14 18 22 19 30 34 18 -5 -10 -7 0 7 -14 -20 -4 -2 -3 -11 -20 -16 -20 -20 -20 -1 13 12 24 18 32 32 27 30 26 31 32 27 36 29 15 11
-2 -12 -7 4 14 14 21 22 8 -10 -3 -17 -20 -20 -20 -18 -17 -6 -4 0 -2 -9 -15 -20 -20 -20 -20 -18 18 20 16 18 24 15 20 22 29 27 25 26 31 32 25 25
10 11 19 25 15 19 13 4 5 4 -11 -18 -20 -10 -14 -20 -20 -20 -20 -20 -20 -20 -20 -20 -20 -20 -20 -20 -20 6 17 17 20 22 23 18 23 25 17 22 22 21 27 28
18 24 17 14 -12 8 2 2 3 -8 -20 -3 -12 -16 -20 -20 -20 -20 -18 -13 -8 -20 -20 -20 -20 -20 -20 -20 -15 -20 7 2 5 14 16 16 8 9 17 20 24 26 20 22
22 16 12 5 14 4 -3 -20 -18 -16 -20 -3 -20 -20 -20 -20 -20 -20 -19 -16 -20 -18 -20 -20 -20 -20 -20 -20 -20 -4 1 -3 1 -1 -2 1 6 12 13 16 15 15 18 20
2 2 -5 2 1 -5 -5 -3 -13 -20 -20 -20 -20 -8 -20 -20 -20 -20 -20 -20 -20 -20 -20 -20 -20 -20 -19 -20 -20 -20 -20 -3 -0 -12 -20 -20 -20 -20 -8 1 5 9 13 13
-1 -0 -6 -20 -1 -20 -2 -7 -8 -8 -13 -20 -20 -20 -20 -20 -20 -20 -20 -20 -20 -20 -20 -20 -20 -20 -20 -20 -20 -20 -20 -20 -20 -1 -20 -19 -11 -7 -11 -20 -18 3 4 2

GFSCGP_prec_radar_099.txt.gz
Reflectivity
-20 -20 -20 -20 -20 -20 -20 -20 -20 -20 -20 -20 -20 -20 -20 -20 -20 -20 -20 -20 -20 -20 -20 -20 -20 -20 -20 -20 -20 -20 -20 -20 -20 -20 -20 -20 -20 -20 -20 -20 -14 -20 -20 -20
-20 -20 -20 -20 -20 -20 -20 -20 -20 -20 -20 -20 -20 -20 -20 -20 -20 -20 -20 -20 -20 -20 -20 -20 -20 -20 -20 -20 -20 -20 -20 -20 -20 -20 -18 2 -20 -20 -20 -20 5 -9 -20 -20
-20 -20 -20 -20 -20 -20 -20 -20 -20 -20 -20 -20 -20 -20 -20 -20 -20 -20 -20 -20 -20 -20 -20 -20 -20 -20 -20 -20 -20 -20 -20 -20 -20 -20 -14 4 2 -17 -15 -20 1 0 -20 -20
-20 -20 -20 -20 -20 -20 -20 -20 -20 -20 -20 -20 -20 -20 -20 -20 -20 -20 -20 -20 -20 -20 -20 -20 -20 -20 -20 -20 -20 -20 -20 -20 -20 -20 -0 3 -18 -20 -20 -19 8 24 -20 -20
-20 -20 -20 -20 -20 -20 -20 -20 -20 -20 -20 -20 -20 -20 -20 -20 -20 -20 -20 -20 -20 -20 -20 -20 -20 -20 -20 -20 -20 -20 10 -17 -20 -20 -20 -8 -20 -20 -20 -20 -18 -9 -20 -20
-20 -20 -20 -20 -20 -20 -20 -20 -20 -20 -20 -20 -20 -20 -20 -20 -20 -20 -20 -20 -20 -20 -20 -20 -19 -20 -0 -20 -20 -13 -17 -18 -5 3 5 9 -10 -20 -20 -20 -20 0 -18 -20
-20 -20 -20 -20 -20 -20 -20 -20 -20 -20 -20 -20 -20 -20 -20 -20 -20 -20 -14 -20 -20 -20 -20 -20 -0 -13 -17 -20 -20 -20 -20 -20 -20 -20 12 2 -4 -20 -20 -20 -20 -2 -19 -20
-20 -20 -20 -20 -20 -20 -20 -20 -20 -20 -20 -20 -20 -20 -20 -20 -20 -20 -20 -20 -20 -20 -20 3 26 -19 -20 -10 -0 -1 10 -11 -20 -20 -14 -13 18 -20 -20 27 -20 -20 -16 -20
-20 -20 -20 -20 -20 -20 -20 -20 -20 -20 -20 -20 -20 -20 -20 -20 -20 -20 -20 -20 -20 -18 -19 -11 21 -0 -20 -20 23 -18 7 -10 -14 -17 -14 -20 -14 29 17 19 -20 -17 -20 -20
-20 -20 -20 -20 -20 -20 -20 -20 -20 -7 2 -15 -20 -20 -20 -20 -20 -20 -20 -5 12 8 27 12 17 -20 -2 10 7 26 5 27 -3 -19 -18 19 -11 29 30 6 -12 -8 -20 -20
-20 -20 -20 -20 -20 -20 -20 -20 -20 -13 4 18 -10 -20 -20 -4 -11 -9 -11 -11 26 28 12 -20 -20 10 10 9 22 23 20 10 25 22 32 25 26 29 28 21 18 10 -20 -20
-20 -20 -20 -20 -20 -20 -20 -20 -13 -11 -20 5 -3 -13 14 1 -20 -12 13 35 17 13 0 -20 -20 -20 10 10 -20 25 -7 3 28 14 31 30 34 33 32 28 10 5 2 -20
-20 -20 -20 -20 -20 -20 -20 -20 -20 -5 15 -20 15 25 -6 -13 -14 6 33 23 -19 2 -9 -20 -20 -20 -20 -20 -20 12 20 9 10 19 18 17 3 39 37 29 4 6 18 -12
-20 -20 -20 -20 -20 -20 -20 -20 -20 -20 -8 -20 -20 -20 6 22 29 4 26 5 -10 -16 -20 -20 -20 -20 -20 -14 -20 -20 -20 -18 -6 -20 -10 -6 13 31 33 28 11 16 -16 -20
-20 -20 -20 -20 -20 -20 -20 -20 -20 -20 -20 -19 -20 -20 -20 32 20 8 13 10 -15 -20 -20 -20 -20 -20 -20 -20 -20 -20 -20 -20 6 5 7 18 15 20 33 30 9 4 -20 -20
-20 -20 -15 -20 -20 -20 -20 -20 -20 -20 -20 -20 -20 -2 2 27 37 -7 11 -2 3 -20 -20 -20 -20 -20 -20 -20 -14 9 -4 -5 9 19 6 27 27 26 17 -16 12 14 -10 20
-20 -20 -20 -20 -20 -20 -20 3 -12 -20 1 -3 11 -2 -12 18 17 5 -15 -10 -20 -20 -20 -20 -19 -18 -18 -15 1 10 18 -6 -3 13 24 28 26 27 17 16 2 8 -4 11
-20 -20 -20 -10 -20 -17 15 31 4 -20 2 24 23 7 10 17 13 -5 -7 -18 -20 -20 -20 -20 -16 -14 -14 -15 9 18 -10 30 29 39 32 35 36 37 13 19 -10 -20 -19 -4
-20 -20 -20 -16 -5 4 18 26 23 13 16 21 18 7 -11 -3 1 -5 0 -7 -6 -18 -20 -20 -13 -12 -13 -17 4 14 -2 22 16 30 19 37 41 41 35 20 9 11 19 8
-20 -20 -20 -16 5 11 24 22 19 29 20 6 -12 -20 -14 -5 -18 -8 -6 -5 -10 -10 -20 -20 -20 -20 -20 -14 -17 -20 -7 5 -10 6 30 24 33 27 40 39 21 26 21 17
-20 -20 -17 3 11 0 15 29 35 23 12 1 -1 -6 -14 -4 -13 -8 -15 -20 -20 -20 -20 -20 -20 -20 -18 -20 -20 -20 -20 0 -1 11 16 20 20 24 37 31 31 23 32 25
10 3 12 13 6 5 21 35 19 6 -4 -18 -20 -20 -9 -14 -20 -20 -20 -20 -20 -20 -20 -20 -20 -19 -16 -20 -20 -20 -14 -19 -20 -12 6 10 20 18 20 20 27 27 21 18
-7 14 15 -6 -6 13 14 11 20 -3 -20 -1 -16 -20 -20 -20 -20 -20 -20 -20 -20 -20 -20 -20 -20 -20 -20 -20 -15 -20 -17 -5 -14 -20 -19 3 10 9 15 12 16 18 20 21
19 16 14 -1 2 1 -0 -8 -16 -18 -2 -17 -20 -20 -20 -20 -20 -20 -20 -20 -20 -19 -20 -20 -20 -20 -20 -20 -20 -3 -18 -20 -20 -13 -15 -11 -17 -20 -15 -9 -18 -11 -1 8
-5 10 -20 -3 1 -15 -14 -13 -12 -14 -20 -20 -20 -20 -20 -20 -20 -20 -20 -20 -19 -13 -20 -20 -20 -20 -20 -20 -20 -20 -20 -20 -20 -20 -20 -20 -20 -20 -20 -20 -18 -11 -2 -15
-16 5 -7 -19 -14 -20 -5 1 -20 -20 -20 -20 -20 -20 -20 -20 -20 -20 -20 -20 -19 -18 -20 -20 -20 -20 -20 -20 -20 -20 -20 -20 -20 -20 -20 -20 -20 -20 -20 -20 -20 3 1 -14

GFSCGP_prec_radar_105.txt.gz
Reflectivity
-20 -20 -20 -20 -20 -20 -20 -20 -20 -20 -20 -20 -20 -20 -20 -20 -20 -20 -20 -20 -20 -20 -20 -20 -20 -20 -20 -20 -20 -20 -20 -20 -20 -20 -1 4 -20 -20 -20 -4 -0 -18 -19 -18
-20 -20 -20 -20 -20 -20 -20 -20 -20 -20 -20 -20 -20 -20 -20 -20 -20 -20 -20 -20 -20 -20 -20 -20 -20 -20 -20 -20 -20 -20 -20 -20 -20 -20 -20 -20 -20 -20 -14 -16 -14 0 0 -20
-20 -20 -20 -20 -20 -20 -20 -20 -20 -20 -20 -20 -20 -20 -20 -20 -20 -20 -20 -20 -20 -20 -20 -20 -20 -20 -20 -20 -20 -20 -20 -20 -20 -20 -20 -1 4 13 3 17 -20 -19 -4 -20
-20 -20 -20 -20 -20 -20 -20 -20 -20 -20 -20 -20 -20 -20 -20 -20 -20 -20 -20 -20 -20 -20 -20 -20 -20 -20 -20 -20 -20 -20 -20 -20 -20 -20 -12 5 -17 -15 -20 -16 -20 -20 -1 -6
-20 -20 -20 -20 -20 -20 -20 -20 -20 -20 -20 -20 -20 -20 -20 -20 -20 -20 -20 -20 -20 -20 -20 -20 -20 -20 -20 -20 -20 -20 -20 -20 -20 -20 -20 7 7 -20 -20 4 3 -4 -20 -5
-20 -20 -20 -20 -20 -20 -20 -20 -20 -20 -20 -20 -20 -20 -20 -20 -20 -20 -20 -20 -20 -20 -20 -20 -20 -20 -20 -20 -20 -20 -20 -20 -20 -20 -20 -7 3 2 4 7 7 -5 -10 14
-20 -20 -20 -20 -20 -20 -20 -20 -20 -20 -20 -20 -20 -20 -20 -20 -20 -20 -20 -20 -20 -20 -20 -20 -20 -20 -20 -20 -20 -20 -20 -20 -20 -20 -20 -20 6 -2 8 6 6 -18 -20 -1
-20 -11 -20 -20 -11 -20 -20 -20 -20 -20 -20 -20 -20 -20 -20 -20 -20 -20 -20 -20 -20 -20 -20 -20 -20 -20 -20 -20 -14 -20 -20 -20 -20 3 -6 -1 7 1 4 10 6 -6 -20 -20
12 9 7 -19 -20 -20 -20 -20 -20 -20 -20 -20 -20 -20 -20 -20 -20 -20 -20 -20 -20 -20 -20 -20 -20 -20 -20 -18 10 -19 -19 -20 -20 28 9 5 11 7 -5 9 12 -20 -20 -20
9 5 -14 -20 -20 -20 -20 -20 -20 -20 -20 -20 -20 -20 -20 -20 -20 -20 -20 -20 -20 -20 -20 -20 -20 -20 -20 -12 21 4 -0 -2 -4 27 -0 -16 3 3 2 16 -5 -20 -20 -20
8 -2 -20 -20 -20 -20 -20 -20 -20 -20 -20 -20 -20 -20 -3 -20 -14 -20 -20 -20 -20 -20 -20 -20 -20 -20 -16 7 14 12 11 12 2 -13 7 18 4 -14 -20 24 11 -19 -11 -16
-9 -20 -20 -20 -20 -20 -20 -20 -20 -20 -20 -20 -20 -20 -19 -15 -5 -20 -20 -20 -20 -20 -20 -20 -20 6 7 13 18 9 21 2 -9 -20 7 14 6 2 30 8 8 7 1 -5
-20 -20 -20 -20 -20 -20 -20 -20 -20 -20 -20 -20 -20 -20 -4 -20 -18 -20 -20 -20 -20 -20 -8 -19 -11 11 2 7 -8 6 13 18 -8 13 14 23 31 32 25 33 8 7 18 4
-20 -20 -20 -20 -20 -20 -20 -20 -20 -20 -20 -20 -20 -20 -20 -20 -20 -20 -20 -20 -20 -13 13 6 -20 6 -20 -17 -15 8 14 6 20 16 22 31 33 27 22 9 23 12 6 3
-20 -20 -20 -20 -20 -20 -20 -20 -20 -20 -20 -19 -20 -20 -20 -20 -20 -20 -20 -20 -15 -6 11 1 -20 -20 -20 -7 1 7 12 -8 10 22 21 24 25 24 23 24 14 -6 -5 20
-20 -20 -20 -20 -20 -20 -20 -20 -20 -20 -20 -20 -20 -20 -20 -20 -20 -20 -20 -12 1 10 17 -6 -20 -20 -17 -5 -1 4 7 7 -15 0 30 31 20 23 8 4 14 23 28 15
-20 -20 -20 -20 -20 -20 -20 -20 -20 -19 -11 -12 -18 -20 -20 -20 -20 -20 -3 5 -3 8 18 -20 -16 -12 -15 -8 5 0 12 10 6 11 7 17 18 30 17 12 32 42 41 37
-20 -20 -20 -20 -20 -20 -20 3 -17 2 -6 -20 -17 23 -20 -20 -9 5 10 11 10 -5 -20 -12 -17 -17 -17 -3 -9 -10 -5 11 10 6 3 2 3 7 23 24 39 33 36 41
-20 -20 -20 -20 -20 -20 -20 -2 -4 -4 -20 -6 -2 9 -1 -13 14 19 10 9 8 -20 -5 -10 -2 -8 -9 -16 -10 -15 -20 -13 -13 -12 -7 -3 -4 27 15 29 38 28 33 35
-20 -20 -20 -20 -20 -20 -20 -20 -20 5 -16 -11 -11 -2 16 17 15 9 -10 -15 -13 -8 -20 -20 -19 -2 -20 -15 -19 -20 -20 -20 -16 -6 6 9 12 20 20 30 23 37 32 30
3 4 -20 -20 -11 -20 -20 -20 6 4 -4 12 16 18 20 15 -7 -5 -14 -17 -16 -12 -19 -20 -20 -20 -14 -16 -18 -20 -20 -12 0 -8 -18 1 8 6 20 24 28 26 38 35
-20 -20 -13 -4 -12 -18 -20 -20 1 13 19 16 14 15 2 -15 -11 -14 -16 -15 -20 -20 -20 -20 -20 -20 -18 -20 -20 -20 -18 -15 -20 -20 -20 -20 -17 -9 -6 3 18 24 27 29
-20 2 -18 -17 -7 -2 6 9 14 18 8 5 7 -7 -4 -1 -10 -15 -1 -1 -6 -18 -11 -14 -20 -20 -20 -20 -20 -20 -20 -20 -20 -20 -20 -20 -20 -20 -20 -20 -1 8 12 17
-14 -6 -20 -8 5 6 8 11 16 -2 7 3 -4 0 9 1 -12 1 -1 -6 -16 -20 -20 -20 -20 -20 -20 -20 -20 -20 -20 -20 -20 -20 -20 -20 -20 -20 -20 -20 -20 -20 4 5
-10 -16 -0 1 0 -19 -1 10 6 -4 -20 -5 5 -4 -7 -2 -7 -18 -20 -20 -20 -20 -20 -20 -20 -20 -20 -20 -20 -20 -20 -20 -20 -20 -20 -20 -20 -20 -20 -18 5 5 8 3
-2 -8 -11 -19 0 -12 -3 -2 -13 -20 -20 -8 4 0 -4 -19 -20 -20 -20 -20 -20 -20 -20 -20 -20 -20 -20 -20 -20 -20 -20 -20 -20 -20 -20 -20 -20 -20 -20 -20 -20 -18 -11 -14

GFSCGP_prec_radar_108.txt.gz
Reflectivity
-20 -20 -20 -20 -20 -20 -20 -20 -20 -20 -20 -20 -20 -20 -20 -20 -20 -20 -20 -20 -20 -20 -20 -20 -20 -20 -20 -20 -20 -20 -20 -20 -20 -20 -20 -20 -20 -20 -20 -20 -20 -20 -19 2
-20 -20 -20 -20 -20 -20 -20 -20 -20 -20 -20 -20 -20 -20 -20 -20 -20 -20 -20 -20 -20 -20 -20 -20 -20 -20 -20 -20 -20 -20 -20 -20 -20 -20 -20 -20 -20 -20 -20 -20 -16 -18 -8 -1
-20 -18 -20 -20 -20 -20 -20 -20 -20 -20 -20 -20 -20 -20 -20 -20 -20 -20 -20 -20 -20 -20 -20 -20 -20 -20 -20 -20 -20 -20 -20 -20 -20 -20 -20 -20 -20 -20 -20 -20 -13 -1 -2 -2
-5 -20 -20 -20 -20 -20 -20 -20 -20 -20 -20 -20 -20 -20 -20 -20 -20 -20 -20 -20 -20 -20 -20 -20 -20 -20 -20 -20 -20 -20 -20 -20 -20 -20 -20 -20 -20 -20 -20 -20 -20 -17 0 3
-9 -19 -20 -20 -20 -20 -20 -20 -20 -20 -20 -20 -20 -20 -20 -20 -20 -20 -20 -20 -20 -20 -20 -20 -20 -20 -20 -20 -20 -20 -20 -20 -20 -20 -20 -10 -20 -20 -20 -20 -20 1 -11 9
3 -7 -20 -20 -20 -20 -20 -20 -20 -20 -20 -20 -20 -20 -20 -20 -20 -20 -20 -20 -20 -20 -20 -20 -20 -20 -20 -20 -20 -20 -20 -20 -20 -20 -20 -12 -5 -18 -14 -20 -20 -18 -16 8
-20 -14 -3 -7 -14 -20 -20 -20 -20 -20 -20 -20 -20 -20 -20 -20 -20 -20 -20 -20 -20 -20 -20 -20 -20 -20 -20 -20 -20 -20 -20 -20 -20 -20 -20 -20 -20 4 -20 -1 -0 6 9 -6
8 11 -20 -20 -20 -20 -20 -20 -19 -19 -20 -20 -20 -20 -20 -20 -15 -20 -20 -20 -20 -20 -20 -20 -20 -20 -20 -20 -20 -20 -20 -20 -20 -20 -20 -20 -20 -20 -0 -18 6 5 -8 -20
-7 11 -15 -18 -20 -20 -20 -20 -20 -19 -20 -20 -20 -20 -20 -17 0 2 -20 -20 -20 -20 -20 -20 -20 -20 -20 -20 -20 -20 -20 -2 -13 -20 -20 -19 -20 -20 7 1 10 -1 9 -14
-20 -11 -9 7 7 -9 -20 -18 -3 -13 -20 -20 -20 -20 -20 -13 -7 -20 -11 -20 -20 -20 -20 -20 -20 -20 -20 -20 -20 -20 7 23 11 1 -5 -12 -9 -18 11 16 15 -3 12 8
9 -1 -19 -18 -14 -3 2 -19 -18 -19 -20 -20 -20 -20 -20 -20 -20 -20 -20 -20 -20 -20 -20 -20 -20 -20 -20 -20 -20 -20 4 20 25 6 6 18 27 22 36 23 17 4 -2 -8
-3 -20 -20 -19 -20 -20 -20 -20 -20 -20 -20 -20 -20 -20 -20 -20 -20 -20 -20 -20 -20 -20 -20 -20 -20 -20 -20 -20 -20 -20 24 43 29 24 7 7 26 15 33 22 -19 9 -4 -3
-20 -20 -20 -20 -20 -20 -20 -20 -20 -20 -20 -20 -20 -20 5 -20 -20 -20 -20 -20 -20 -20 -20 -20 -20 -20 -20 -12 -20 8 28 16 26 -2 -7 4 17 28 29 18 11 -0 6 5
-20 -20 -20 -20 -20 -20 -20 -20 -20 -20 -20 -20 -20 -20 -20 -20 -20 -12 -20 -20 -20 -20 -20 -20 -20 -20 -20 12 1 -7 4 25 20 27 4 10 30 21 27 24 26 8 6 25
-20 -20 -20 -20 -20 -20 -20 -20 -20 -20 -20 -20 -20 -20 -20 -20 -20 -20 -20 -20 -20 -20 -20 -20 -20 -20 -6 2 -11 1 10 9 0 17 26 23 15 13 37 40 20 17 20 32
-20 -20 -20 -20 -20 -20 -20 -20 -20 -20 -20 -20 -20 -20 -20 -20 -20 -20 -20 -20 -20 -20 -9 -13 -11 -20 -20 -20 -12 13 8 13 3 4 27 41 31 7 17 32 13 25 16 22
-20 -20 -20 -20 -20 -20 -20 -20 -20 -20 -20 -20 -13 -20 5 -14 -18 -20 -20 -20 -20 -2 6 5 4 -6 -2 -9 1 -0 6 11 13 8 -2 26 39 36 32 25 20 20 30 26
-20 -15 -20 -20 -20 -20 -14 -13 -11 -3 2 -5 -3 -1 15 12 -12 -4 -3 -3 0 9 -1 13 4 -4 -1 -0 -20 -11 9 7 14 18 18 -2 23 27 27 31 30 23 18 32
-20 -20 1 -6 -20 -20 -20 1 -7 6 3 -4 0 0 -9 -20 -20 -2 2 13 3 4 7 6 4 3 -1 -6 -1 -13 -18 5 13 5 -17 -7 -11 -11 8 6 26 31 33 37
-20 -12 5 8 4 -20 -3 -20 -13 10 9 -6 6 -1 -4 -2 12 11 15 10 10 9 3 1 -2 6 -10 -1 -3 -20 -20 -20 -17 4 6 -7 -16 -8 -7 -4 16 27 34 34
2 7 5 6 8 5 -19 -20 4 9 8 -1 -2 12 7 14 13 13 4 3 8 5 4 5 3 -16 -16 -7 -20 -20 -20 -3 7 -13 -20 -20 -15 6 13 11 21 22 26 31
5 6 6 10 10 9 -20 -20 0 3 2 5 10 9 7 10 5 4 1 6 7 4 -0 -2 -20 -6 -4 -20 -20 -20 -19 -12 -20 -8 -20 -20 -20 -18 2 8 11 14 22 24
11 5 18 5 9 3 4 4 7 7 6 10 6 10 11 11 12 12 9 5 3 1 -20 -20 -20 -20 -20 -20 -20 -20 -20 -20 -6 -5 -14 -2 -20 -20 -8 -20 -18 5 10 17
7 -11 10 -10 4 2 7 3 2 2 1 5 5 5 8 10 11 10 4 0 -4 -20 -20 -20 -20 -20 -20 -20 -20 -20 -20 -20 -20 -20 -20 -2 -4 -3 -10 -1 -16 -0 2 3
-4 -11 6 0 1 -5 -6 2 3 10 8 10 13 13 7 13 10 2 -4 -3 -16 -20 -20 -20 -20 -20 -20 -20 -20 -20 -20 -20 -20 -20 -20 -20 -20 -20 -12 1 5 4 7 5
-5 -1 6 3 5 -12 -1 5 6 -0 6 8 5 4 4 -1 -18 -20 -15 -9 -20 -20 -20 -20 -20 -20 -20 -20 -20 -20 -20 -20 -20 -20 -20 -20 -20 -20 -20 -20 -20 -19 -20 -20

GFSCGP_prec_radar_111.txt.gz
Reflectivity
-20 -20 -20 -20 -20 -20 -20 -20 -20 -20 -20 -20 -20 -20 -20 -20 -20 -20 -20 -20 -20 -20 -20 -20 -20 -20 -20 -20 -20 -20 -20 -20 -20 -20 -20 -20 -20 -20 -20 -20 -20 -20 -20 -20
-20 -20 -20 -20 -20 -20 -20 -20 -20 -20 -20 -20 -20 -20 -20 -20 -20 -20 -20 -20 -20 -20 -20 -20 -20 -20 -20 -20 -20 -20 -20 -20 -20 -20 -20 -20 -20 -20 -20 -20 -20 -20 -10 -20
-20 -20 -20 -20 -20 -20 -20 -20 -20 -20 -20 -20 -20 -20 -20 -20 -20 -20 -20 -20 -20 -20 -20 -20 -20 -20 -20 -20 -20 -20 -20 -20 -20 -20 -20 -20 -20 -20 -20 -20 -20 -20 -20 -20
-12 -20 -20 8 -20 -20 -20 -20 -19 -20 -20 -20 -20 -20 -20 -20 -20 -20 -20 -20 -20 -20 -20 -20 -20 -20 -20 -20 -20 -20 -20 -20 -20 -20 -20 -20 -20 -20 -20 -20 -20 -20 -20 -19
-20 -20 -20 -20 -20 -7 12 -20 7 -16 -20 -20 -20 -20 -20 -20 -20 -20 -20 -20 -20 -20 -20 -20 -20 -20 -20 -20 -20 -20 -20 -20 -20 -20 -20 -20 -20 -20 -20 -20 -20 -20 -20 -20
-20 7 -11 -20 -20 -20 -7 -2 -17 -20 -20 -20 -20 -20 -20 -19 -19 -20 -20 -20 -20 -20 -20 -20 -20 -20 -20 -20 -20 -20 -20 -20 -20 -20 -20 -20 -20 -20 -20 -20 -20 -20 -20 -20
-18 -10 -6 -16 -20 -9 14 5 6 5 -3 -15 -20 -20 -20 -3 11 4 -20 -20 -20 -20 -20 -20 -20 -20 -20 -20 -20 -20 -20 -20 -20 -20 -20 -20 -20 -20 -13 -20 -20 -20 -5 7
20 17 3 -8 -5 1 -19 14 15 17 11 18 14 -2 -20 3 -5 -20 -20 -20 -20 -20 -20 -20 -20 -20 -20 -20 -20 -20 -20 -20 -20 -20 -20 -20 -20 -20 -20 -18 -20 -20 -18 9
-17 -18 -10 -11 -20 -20 -3 17 12 16 -5 -5 12 10 -14 -20 -20 -20 -19 -19 -20 -20 -20 -20 -20 -20 -20 -20 -20 -20 -20 -20 -20 -20 -20 -20 -20 -20 -20 -20 -20 -20 -20 11
-17 22 5 -13 -20 -20 -20 3 3 -20 -12 -3 -20 -15 15 5 3 -19 3 -16 -20 -20 -20 -20 -20 -20 -20 -20 -18 -20 -20 -20 -20 -20 -20 -14 -1 12 5 2 -20 -11 -13 7
-17 -16 9 -20 -20 -20 -20 -20 -20 -15 3 9 7 12 5 6 -6 -17 -20 -20 -20 -20 -20 -20 -20 -20 -20 -20 -20 -20 -20 -20 -20 -20 -14 8 11 12 15 16 -1 -6 9 -3
-18 0 -17 1 6 -20 -1 -19 -9 -3 -20 -11 -20 -9 -16 -14 -20 -20 -20 -20 -20 -20 -20 -20 -20 -20 -20 -20 -20 -20 -20 -20 -20 10 31 13 -16 10 0 -4 9 15 32 25
-3 20 10 9 -20 -20 -20 -20 -20 -20 -20 -20 -20 -20 -20 -20 -20 -20 -20 -20 -20 -20 -20 -20 -20 -20 -20 -20 -20 -20 -18 -20 25 41 29 29 16 -7 16 10 31 35 32 30
-20 -19 -20 -20 -2 -14 -20 -18 -20 -20 -20 -20 -20 -20 -20 -16 -2 -20 -20 -20 -20 -20 -20 -20 -20 -20 -20 -20 -20 -10 -3 -4 3 33 23 22 28 22 24 28 23 37 29 32
-18 -20 -20 -20 -20 -20 -20 -20 -20 -20 -20 -20 -20 -20 -20 -20 -20 -20 -20 -20 -20 -20 -20 -20 -20 -20 -20 -18 -9 6 -11 -12 4 3 7 35 37 30 21 29 33 21 14 18
-20 -20 -20 -20 -20 -20 -20 -20 -20 -20 -20 -20 -20 -20 -20 -20 -20 -20 -20 -20 -20 -20 -20 -20 -20 1 1 7 -4 4 1 8 15 14 11 7 26 39 41 29 25 18 -12 12
-20 -20 -20 -20 -20 -20 -20 -20 -20 -20 -20 -20 -20 -20 8 -18 7 -18 -20 -20 -20 -20 -6 -15 8 9 15 14 5 3 5 10 10 15 16 16 11 21 32 26 34 39 16 -3
-20 -13 -20 -20 -20 -20 -20 -20 -20 -20 -20 -14 -2 7 -1 -9 -10 -16 -10 -5 -4 -4 -1 12 14 16 15 14 9 15 14 8 4 16 17 26 12 18 20 26 36 37 38 25
-20 -20 1 -5 -6 -20 -20 -20 -20 -3 -15 -20 -8 -14 -20 -20 -20 -5 -6 -0 2 7 10 13 18 16 14 9 11 15 11 8 1 6 -2 7 14 16 6 12 7 19 20 29
-18 -20 1 8 4 8 4 -11 -20 3 -16 -2 -10 -1 -4 -3 12 2 3 5 11 13 12 15 12 10 8 1 -2 -3 -15 -20 -7 7 14 11 5 -2 -3 -4 2 15 21 25
8 2 3 5 12 20 -10 -6 -6 3 3 -2 -6 3 1 6 1 8 12 11 12 12 14 9 2 -5 -5 -6 -20 -14 -20 -6 4 1 -6 2 4 6 10 -5 9 9 23 17
7 9 11 13 20 18 -20 -5 2 10 1 0 9 17 -20 -2 10 6 7 9 12 13 6 4 -17 -20 -20 -20 -20 -20 -18 3 0 -0 -20 -20 -2 4 -7 -8 -2 3 6 9
11 5 20 -2 12 4 -2 4 7 10 6 4 1 3 -6 -3 4 8 11 12 13 12 8 -8 -20 -20 -20 -20 -20 -20 -20 -20 -19 -19 -19 -16 -12 -4 -4 -13 -19 -5 -3 6
-4 -20 15 -13 4 0 2 2 6 6 6 6 9 4 9 0 6 10 10 12 10 5 -13 -20 -20 -20 -20 -20 -20 -20 -20 -20 -20 -20 -20 -20 -20 -20 -20 -20 -7 -5 -17 1
-14 -7 10 -2 -1 -3 -2 2 2 5 7 7 9 5 0 3 7 9 9 8 6 -10 -20 -20 -20 -20 -20 -20 -20 -20 -20 -20 -20 -20 -20 -20 -20 -20 -20 -20 -20 -11 1 -2
-8 -1 10 9 -2 -7 1 4 4 2 2 1 -3 5 8 4 10 6 0 -1 -17 -20 -20 -20 -20 -20 -20 -20 -20 -20 -20 -20 -20 -20 -20 -20 -20 -20 -20 -20 -20 -20 -20 -20

GFSCGP_prec_radar_114.txt.gz
Reflectivity
-20 -20 -20 -20 -20 -20 -20 -20 -20 -20 -20 -20 -20 -20 -20 -20 -20 -20 -20 -20 -20 -20 -20 -20 -20 -20 -20 -20 -20 -20 -20 -20 -20 -20 -20 -20 -20 -20 -20 -20 -20 9 -18 -20
-20 -20 -20 -20 -20 -20 -20 -20 -20 -20 -20 -20 -20 -20 -20 -20 -20 -20 -20 -20 -20 -20 -20 -20 -20 -20 -20 -20 -20 -20 -20 -20 -20 -20 -20 -20 -20 -20 -20 -20 -20 -20 -20 -8
-20 -20 -20 -20 -20 -20 -20 -20 -20 -20 -20 -20 -20 -20 -20 -20 -20 -20 -20 -20 -20 -20 -20 -20 -20 -20 -20 -20 -20 -20 -20 -20 -20 -20 -20 -20 -20 -20 -20 -20 -20 -20 -9 -20
-20 -20 -20 -20 -20 -20 -20 -20 -18 6 9 0 -20 -5 -20 -20 -20 -20 -20 -20 -20 -20 -20 -20 -20 -20 -20 -20 -20 -20 -20 -20 -20 -20 -20 -20 -20 -20 -20 -20 -20 -20 -20 -20
-20 -20 -20 -20 -20 -20 5 -0 1 -20 -20 -20 -17 -9 -20 -19 -5 10 -20 -20 -20 -20 -20 -20 -20 -20 -20 -20 -20 -20 -20 -20 -20 -20 -20 -20 -20 -20 -20 -20 -20 -20 -20 -20
-20 -20 -20 5 -20 -20 -20 -20 -20 -18 -12 0 -8 -9 -18 -20 10 18 24 -16 -20 -20 -20 -20 -20 -20 -20 -20 -20 -20 -20 -20 -20 -20 -20 -20 -20 -20 -20 -20 -20 -20 -20 -20
-20 -20 -20 15 -20 -20 -20 -20 -20 -7 -13 -2 -20 4 -14 11 19 17 17 7 -20 -20 -20 -20 -20 -20 -20 -20 -20 -20 -20 -20 -20 -20 -20 -20 -20 -20 -20 -20 -20 -20 -20 -20
7 -20 -20 -15 -20 -20 -20 -19 9 1 -5 -20 5 8 25 21 22 30 23 -18 -0 -14 -20 -20 -20 -20 -20 -20 -20 -20 -20 -20 -20 -20 -20 -20 -20 -20 -20 -20 -20 -20 -20 -20
-11 -7 -20 -18 -20 -20 -20 -20 -4 17 -10 -19 -11 7 36 30 21 15 14 23 24 -3 -20 -20 -20 -20 -20 -20 -20 -20 -20 -20 -20 -20 -20 -20 -20 -20 -20 -20 -20 -20 -20 -20
-4 -13 -20 -2 -20 -20 -20 -11 -11 3 20 15 -20 9 26 24 18 18 15 10 -16 -20 -20 -20 -20 -20 -20 -20 -20 -20 -20 -20 -20 -20 -20 -20 -20 -20 -20 -20 -18 -17 -20 -20
-2 11 -0 -20 -20 -20 0 -4 -20 -20 -12 13 -11 -19 -10 9 4 24 19 11 1 -20 -20 -20 -20 -20 -20 -20 -20 -20 -20 -20 -20 -20 -20 -13 -20 -20 -11 -14 18 18 11 -18
-7 -4 11 -20 2 -13 -20 -17 -13 -10 -19 -19 2 -20 -20 -20 6 -4 -20 -20 -20 -20 -20 -20 -20 -20 -20 -20 -20 -20 -20 -20 -20 -20 -20 -20 -7 -13 -8 2 18 25 17 18
-20 -19 -17 -13 4 -20 -20 -20 -20 -20 -13 -15 -13 -16 10 -5 14 -18 -20 -11 -18 -13 -20 -20 -20 -20 -20 -20 -20 -20 -18 -20 -18 -15 -19 -9 32 16 22 13 11 -9 -20 -20
-20 -20 -20 1 17 -0 -19 -20 -20 -20 -20 -20 -10 -20 3 -1 -12 -20 -20 -20 -20 -20 -20 -20 -20 -20 -20 -20 -20 -19 -2 1 -11 -14 -0 16 21 5 17 34 23 7 16 1
-1 -20 -20 -20 -19 8 -20 -20 -20 -20 -20 -16 -16 -15 -18 -16 -19 -20 -20 -20 -20 -20 -20 -20 -20 -20 -20 -18 -3 0 4 12 3 6 2 8 7 20 22 34 34 27 40 30
-20 -20 -20 -20 -20 -20 -20 -20 -20 -20 -20 -20 -20 -20 -20 -20 -20 -20 -20 -20 -20 -20 -20 -20 -20 -20 -17 -1 3 4 20 26 26 16 3 10 16 8 1 3 29 28 25 28
1 -20 -20 -20 -20 -20 -20 -20 -20 -20 -20 -20 -20 -20 -20 -20 -20 -20 -20 -20 -20 -16 -11 -4 -2 2 -2 6 15 10 17 27 25 21 29 29 23 11 3 2 22 20 27 30
-20 -2 -20 -20 -20 -20 -20 -20 -20 -20 -20 -20 -20 -20 -20 -20 -20 -20 -20 -20 -13 -12 -5 -4 5 10 6 14 12 17 25 19 15 11 18 17 30 23 16 9 14 16 23 34
-20 -20 -16 -20 -20 -20 -20 -20 -20 -20 -20 -20 -20 -20 -20 -20 -20 0 2 -11 -2 -0 -1 9 14 13 13 13 15 19 19 19 18 12 16 13 6 11 -7 -6 -2 14 19 21
-20 -20 -20 -18 1 1 -8 -20 -20 -15 -19 -20 -20 -20 -19 -20 6 3 3 1 1 2 15 15 13 11 12 12 15 16 16 17 15 14 16 14 15 11 13 0 9 4 11 16
-14 -4 -20 -0 11 8 -20 -20 -15 -8 -3 -17 -15 -20 26 -19 -20 1 1 1 8 14 17 15 10 12 13 10 1 -20 -20 -18 -15 -13 -11 7 11 15 15 15 11 14 10 -6
-10 4 4 -1 15 16 -20 -19 -10 -2 -19 -10 4 6 -17 -10 0 -1 1 5 12 14 13 11 10 2 -17 -20 -20 -20 -20 -20 -20 -20 -20 -20 -20 -17 -9 6 8 10 11 12
-0 -17 23 -17 11 -20 -20 -20 3 4 2 2 -4 9 -6 -7 -5 0 4 10 12 13 13 13 11 7 -20 -20 -20 -20 -20 -20 -20 -20 -20 -20 -20 -20 -20 -20 -20 -20 -13 6
-20 -20 10 -15 -4 -20 -18 -18 -0 -2 3 6 4 4 -0 -6 3 2 -0 10 12 12 13 12 5 -20 -20 -20 -20 -20 -20 -20 -20 -20 -20 -20 -20 -20 -20 -20 -20 -20 -20 -20
-12 -20 3 -20 -20 -20 -6 -1 -4 0 -2 -1 3 2 2 3 -1 1 9 8 7 8 9 -0 -20 -20 -20 -20 -20 -20 -20 -20 -20 -20 -20 -20 -20 -20 -20 -20 -20 -20 -20 -20
-20 -18 6 7 -14 -14 -3 -0 -1 -4 -1 1 -11 -0 4 -9 2 6 4 2 -3 -15 -20 -20 -20 -20 -20 -20 -20 -20 -20 -20 -20 -20 -20 -20 -20 -20 -20 -19 -20 -20 -20 -20

GFSCGP_prec_radar_117.txt.gz
Reflectivity
-20 -20 -20 -20 -20 -20 -20 -20 -20 -20 -20 -20 -20 -20 -20 -20 -20 -20 -20 -20 -20 -20 -20 -20 -20 -20 -20 -20 -20 -20 -20 -20 -20 -20 -20 -20 -20 -20 -5 -20 -19 -17 12 36
-20 -20 -20 -20 -20 -20 -20 -20 -20 -20 -20 -20 -20 -20 -20 -20 -20 -20 -20 -20 -20 -20 -15 -20 -20 -20 -20 -20 -20 -20 -20 -20 -20 -20 -20 -20 -20 -20 -20 -20 -20 -6 19 -1
-20 -20 -20 -20 -20 -20 -20 -20 -20 -20 -20 -20 -20 -20 -20 -20 -20 -20 -20 -20 -20 -13 -5 -20 -20 -20 -20 -20 -20 -20 -20 -20 -20 -20 -20 -20 -20 -20 -20 -20 -20 -20 -20 -20
-20 -20 -20 -20 -20 -20 -20 -20 -13 -15 -10 -20 -20 -20 -20 -20 -20 -20 -20 -16 6 3 4 -19 -20 -20 -20 -20 -20 -20 -20 -20 -20 -20 -20 -20 -20 -20 -20 -20 -20 -20 -20 -20
-20 -20 -20 -20 -20 -20 -20 -20 -20 -20 -20 -19 -10 -20 -20 -20 -20 -19 13 19 13 9 13 -20 -20 -20 -20 -20 -20 -20 -20 -20 -20 -20 -20 -20 -20 -20 -20 -20 -20 -20 -20 -20
-20 -20 -20 -20 -20 -20 -7 -15 -6 -5 -20 -20 -20 -12 -20 -20 -20 -20 -4 13 10 14 -2 -20 -5 -20 -20 -20 -20 -20 -20 -20 -20 -20 -20 -20 -20 -20 -20 -20 -20 -20 -20 -20
-20 -20 -20 -9 -3 -20 -3 1 -20 -20 -20 -20 -20 -20 -20 -8 24 14 -1 -11 13 8 4 11 15 -19 -20 -20 -20 -20 -20 -20 -20 -20 -20 -20 -20 -20 -20 -20 -20 -20 -20 -20
-20 -20 -20 -20 -20 -20 -14 2 -20 -20 -20 -20 -20 -20 -16 32 -14 24 25 -18 -20 -16 -10 15 15 -1 -20 -20 -20 -20 -20 -20 -20 -20 -20 -20 -20 -20 -20 -20 -20 -20 -20 -20
-20 -20 -20 -20 -20 -5 -20 -20 -13 -18 -20 -20 -20 -20 -15 27 38 17 41 26 24 -2 18 19 8 -4 -20 -20 -20 -20 -20 -20 -20 -20 -20 -20 -20 -20 -20 -20 -20 -20 -20 -20
-14 -14 -20 -20 -20 -20 -20 -20 -20 -20 -16 -13 -20 -20 -2 32 33 34 33 25 33 31 22 14 -0 -20 -20 -20 -20 -20 -20 -20 -20 -20 -20 -20 -20 -20 -20 -20 -20 -20 -20 -20
-20 -20 -20 -20 -20 -20 -20 -19 1 -15 -12 -17 -20 -20 17 9 -15 -15 -0 2 2 -20 -20 -20 -20 -20 -20 -20 -20 -20 -20 -20 -20 -20 -20 -20 -20 -20 -20 -20 -20 -20 -20 -20
-20 -20 -20 -20 -20 -20 -20 -20 -16 12 -19 -20 -20 -20 -20 -15 17 -20 -20 -20 -20 -20 -20 -19 -9 -20 -20 -20 -20 -20 -20 -20 -20 -20 -20 -19 -18 -20 -20 -20 -4 -1 6 -11
-20 -19 -20 -20 -20 -20 -20 -20 -10 6 -6 -6 -20 -16 -18 -7 -17 -14 -20 -20 -20 -20 -20 8 -0 -20 -20 -20 -20 -18 -20 -18 -20 -19 -1 -3 -1 1 -11 -16 1 -2 -0 3
-20 -20 -20 -15 -9 -13 -20 -20 -20 -17 -17 -20 -20 -20 -16 9 -19 -20 -19 -20 -20 -18 -3 -3 -19 -20 -20 -20 -20 -14 -20 -6 -10 2 2 2 5 10 5 -5 -19 -18 -3 -7
-20 -20 -20 -20 -20 10 -14 -20 -20 -20 -20 -20 -20 -16 -20 -19 -20 -20 -20 -20 -20 -20 -20 -20 -20 -20 -20 -6 -20 -20 -20 -10 2 2 12 9 21 17 17 9 -11 -4 4 9
-20 -20 -20 -20 -20 -20 -5 -20 -20 -20 -20 -13 -20 -20 -20 -20 -20 -20 -20 -20 -20 -20 -20 -20 -20 -20 -20 -4 -6 -20 -20 -20 8 4 20 25 29 33 15 5 -1 3 16 25
-20 -20 -20 -20 -20 -20 -20 -20 -20 -20 -20 -20 -20 -20 -20 -20 -20 -20 -20 -20 -20 -20 -16 -20 -18 -4 -20 -12 -15 -17 -12 5 13 13 20 24 34 26 12 8 7 13 18 16
-20 -20 -20 -20 -20 -20 -20 -20 -20 -20 -20 -20 -20 -20 -20 -20 -20 -20 -20 -20 -20 -13 -19 -20 -20 -20 -15 -2 -10 6 8 15 17 19 18 20 14 18 16 -3 9 15 18 13
-20 -20 -20 -20 -20 -20 -20 -20 -20 -20 -20 -20 -20 -19 -20 -20 -20 -2 -20 -20 -20 -20 -20 -20 -12 4 11 10 9 5 14 17 18 19 21 20 20 16 12 14 9 16 19 15
-20 -20 -20 -20 -20 -20 -20 -20 -20 -20 -20 -20 -20 -20 -18 -20 -20 -5 -20 -20 -20 -20 -20 3 12 12 11 9 3 13 12 13 16 17 16 13 14 14 15 15 16 12 9 11
-20 -20 -20 -20 -20 -17 -20 -20 -20 -20 -20 -20 -20 -20 -16 -19 -20 -20 -20 -19 -19 -12 6 13 11 11 10 9 11 6 -6 -20 -12 -5 -20 -20 -20 -20 -15 -8 -6 -1 9 5
-20 -20 -20 -20 -15 5 -20 -20 -20 -12 -20 -20 -20 -20 -12 -3 -20 -20 -17 -17 -17 4 6 5 10 7 9 12 0 -20 -20 -20 -20 -20 -20 -20 -20 -20 -20 -20 -20 -20 -11 -5
-6 -20 8 -20 -20 -20 -20 -20 -19 -20 -20 -17 -20 -10 -0 -8 -2 -18 2 -6 -1 -1 4 3 5 10 13 8 -16 -20 -20 -20 -20 -20 -20 -20 -20 -20 -20 -20 -20 -20 -20 -20
-20 -20 -20 -20 -19 -20 -20 -8 -20 -20 -18 -17 -8 -20 -12 -13 0 3 1 -3 1 5 6 12 15 13 -7 -20 -20 -20 -20 -20 -20 -20 -20 -20 -20 -20 -20 -20 -20 -20 -20 -20
-20 -20 -20 -20 -20 -8 -20 -20 -20 -10 -16 -20 -7 -18 -19 -7 2 -1 -1 3 5 8 12 14 4 -20 -20 -20 -20 -20 -20 -20 -20 -20 -20 -20 -20 -20 -20 -20 -20 -20 -20 -20
-20 -20 -20 -20 -20 -20 -20 -20 -20 -17 -12 -20 -12 0 6 -5 -6 -7 -10 -3 0 4 8 -20 -20 -20 -20 -20 -20 -20 -20 -20 -20 -20 -20 -20 -20 -20 -20 -20 -20 -20 -20 -20

GFSCGP_prec_radar_123.txt.gz
Reflectivity
-20 -20 -20 -20 -20 -20 -20 -20 -20 -20 -20 -20 -20 -20 -20 -20 -20 -20 -20 -20 -20 -20 -20 -20 -20 -20 -20 -20 -20 -20 -20 -20 -20 -20 -20 -20 -20 -20 -20 -20 -20 -20 -20 -20
-20 -20 -20 -20 -20 -20 -20 -20 -20 -20 -20 -20 -20 -20 -20 -20 -20 -20 -20 -20 -20 -20 -20 -20 -20 -20 -20 -20 -20 -20 -20 -20 -20 -20 -20 -20 -20 -20 -20 -20 -20 -20 -20 -20
-20 -20 -20 -20 -20 -20 -20 -20 -20 -20 -20 -20 -20 -20 -20 -20 -20 -20 -20 -20 -20 -20 -20 -20 -20 -20 -20 -13 -20 -20 -20 -20 -20 -20 -20 -20 -20 -20 -20 -20 -20 -20 -20 -20
-20 -20 -20 -20 -20 -20 -20 -20 -20 -20 -20 -20 -20 -16 -20 -20 -20 -20 -20 -20 -20 -20 -20 -20 -20 -20 -12 1 -10 -20 -20 -20 -20 -20 -20 -20 -20 -20 -20 -20 -20 -20 -20 -20
-20 -20 -20 -20 -20 -20 -20 -20 -20 -20 -20 -20 -20 -20 -20 -20 -20 -20 -20 -20 -20 -20 -20 -20 -20 -20 -16 -10 -10 0 -20 -20 -20 -20 -20 -20 -20 -20 -20 -20 -20 -20 -20 -20
-20 -20 -20 -20 -20 -20 -20 -20 -20 -20 -20 -2 -20 -20 -20 -20 -18 -20 -20 -20 -20 -20 -20 -20 -20 -3 13 11 -1 -20 -20 -20 -20 -20 -20 -20 -20 -20 -20 -20 -20 -20 -20 -20
-20 -20 -20 -20 -20 -20 -20 -20 6 -20 -20 -20 -20 -20 -20 -8 -20 -20 -20 -20 -20 17 13 -11 -12 -3 6 1 -18 -1 7 6 -20 -20 -20 -20 -20 -20 -20 -20 -20 -20 -20 -20
-20 -20 -20 -20 -20 -20 -20 -18 -15 -20 -20 -20 -20 -20 -20 -20 -20 -20 -20 -20 17 26 32 31 32 36 11 1 3 12 3 -16 -20 -20 -20 -20 -20 -20 -20 -20 -20 -20 -20 -20
-20 -20 -20 -20 -20 -20 -20 -20 -20 21 -20 -20 -20 -20 -17 6 -20 -20 -20 -20 -20 15 26 17 12 4 32 28 23 23 20 8 -3 -15 -20 -20 -20 -20 -20 -20 -20 -20 -20 -20
-20 -20 -20 -20 -20 -20 -20 -20 -20 -20 -20 -20 -20 -20 -20 2 8 -16 -3 -20 -20 -8 -18 3 -20 11 12 4 -13 -6 17 20 16 7 8 3 -20 -18 -20 -16 -20 -20 -7 -20
-20 -20 -20 -20 -20 -20 -20 -20 -20 -20 -20 -20 -20 -20 -20 -20 -20 -20 -19 -20 -20 -20 -20 -20 -20 -9 -14 -16 -20 -19 -20 -20 -20 -18 -8 -20 -20 -20 -20 -16 -8 -6 -11 -20
-16 9 -20 -20 -6 -20 -20 -20 -20 -20 -20 -20 -20 -20 -20 -20 -20 -20 -20 -20 -20 -20 -20 -20 -20 -20 -20 -20 -20 -20 -16 -20 -20 -20 -20 -13 -3 -20 -12 2 0 -1 -11 -7
11 -20 -20 -20 -5 -18 -20 -20 -20 -20 -20 -20 -20 -20 20 4 11 -20 -20 -20 -20 -20 -20 -20 -20 -20 -20 -20 -20 -20 -20 -18 -20 -20 -16 -7 -17 -6 8 6 2 -1 -1 -12
-10 -20 -20 -20 -20 -20 -20 -20 -20 -18 -20 -20 -20 -20 -20 5 -13 -20 -20 -20 -20 -20 -20 -20 -20 -20 -20 -20 -20 -20 -20 -20 -20 -20 -20 -20 -20 1 -2 3 2 0 -11 -18
10 -20 -20 -20 -20 -20 -20 -20 -20 4 -19 3 -14 -16 -20 -20 -20 -20 -20 -20 -20 -20 -20 -20 -20 -20 -20 -20 -20 -20 -20 -20 -20 -20 -20 -20 -20 -20 -20 -17 -18 -12 -7 -10
-20 -2 -20 -20 -15 -15 -10 -20 -20 -20 -20 -20 -20 -20 -20 -20 -20 -20 -20 -20 -20 -20 -20 -20 -20 -20 -20 -20 -20 -20 -20 -20 -20 -20 -20 -20 -13 -10 -6 8 11 9 7 8
4 -18 -20 2 -20 -4 -20 -20 -20 -20 -20 -20 -20 -20 -20 -20 -20 -20 -20 -20 -20 -20 -20 -20 -20 -13 -3 -20 -20 -10 -20 -20 -20 -20 -20 -20 -17 -4 6 10 11 3 5 4
-12 -20 12 8 2 -20 -20 -20 -20 -20 -20 -20 -20 -20 -20 -20 -20 -20 -20 -20 -20 -20 -20 -20 -16 -8 -20 -20 -20 -20 -20 -20 -20 -20 -19 -10 -10 -12 -1 5 6 10 15 16
9 9 8 -6 -20 -20 -20 -20 -20 -20 -20 -20 -20 -20 -20 -20 -20 -20 -20 -20 -20 -20 -20 -20 -20 -20 -20 -20 -17 -9 -7 -19 -20 -17 -3 3 -1 -9 -15 -16 -14 -17 7 11
7 -5 -1 -20 -20 -20 -20 -20 -20 -20 -20 -20 -20 -20 -20 -20 -20 -20 -20 -20 -20 -20 -20 -20 -20 -20 -20 -20 -17 -3 2 -5 -17 -0 -3 -14 -20 -20 -20 -20 -20 -20 -12 -20
8 3 -12 -20 -20 -20 -20 -20 -20 -20 -20 -20 -20 -20 -20 -20 -20 -20 -20 -20 -20 -20 -19 -8 -9 1 -6 -1 1 5 4 0 1 -4 -20 -20 -20 -20 -20 -20 -20 -20 -20 -20
-13 -3 -17 -19 -20 -20 -20 -20 -20 -20 -20 -20 -20 -20 -20 -20 -18 -20 -20 -20 -20 -20 -2 6 7 6 4 7 8 6 9 3 -20 -20 -20 -20 -20 -20 -20 -20 -20 -20 -20 -20
-20 -20 -20 -20 -20 -20 -20 -20 -20 -20 -20 -20 -20 -20 -20 -20 -13 -6 -19 -18 -17 -18 2 6 10 12 13 14 12 11 5 -1 -20 -20 -20 -20 -20 -20 -20 -20 -20 -20 -20 -20
-12 -20 -20 -20 -20 -20 -20 -20 -20 -20 -20 -20 -20 -20 -20 -20 -20 -20 -20 -20 -20 2 7 9 11 9 6 4 1 -20 -20 -20 -20 -20 -20 -20 -20 -20 -20 -20 -20 -20 -20 -20
-20 -20 -20 -20 -17 -20 -20 -20 -20 -20 -20 -20 -20 -20 -20 -20 -20 -20 -20 -20 -16 -6 1 -8 2 5 0 -7 -19 -20 -20 -20 -20 -20 -20 -20 -20 -20 -20 -20 -20 -20 -16 -13
-20 -20 -20 -20 -20 -20 -20 -20 -20 -20 -20 -20 -20 -19 -20 -20 -20 -20 -20 -20 -20 -12 -19 -9 -3 -3 -20 -20 -20 -20 -20 -20 -20 -20 -20 -20 -20 -20 -20 -20 -20 -20 -20 -20

GFSCGP_prec_radar_126.txt.gz
Reflectivity
-20 -20 -20 -20 -20 -20 -20 -20 -20 -20 -20 -20 -20 -20 -20 -20 -20 -20 -20 -20 -20 -20 -20 -20 -20 -20 -20 -20 -20 -20 -20 -20 -20 -20 -20 -20 -20 -20 -20 -20 -20 -20 -20 -20
-20 -20 -20 -20 -20 -20 -20 -20 -20 -20 -20 -20 -20 -20 -20 -20 -20 -20 -20 -20 -20 -20 -20 -20 -20 -20 -20 -20 -20 -20 -20 -20 -20 -20 -20 -20 -20 -20 -20 -20 -20 -20 -20 -20
-20 -20 -20 -20 -20 -20 -20 -20 -20 -20 -20 -20 -20 -20 -20 -20 -20 -20 -20 -20 -20 -20 -20 -20 -20 -20 -20 -20 -20 -20 -20 -20 -20 -20 -20 -20 -20 -20 -20 -20 -20 -20 -20 -20
-20 -20 -20 -20 -20 -20 -20 -20 -20 -20 -20 -20 -20 -20 -20 -20 -20 -20 -20 -20 -20 -20 -20 -20 -20 -20 -20 -20 -20 -20 -20 -20 -10 -15 -20 -20 -20 -20 -20 -20 -20 -20 -20 -20
-20 -20 -20 -20 -20 -20 -20 -20 -20 -20 -20 -20 -20 -20 -20 -20 -20 -20 -20 -20 -20 -20 -20 -20 -20 -20 -20 -20 -20 -20 -20 -20 -20 -20 -20 3 -20 -20 -20 -20 -20 -20 -20 -20
-20 -20 -20 -20 -20 -20 -20 -20 -20 -20 -20 -20 -20 -20 -20 -20 -20 -20 -20 -20 -20 -20 -20 -20 -20 -20 -17 -19 -20 -20 -20 -20 -20 -20 -20 -20 -20 -20 -20 -20 -20 -20 -20 -20
-20 -20 -20 -20 -20 -20 -20 -20 -20 -20 -20 -20 -20 -20 -20 -20 -20 -20 -20 -20 -20 -20 -20 7 17 18 9 -11 18 -2 -19 -20 -19 -20 -14 -17 -16 -19 -20 -20 -20 -20 -20 -20
-20 -20 -20 -20 -20 -20 -20 -20 -11 -20 -20 -20 -20 -20 -20 -20 -20 -20 -20 -20 -20 -20 -20 -20 -20 -7 12 -20 -20 -4 23 23 6 -20 -20 -20 -20 -20 -20 -13 -20 -20 -20 -20
-20 -20 -20 -20 -20 -20 -20 -20 -20 -20 -20 -20 -20 -20 -20 -20 -20 -20 -20 -20 -20 -20 -20 -20 -20 -20 -20 -20 -20 -20 -20 -20 -20 -20 -19 -19 -19 -19 -12 6 -19 -5 -20 -20
-20 -20 -20 -20 -20 -20 -20 -20 -20 -20 -19 -20 -20 -20 -20 -20 -20 -20 -20 -20 -20 -19 -20 -20 -20 -20 -17 -14 -13 -13 -2 -3 -17 -20 -20 -7 4 7 4 -6 -19 -20 -20 -20
-20 -15 -20 -20 -20 -20 -20 -20 -20 13 4 -20 -20 -20 -20 -20 -20 -20 -20 -20 -20 -20 -20 -20 -20 -20 -20 -20 -20 -20 -13 -13 -7 -20 -20 -17 -20 -20 -4 2 -9 -3 -1 -6
-19 1 -20 -20 -20 -16 -19 -20 -20 6 -7 -20 -19 -20 -20 -20 -20 -20 -20 -20 -20 -20 -20 -20 -20 -20 -20 -20 -20 -20 -20 -20 -20 -20 -20 -20 -20 -19 -3 -2 4 0 -4 -6
-20 -20 21 -8 -15 -20 -20 -20 -20 8 7 -20 5 -20 -20 -20 -20 5 -15 -20 -20 -20 -20 -20 -20 -20 -20 -20 -20 -20 -19 -20 -8 -11 -20 -9 -20 -2 -12 -1 1 -2 -2 -6
-10 -9 -20 2 -20 -20 -20 -20 -20 -7 -19 -20 -20 -20 -20 -20 -20 4 -20 -20 -20 -20 -20 -20 -20 -20 -20 -20 -20 -20 -20 -20 -12 -20 -11 -9 -20 -11 -1 -19 -10 -2 -10 -20
15 -2 -20 -19 -20 -20 -20 -20 -20 -5 -20 -19 -20 -20 -20 -20 -20 -20 -19 -20 -20 -20 -20 -20 -20 -20 -18 -20 -20 -20 -20 -20 -20 -20 -20 -20 -15 -3 -9 -14 -9 -1 -13 -18
2 -20 -20 -20 -20 -20 -20 -20 -20 -20 -20 -20 -20 -20 -20 -20 -20 -20 -20 -20 -20 -20 -20 -20 -20 -20 -20 -20 -20 -20 -20 -20 -20 -20 -20 -20 -6 11 14 8 10 4 -10 4
6 -20 -19 15 11 -20 -20 -20 -20 -20 -16 -20 -20 -20 -20 -20 -20 -20 -20 -20 -20 -20 -20 -20 -20 -20 -20 -20 -20 -20 -20 -20 -20 -20 -4 2 -9 -8 3 -7 2 -6 10 12
-20 2 -16 -1 -3 -4 -20 -20 -20 -20 -20 -20 -20 -20 -20 -20 -20 -20 -20 -20 -20 -20 -20 -20 -20 -20 -20 -20 -20 -20 -20 -20 -20 -19 -0 -1 -4 -15 -4 -17 -11 -13 -13 -20
-20 -17 2 10 -18 -20 -20 -20 -20 -20 -20 -20 -20 -20 -20 -20 -20 -20 -20 -20 -20 -20 -20 -20 -20 -20 -20 -20 -20 -20 -20 -20 -20 -14 -13 -12 -12 -13 -20 -20 -18 -20 -14 -20
1 -19 -5 16 -13 -15 -20 -20 -20 -20 -20 -20 -20 -20 -20 -20 -20 -20 -20 -20 -20 -20 -20 -20 -20 -20 -20 -20 -20 -5 -20 -20 -13 1 -3 -20 -20 -20 -20 -20 -20 -20 -9 -11
6 16 12 -6 -13 -20 -20 -20 -20 -20 -20 -20 -20 -20 -20 -20 -20 -20 -20 -20 -20 -20 -20 -10 -7 -19 -5 -8 10 3 -6 0 8 6 -19 -20 -7 -20 -20 -20 -20 -20 -20 -20
-20 15 -0 -9 -2 -18 -20 -20 -20 -20 -20 -20 -20 -20 -20 -20 -20 -20 -20 -20 -20 -20 -19 -19 -12 9 14 12 11 7 9 9 4 -13 -20 -19 -20 -20 -20 -20 -20 -20 -20 -20
-12 -18 -20 -17 -17 -20 -20 -20 -20 -20 -20 -20 -20 -20 -20 -20 -20 -20 -17 -20 -13 -20 -20 -6 5 11 15 12 10 6 8 9 -20 -20 -20 -20 -19 -20 -20 -20 -20 -20 -20 -20
-20 -20 -20 -19 -20 -20 -20 -20 -20 -20 -20 -20 -20 -20 -20 -20 -19 -20 -20 -17 -20 -20 -20 -19 2 6 5 8 3 6 1 -9 -9 -20 -20 -20 -20 -20 -20 -20 -20 -20 -20 -20
-20 -13 -18 -20 -20 -20 -20 -20 -20 -20 -20 -20 -20 -20 -20 -20 -20 -20 -20 -20 -20 -20 -20 -5 0 -2 2 2 8 -8 -15 -13 -20 -20 -20 -20 -20 -20 -20 -20 -20 -20 -20 -20
-20 -20 -20 -20 -20 -20 -20 -20 -20 -20 -20 -20 -20 -20 -20 -20 -20 -20 -20 -20 -20 -20 -12 -6 -11 -13 -0 -1 -20 -20 -20 -20 -20 -20 -20 -20 -20 -20 -20 -20 -20 -17 -16 -19

GFSCGP_prec_radar_129.txt.gz
Reflectivity
-20 -20 -20 -20 -20 -20 -20 -20 -20 -20 -20 -20 -20 -20 -20 -20 -20 -20 -20 -20 -20 -20 -20 -20 -20 -20 -20 -20 -20 -20 -20 -20 -20 -20 -20 -20 -20 -20 -20 -20 -20 -20 -20 -20
-20 -20 -20 -20 -20 -20 -20 -20 -20 -20 -20 -20 -20 -20 -20 -20 -20 -20 -20 -20 -20 -20 -20 -20 -20 -20 -20 -20 -20 -20 -20 -20 -20 -20 -20 -20 -20 -20 -20 -20 -20 -20 -20 -20
-20 -20 -20 -20 -20 -20 -20 -20 -20 -20 -20 -20 -20 -20 -20 -20 -20 -20 -20 -20 -20 -20 -20 -20 -20 -20 -20 -20 -20 -20 -20 -20 -20 -20 -20 -20 -20 -20 -20 -20 -20 -20 -20 -20
-20 -20 -20 -20 -20 -20 -20 -20 -20 -20 -20 -20 -20 -20 -20 -20 -20 -20 -20 -20 -20 -20 -20 -20 -20 -20 -4 -20 -20 -20 -20 -20 -20 -20 -20 -20 -20 -20 -20 -20 -20 -20 -20 -20
-20 -20 -20 -20 -20 -20 -20 -20 -20 -20 -20 -20 -20 -20 -20 -20 -20 -20 -20 -20 -20 -20 -20 -20 -20 -20 -20 -20 -20 -20 -20 -20 -20 -20 -20 -20 -20 -20 -20 -20 -20 -20 -20 -20
-20 -20 -20 -20 -20 -20 -20 -20 -20 -20 -20 -20 -20 -20 -20 -20 -20 -20 -20 -20 -20 -20 -20 -20 -20 -20 -20 -20 -20 -20 -20 -20 -20 -20 -20 -20 -20 -20 -20 -20 -20 -20 -20 -20
-20 -20 -20 -20 -20 -20 -20 -20 -20 -20 -20 -20 -20 -20 -20 -20 -20 -20 -20 -20 -20 -20 -20 -20 -20 -20 -20 -20 -20 -20 -20 -20 -20 -20 -7 -18 -20 -20 -20 -8 -8 -20 -20 -20
-20 -20 -20 -20 -20 -20 -20 -20 -19 -20 -20 -20 -20 -20 -20 -20 -20 -20 -20 -20 -20 -20 -20 -20 -20 -20 -20 -20 -20 -20 -20 -20 -20 -20 -20 -20 -20 -20 -15 -11 -20 -9 -19 -12
-20 -20 -20 -20 -20 -20 -20 -20 -20 10 -20 -14 -20 -20 -20 -20 -20 -20 -20 -20 -20 -20 -20 -20 -20 -20 -20 -20 -20 -20 -20 -20 -20 -20 -20 -20 -20 -17 -9 -20 -18 -20 -12 -20
-20 -20 -20 -20 -20 -20 -20 -20 -1 -16 -14 -20 -20 -20 -20 -20 -20 -20 -20 -20 -20 -20 -20 -20 -20 -20 -20 -20 -20 -20 -20 -20 -20 -5 -18 -3 -13 -0 -9 -1 2 -13 -4 -14
-20 -6 -20 -20 -20 -20 -20 -20 -20 22 -0 19 -20 -20 -20 -20 -20 -20 -20 -20 -20 -20 -20 -20 -20 -20 -20 -20 -20 -20 -20 -8 -17 -5 -14 -7 -10 0 -18 -4 -2 -2 -10 -5
-20 -20 -20 -20 -20 -20 5 -19 11 14 -16 -20 5 -20 -20 -20 -20 -20 -20 -20 -20 -20 -20 -20 -20 -20 -20 -20 -20 -20 -20 -14 -4 -4 -7 -6 -20 -7 -20 -4 -5 -2 -3 -1
-20 -20 -20 -20 -20 -20 22 20 13 4 6 -20 14 -20 -20 -20 -20 -20 -20 -20 -20 -20 -20 -20 -20 -20 -20 -20 -20 -20 -20 -20 -20 -20 -20 -20 -20 -5 -5 -6 -3 -4 -3 -3
-9 -14 15 13 -16 -13 -8 -20 -20 9 6 -20 -20 -20 -20 -20 -20 -20 -20 -20 -11 -7 -20 -20 -20 -20 -20 -20 -20 -20 -20 -20 -20 -20 -20 -20 -20 -3 -3 -4 -19 -5 -3 -1
-20 -20 -20 -20 -20 -4 -4 -20 -20 -2 -20 1 -20 -20 -20 -20 -20 -20 -20 -20 -20 -20 -20 -20 -20 -20 -20 -20 -20 -20 -20 -20 -20 -20 -20 -20 -20 -20 -17 -18 -16 -10 -8 -10
-20 -8 -20 -20 -20 -20 -20 -20 -20 -20 -20 -20 -20 -20 -20 -20 -20 -20 -20 -20 -20 -20 -20 -20 -20 -20 -20 -20 -20 -20 -20 -20 -20 -20 -20 -20 -20 -20 -20 -20 -20 -20 -19 -13
13 2 -11 -20 -20 -20 -17 -20 -20 -20 -20 -20 -20 -20 -20 -20 -20 -20 -20 -20 -20 -20 -20 -20 -20 -20 -20 -20 -20 -20 -20 -20 -20 -20 -20 -20 -20 -20 -20 -20 -20 -20 -5 -16
2 -1 20 2 -17 12 -20 -20 -20 -20 -20 -20 -20 -20 -20 -20 -20 -20 -20 -20 -20 -20 -18 -20 -20 -20 -20 -20 -20 -20 -20 -20 -20 -20 -20 -20 -20 -20 -20 -20 -20 -20 -4 -3
-20 4 15 15 -10 -19 -20 -20 -20 -20 -20 -20 -20 -20 -20 -20 -20 -20 -20 -20 -20 -20 -20 -20 -20 -20 -20 -20 -20 -20 -20 -20 -20 -20 -20 -20 -17 -20 -20 -20 -20 -20 -20 -14
-19 4 15 3 -5 -20 -20 -20 -20 -20 -20 -20 -20 -20 -20 -20 -13 -20 -20 -20 -20 -20 -20 -20 -20 -20 -20 -20 -20 -16 -20 -17 -20 -11 -20 -20 -20 -20 -20 -8 -20 -20 -20 -20
-5 13 13 2 8 -18 -20 -20 -20 -20 -20 -20 -20 -20 -20 -20 -20 -20 -20 -20 -20 -20 -20 -20 -20 -20 -20 -20 -12 -7 -19 -2 8 -5 -13 -19 -20 -20 -6 -8 -20 -20 -20 -20
-0 20 10 4 11 6 0 -3 -20 -20 -20 -20 -20 -20 -20 -20 -20 -20 -20 -20 -20 -11 -1 -14 -20 -20 -20 -20 -20 -11 2 5 -7 -7 -15 -2 -15 -20 -20 -15 -19 -20 -20 -20
-2 -19 -1 0 -20 6 -19 -11 -10 -20 -20 -20 -20 -20 -20 -20 -20 -20 -20 -20 -2 -20 -3 -10 -20 -20 -2 -20 -20 -16 -8 -5 -7 -20 -11 -20 -20 -20 -20 -20 -2 -19 -20 -20
-20 -20 -17 14 -13 -20 -20 -20 -20 -20 -20 -20 -20 -20 -20 -20 -20 -20 -20 -2 -20 -20 -20 -20 -20 -20 -20 -20 -20 -6 -15 3 -9 -20 -20 -20 -20 -20 -20 -20 -20 -8 0 -1
-2 16 12 10 -20 -20 -20 -20 -20 -20 -20 -20 -20 -20 -20 -20 -19 -20 -20 -20 -20 -20 -20 -20 -20 -20 -20 -20 -20 -1 -2 -7 -20 -20 -20 -20 -20 -20 -20 -20 -20 -20 1 0
6 2 7 -10 -20 -20 -20 -20 -20 -20 -20 -20 -20 -20 -20 -20 -20 -20 -20 -20 -20 -20 -20 -20 -20 -20 -20 -20 -7 -12 -20 -20 -20 -20 -20 -20 -20 -20 -20 -20 -20 -20 -20 -10